Time,TemperatureF,DewpointF,PressureIn,WindDirection,WindDirectionDegrees,WindSpeedMPH,WindSpeedGustMPH,Humidity,HourlyPrecipIn,Conditions,Clouds,dailyrainin,SoftwareType,DateUTC
2013-05-17 00:00:00,74.3,69.9,29.82,East,90,2.5,3.6,86,0.00,,---,0.00,VWS V14.01,2013-05-17 05:00:00,
2013-05-17 00:01:00,74.3,69.9,29.82,ESE,112,2.7,3.8,86,0.00,,---,0.00,VWS V14.01,2013-05-17 05:01:00,
2013-05-17 00:02:00,74.3,69.9,29.82,ESE,112,6.3,6.3,86,0.00,,---,0.00,VWS V14.01,2013-05-17 05:02:00,
2013-05-17 00:03:00,74.3,69.9,29.82,East,90,1.6,8.5,86,0.00,,---,0.00,VWS V14.01,2013-05-17 05:03:00,
2013-05-17 00:04:00,74.3,69.9,29.82,SE,135,2.9,6.9,86,0.00,,---,0.00,VWS V14.01,2013-05-17 05:04:00,
2013-05-17 00:05:00,74.3,70.2,29.82,East,90,3.8,4.0,87,0.00,,---,0.00,VWS V14.01,2013-05-17 05:05:00,
2013-05-17 00:06:00,74.3,69.9,29.82,SE,135,2.5,8.5,86,0.00,,---,0.00,VWS V14.01,2013-05-17 05:06:00,
2013-05-17 00:07:00,74.3,69.9,29.82,SE,135,2.7,5.6,86,0.00,,---,0.00,VWS V14.01,2013-05-17 05:07:00,
2013-05-17 00:08:00,74.3,69.9,29.82,East,90,6.3,6.3,86,0.00,,---,0.00,VWS V14.01,2013-05-17 05:08:00,
2013-05-17 00:09:00,74.2,70.1,29.82,SE,135,3.6,6.3,87,0.00,,---,0.00,VWS V14.01,2013-05-17 05:09:00,
2013-05-17 00:10:00,74.2,70.1,29.82,ENE,68,3.1,7.2,87,0.00,,---,0.00,VWS V14.01,2013-05-17 05:10:00,
2013-05-17 00:11:00,74.2,70.1,29.82,ESE,112,2.9,4.0,87,0.00,,---,0.00,VWS V14.01,2013-05-17 05:11:00,
2013-05-17 00:12:00,74.2,70.1,29.82,East,90,2.0,5.6,87,0.00,,---,0.00,VWS V14.01,2013-05-17 05:12:00,
2013-05-17 00:13:00,74.2,70.1,29.82,South,180,6.0,6.3,87,0.00,,---,0.00,VWS V14.01,2013-05-17 05:13:00,
2013-05-17 00:14:00,74.2,70.1,29.82,SSW,202,2.0,6.0,87,0.00,,---,0.00,VWS V14.01,2013-05-17 05:14:00,
2013-05-17 00:15:00,74.2,70.1,29.82,East,90,2.7,4.0,87,0.00,,---,0.00,VWS V14.01,2013-05-17 05:15:00,
2013-05-17 00:16:00,74.2,70.1,29.82,East,90,1.6,2.7,87,0.00,,---,0.00,VWS V14.01,2013-05-17 05:16:00,
2013-05-17 00:17:00,74.2,70.1,29.82,East,90,3.1,6.3,87,0.00,,---,0.00,VWS V14.01,2013-05-17 05:17:00,
2013-05-17 00:18:00,74.2,70.1,29.82,South,180,3.8,3.8,87,0.00,,---,0.00,VWS V14.01,2013-05-17 05:18:00,
2013-05-17 00:19:00,74.2,70.1,29.82,ESE,112,1.6,3.8,87,0.00,,---,0.00,VWS V14.01,2013-05-17 05:19:00,
2013-05-17 00:20:00,74.2,70.1,29.82,East,90,1.1,3.4,87,0.00,,---,0.00,VWS V14.01,2013-05-17 05:20:00,
2013-05-17 00:21:00,74.2,70.1,29.82,SSW,202,1.1,4.3,87,0.00,,---,0.00,VWS V14.01,2013-05-17 05:21:00,
2013-05-17 00:22:00,74.2,70.1,29.82,South,180,3.8,5.4,87,0.00,,---,0.00,VWS V14.01,2013-05-17 05:22:00,
2013-05-17 00:23:00,74.2,70.1,29.82,NE,45,7.4,7.4,87,0.00,,---,0.00,VWS V14.01,2013-05-17 05:23:00,
2013-05-17 00:24:00,74.2,70.1,29.82,West,270,4.5,7.4,87,0.00,,---,0.00,VWS V14.01,2013-05-17 05:24:00,
2013-05-17 00:25:00,74.0,69.9,29.82,SE,135,2.9,4.5,87,0.00,,---,0.00,VWS V14.01,2013-05-17 05:25:00,
2013-05-17 00:26:00,74.0,69.9,29.82,ESE,112,5.8,7.6,87,0.00,,---,0.00,VWS V14.01,2013-05-17 05:26:00,
2013-05-17 00:27:00,74.0,69.9,29.82,ESE,112,7.6,7.8,87,0.00,,---,0.00,VWS V14.01,2013-05-17 05:27:00,
2013-05-17 00:28:00,74.0,69.9,29.82,South,180,6.9,7.6,87,0.00,,---,0.00,VWS V14.01,2013-05-17 05:28:00,
2013-05-17 00:29:00,74.0,69.9,29.82,East,90,2.5,6.9,87,0.00,,---,0.00,VWS V14.01,2013-05-17 05:29:00,
2013-05-17 00:30:00,74.0,69.9,29.82,ENE,68,4.9,6.0,87,0.00,,---,0.00,VWS V14.01,2013-05-17 05:30:00,
2013-05-17 00:31:00,74.0,69.9,29.82,SW,225,5.4,6.9,87,0.00,,---,0.00,VWS V14.01,2013-05-17 05:31:00,
2013-05-17 00:32:00,74.0,69.9,29.82,South,180,6.3,6.3,87,0.00,,---,0.00,VWS V14.01,2013-05-17 05:32:00,
2013-05-17 00:33:00,74.0,69.9,29.82,SE,135,3.1,6.3,87,0.00,,---,0.00,VWS V14.01,2013-05-17 05:33:00,
2013-05-17 00:34:00,74.0,69.9,29.82,East,90,1.3,9.0,87,0.00,,---,0.00,VWS V14.01,2013-05-17 05:34:00,
2013-05-17 00:35:00,74.0,69.9,29.82,SE,135,10.1,10.1,87,0.00,,---,0.00,VWS V14.01,2013-05-17 05:35:00,
2013-05-17 00:36:00,73.8,69.7,29.82,SE,135,2.7,10.1,87,0.00,,---,0.00,VWS V14.01,2013-05-17 05:36:00,
2013-05-17 00:37:00,73.8,69.7,29.82,SSE,158,3.6,6.3,87,0.00,,---,0.00,VWS V14.01,2013-05-17 05:37:00,
2013-05-17 00:38:00,73.8,69.7,29.82,West,270,4.0,8.1,87,0.00,,---,0.00,VWS V14.01,2013-05-17 05:38:00,
2013-05-17 00:39:00,73.8,69.7,29.82,East,90,6.3,6.3,87,0.00,,---,0.00,VWS V14.01,2013-05-17 05:39:00,
2013-05-17 00:40:00,73.8,69.7,29.82,ESE,112,6.0,6.3,87,0.00,,---,0.00,VWS V14.01,2013-05-17 05:40:00,
2013-05-17 00:41:00,73.8,69.7,29.82,South,180,6.0,8.5,87,0.00,,---,0.00,VWS V14.01,2013-05-17 05:41:00,
2013-05-17 00:42:00,73.8,69.7,29.82,SE,135,2.5,6.0,87,0.00,,---,0.00,VWS V14.01,2013-05-17 05:42:00,
2013-05-17 00:43:00,73.8,69.7,29.82,SW,225,4.7,7.2,87,0.00,,---,0.00,VWS V14.01,2013-05-17 05:43:00,
2013-05-17 00:44:00,73.8,69.7,29.82,South,180,2.2,4.7,87,0.00,,---,0.00,VWS V14.01,2013-05-17 05:44:00,
2013-05-17 00:45:00,73.8,69.7,29.82,SE,135,3.8,7.2,87,0.00,,---,0.00,VWS V14.01,2013-05-17 05:45:00,
2013-05-17 00:46:00,73.8,69.7,29.82,ESE,112,3.6,6.0,87,0.00,,---,0.00,VWS V14.01,2013-05-17 05:46:00,
2013-05-17 00:47:00,73.8,69.7,29.82,SE,135,6.3,6.3,87,0.00,,---,0.00,VWS V14.01,2013-05-17 05:47:00,
2013-05-17 00:48:00,73.8,69.7,29.82,SW,225,6.3,6.3,87,0.00,,---,0.00,VWS V14.01,2013-05-17 05:48:00,
2013-05-17 00:49:00,73.8,69.7,29.82,SSE,158,5.4,6.3,87,0.00,,---,0.00,VWS V14.01,2013-05-17 05:49:00,
2013-05-17 00:50:00,73.8,69.7,29.82,SE,135,2.7,5.4,87,0.00,,---,0.00,VWS V14.01,2013-05-17 05:50:00,
2013-05-17 00:51:00,73.8,69.7,29.82,South,180,2.7,5.6,87,0.00,,---,0.00,VWS V14.01,2013-05-17 05:51:00,
2013-05-17 00:52:00,73.8,69.7,29.82,SSE,158,3.6,5.8,87,0.00,,---,0.00,VWS V14.01,2013-05-17 05:52:00,
2013-05-17 00:53:00,73.8,69.7,29.82,South,180,2.2,3.6,87,0.00,,---,0.00,VWS V14.01,2013-05-17 05:53:00,
2013-05-17 00:54:00,73.8,69.7,29.82,SE,135,3.4,3.8,87,0.00,,---,0.00,VWS V14.01,2013-05-17 05:54:00,
2013-05-17 00:55:00,73.6,69.5,29.82,SE,135,4.3,4.3,87,0.00,,---,0.00,VWS V14.01,2013-05-17 05:55:00,
2013-05-17 00:56:00,73.6,69.5,29.82,East,90,2.0,5.6,87,0.00,,---,0.00,VWS V14.01,2013-05-17 05:56:00,
2013-05-17 00:57:00,73.6,69.5,29.82,South,180,4.0,4.0,87,0.00,,---,0.00,VWS V14.01,2013-05-17 05:57:00,
2013-05-17 00:58:00,73.6,69.5,29.82,ESE,112,3.6,4.3,87,0.00,,---,0.00,VWS V14.01,2013-05-17 05:58:00,
2013-05-17 00:59:00,73.6,69.9,29.82,SE,135,2.7,6.3,88,0.00,,---,0.00,VWS V14.01,2013-05-17 05:59:00,
2013-05-17 01:00:00,73.6,69.9,29.82,WSW,248,1.6,3.1,88,0.00,,---,0.00,VWS V14.01,2013-05-17 06:00:00,
2013-05-17 01:01:00,73.6,69.9,29.82,West,270,4.3,5.8,88,0.00,,---,0.00,VWS V14.01,2013-05-17 06:01:00,
2013-05-17 01:02:00,73.6,69.9,29.82,East,90,2.9,6.3,88,0.00,,---,0.00,VWS V14.01,2013-05-17 06:02:00,
2013-05-17 01:03:00,73.6,69.9,29.82,ESE,112,8.7,8.7,88,0.00,,---,0.00,VWS V14.01,2013-05-17 06:03:00,
2013-05-17 01:04:00,73.6,69.9,29.82,SE,135,4.3,8.7,88,0.00,,---,0.00,VWS V14.01,2013-05-17 06:04:00,
2013-05-17 01:05:00,73.6,69.9,29.82,South,180,3.6,4.3,88,0.00,,---,0.00,VWS V14.01,2013-05-17 06:05:00,
2013-05-17 01:06:00,73.6,69.9,29.82,SSW,202,2.2,5.6,88,0.00,,---,0.00,VWS V14.01,2013-05-17 06:06:00,
2013-05-17 01:07:00,73.6,69.9,29.82,East,90,3.8,3.8,88,0.00,,---,0.00,VWS V14.01,2013-05-17 06:07:00,
2013-05-17 01:08:00,73.6,69.9,29.82,SE,135,2.9,3.8,88,0.00,,---,0.00,VWS V14.01,2013-05-17 06:08:00,
2013-05-17 01:09:00,73.6,69.5,29.82,SSE,158,2.7,3.1,87,0.00,,---,0.00,VWS V14.01,2013-05-17 06:09:00,
2013-05-17 01:10:00,73.6,69.5,29.82,ESE,112,1.6,2.7,87,0.00,,---,0.00,VWS V14.01,2013-05-17 06:10:00,
2013-05-17 01:11:00,73.6,69.5,29.82,SE,135,2.5,3.1,87,0.00,,---,0.00,VWS V14.01,2013-05-17 06:11:00,
2013-05-17 01:12:00,73.6,69.5,29.82,East,90,3.1,5.4,87,0.00,,---,0.00,VWS V14.01,2013-05-17 06:12:00,
2013-05-17 01:13:00,73.6,69.5,29.82,SE,135,2.9,6.3,87,0.00,,---,0.00,VWS V14.01,2013-05-17 06:13:00,
2013-05-17 01:14:00,73.6,69.5,29.82,SE,135,5.6,5.6,87,0.00,,---,0.00,VWS V14.01,2013-05-17 06:14:00,
2013-05-17 01:15:00,73.6,69.5,29.82,SE,135,1.1,6.0,87,0.00,,---,0.00,VWS V14.01,2013-05-17 06:15:00,
2013-05-17 01:16:00,73.6,69.5,29.82,South,180,0.0,2.2,87,0.00,,---,0.00,VWS V14.01,2013-05-17 06:16:00,
2013-05-17 01:17:00,73.6,69.5,29.82,South,180,6.5,6.5,87,0.00,,---,0.00,VWS V14.01,2013-05-17 06:17:00,
2013-05-17 01:18:00,73.6,69.9,29.82,SSE,158,0.9,6.5,88,0.00,,---,0.00,VWS V14.01,2013-05-17 06:18:00,
2013-05-17 01:19:00,73.6,69.5,29.82,SSE,158,1.6,2.9,87,0.00,,---,0.00,VWS V14.01,2013-05-17 06:19:00,
2013-05-17 01:20:00,73.6,69.5,29.82,SE,135,2.5,2.7,87,0.00,,---,0.00,VWS V14.01,2013-05-17 06:20:00,
2013-05-17 01:21:00,73.6,69.5,29.82,SE,135,2.7,3.4,87,0.00,,---,0.00,VWS V14.01,2013-05-17 06:21:00,
2013-05-17 01:22:00,73.6,69.5,29.82,East,90,4.0,4.0,87,0.00,,---,0.00,VWS V14.01,2013-05-17 06:22:00,
2013-05-17 01:23:00,73.6,69.5,29.82,SE,135,5.4,5.4,87,0.00,,---,0.00,VWS V14.01,2013-05-17 06:23:00,
2013-05-17 01:24:00,73.6,69.5,29.82,ESE,112,2.7,5.4,87,0.00,,---,0.00,VWS V14.01,2013-05-17 06:24:00,
2013-05-17 01:25:00,73.6,69.5,29.82,ESE,112,6.0,6.0,87,0.00,,---,0.00,VWS V14.01,2013-05-17 06:25:00,
2013-05-17 01:26:00,73.6,69.5,29.82,SSE,158,1.3,6.0,87,0.00,,---,0.00,VWS V14.01,2013-05-17 06:26:00,
2013-05-17 01:27:00,73.6,69.5,29.82,East,90,0.0,2.7,87,0.00,,---,0.00,VWS V14.01,2013-05-17 06:27:00,
2013-05-17 01:28:00,73.6,69.5,29.82,ESE,112,2.5,2.5,87,0.00,,---,0.00,VWS V14.01,2013-05-17 06:28:00,
2013-05-17 01:29:00,73.6,69.5,29.82,ESE,112,2.7,3.8,87,0.00,,---,0.00,VWS V14.01,2013-05-17 06:29:00,
2013-05-17 01:30:00,73.6,69.5,29.82,SW,225,0.0,4.3,87,0.00,,---,0.00,VWS V14.01,2013-05-17 06:30:00,
2013-05-17 01:31:00,73.6,69.5,29.82,SSE,158,3.8,5.6,87,0.00,,---,0.00,VWS V14.01,2013-05-17 06:31:00,
2013-05-17 01:32:00,73.6,69.9,29.82,East,90,4.3,5.4,88,0.00,,---,0.00,VWS V14.01,2013-05-17 06:32:00,
2013-05-17 01:33:00,73.6,69.5,29.82,NW,315,2.9,4.3,87,0.00,,---,0.00,VWS V14.01,2013-05-17 06:33:00,
2013-05-17 01:34:00,73.6,69.5,29.82,ESE,112,4.0,4.0,87,0.00,,---,0.00,VWS V14.01,2013-05-17 06:34:00,
2013-05-17 01:35:00,73.6,69.5,29.82,SSW,202,1.3,4.0,87,0.00,,---,0.00,VWS V14.01,2013-05-17 06:35:00,
2013-05-17 01:36:00,73.6,69.5,29.82,SE,135,2.5,2.5,87,0.00,,---,0.00,VWS V14.01,2013-05-17 06:36:00,
2013-05-17 01:37:00,73.6,69.5,29.82,NW,315,4.0,4.0,87,0.00,,---,0.00,VWS V14.01,2013-05-17 06:37:00,
2013-05-17 01:38:00,73.6,69.5,29.82,NE,45,3.1,4.0,87,0.00,,---,0.00,VWS V14.01,2013-05-17 06:38:00,
2013-05-17 01:39:00,73.6,69.5,29.82,South,180,1.1,4.3,87,0.00,,---,0.00,VWS V14.01,2013-05-17 06:39:00,
2013-05-17 01:40:00,73.6,69.5,29.82,NW,315,1.1,2.7,87,0.00,,---,0.00,VWS V14.01,2013-05-17 06:40:00,
2013-05-17 01:41:00,73.6,69.5,29.82,SSW,202,1.6,3.1,87,0.00,,---,0.00,VWS V14.01,2013-05-17 06:41:00,
2013-05-17 01:42:00,73.6,69.5,29.82,SE,135,1.1,3.8,87,0.00,,---,0.00,VWS V14.01,2013-05-17 06:42:00,
2013-05-17 01:43:00,73.6,69.5,29.82,SSW,202,1.3,6.0,87,0.00,,---,0.00,VWS V14.01,2013-05-17 06:43:00,
2013-05-17 01:44:00,73.6,69.5,29.82,NE,45,0.9,3.1,87,0.00,,---,0.00,VWS V14.01,2013-05-17 06:44:00,
2013-05-17 01:45:00,73.6,69.5,29.82,SSE,158,5.4,5.4,87,0.00,,---,0.00,VWS V14.01,2013-05-17 06:45:00,
2013-05-17 01:46:00,73.6,69.5,29.82,SE,135,1.6,7.4,87,0.00,,---,0.00,VWS V14.01,2013-05-17 06:46:00,
2013-05-17 01:47:00,73.6,69.5,29.82,SSE,158,2.2,2.2,87,0.00,,---,0.00,VWS V14.01,2013-05-17 06:47:00,
2013-05-17 01:48:00,73.6,69.5,29.82,East,90,3.1,3.1,87,0.00,,---,0.00,VWS V14.01,2013-05-17 06:48:00,
2013-05-17 01:49:00,73.6,69.5,29.82,SE,135,1.3,3.1,87,0.00,,---,0.00,VWS V14.01,2013-05-17 06:49:00,
2013-05-17 01:50:00,73.6,69.5,29.82,SSE,158,2.9,3.6,87,0.00,,---,0.00,VWS V14.01,2013-05-17 06:50:00,
2013-05-17 01:51:00,73.6,69.5,29.82,SE,135,0.9,3.1,87,0.00,,---,0.00,VWS V14.01,2013-05-17 06:51:00,
2013-05-17 01:52:00,73.6,69.5,29.82,ESE,112,2.0,2.2,87,0.00,,---,0.00,VWS V14.01,2013-05-17 06:52:00,
2013-05-17 01:53:00,73.6,69.5,29.82,NNE,22,1.3,3.1,87,0.00,,---,0.00,VWS V14.01,2013-05-17 06:53:00,
2013-05-17 01:54:00,73.6,69.5,29.82,ESE,112,1.1,1.3,87,0.00,,---,0.00,VWS V14.01,2013-05-17 06:54:00,
2013-05-17 01:55:00,73.6,69.5,29.82,SSE,158,0.0,1.3,87,0.00,,---,0.00,VWS V14.01,2013-05-17 06:55:00,
2013-05-17 01:56:00,73.6,69.5,29.82,South,180,0.0,2.9,87,0.00,,---,0.00,VWS V14.01,2013-05-17 06:56:00,
2013-05-17 01:57:00,73.6,69.5,29.82,ESE,112,3.6,3.6,87,0.00,,---,0.00,VWS V14.01,2013-05-17 06:57:00,
2013-05-17 01:58:00,73.6,69.5,29.82,South,180,2.5,3.6,87,0.00,,---,0.00,VWS V14.01,2013-05-17 06:58:00,
2013-05-17 01:59:00,73.6,69.5,29.82,SE,135,0.0,2.5,87,0.00,,---,0.00,VWS V14.01,2013-05-17 06:59:00,
2013-05-17 02:00:00,73.6,69.5,29.82,SE,135,0.0,0.0,87,0.00,,---,0.00,VWS V14.01,2013-05-17 07:00:00,
2013-05-17 02:01:00,73.6,69.5,29.82,SE,135,2.9,3.1,87,0.00,,---,0.00,VWS V14.01,2013-05-17 07:01:00,
2013-05-17 02:02:00,73.6,69.5,29.79,SE,135,1.3,4.7,87,0.00,,---,0.00,VWS V14.01,2013-05-17 07:02:00,
2013-05-17 02:03:00,73.6,69.5,29.79,East,90,2.7,2.7,87,0.00,,---,0.00,VWS V14.01,2013-05-17 07:03:00,
2013-05-17 02:04:00,73.6,69.5,29.79,SSW,202,1.6,2.9,87,0.00,,---,0.00,VWS V14.01,2013-05-17 07:04:00,
2013-05-17 02:05:00,73.6,69.5,29.79,SSW,202,0.9,5.8,87,0.00,,---,0.00,VWS V14.01,2013-05-17 07:05:00,
2013-05-17 02:06:00,73.6,69.5,29.79,ESE,112,2.0,2.2,87,0.00,,---,0.00,VWS V14.01,2013-05-17 07:06:00,
2013-05-17 02:07:00,73.6,69.5,29.79,SW,225,1.6,2.0,87,0.00,,---,0.00,VWS V14.01,2013-05-17 07:07:00,
2013-05-17 02:08:00,73.6,69.5,29.79,ESE,112,0.0,2.5,87,0.00,,---,0.00,VWS V14.01,2013-05-17 07:08:00,
2013-05-17 02:09:00,73.6,69.5,29.79,SSE,158,3.8,5.8,87,0.00,,---,0.00,VWS V14.01,2013-05-17 07:09:00,
2013-05-17 02:10:00,73.6,69.5,29.79,SSW,202,3.6,6.9,87,0.00,,---,0.00,VWS V14.01,2013-05-17 07:10:00,
2013-05-17 02:11:00,73.6,69.5,29.79,ESE,112,1.3,3.6,87,0.00,,---,0.00,VWS V14.01,2013-05-17 07:11:00,
2013-05-17 02:12:00,73.6,69.5,29.79,South,180,3.1,3.1,87,0.00,,---,0.00,VWS V14.01,2013-05-17 07:12:00,
2013-05-17 02:13:00,73.6,69.5,29.79,South,180,3.4,4.0,87,0.00,,---,0.00,VWS V14.01,2013-05-17 07:13:00,
2013-05-17 02:14:00,73.6,69.5,29.79,SW,225,2.9,4.7,87,0.00,,---,0.00,VWS V14.01,2013-05-17 07:14:00,
2013-05-17 02:15:00,73.6,69.5,29.79,SW,225,2.0,4.7,87,0.00,,---,0.00,VWS V14.01,2013-05-17 07:15:00,
2013-05-17 02:16:00,73.6,69.5,29.79,SE,135,1.3,2.0,87,0.00,,---,0.00,VWS V14.01,2013-05-17 07:16:00,
2013-05-17 02:17:00,73.6,69.5,29.79,ESE,112,6.0,6.0,87,0.00,,---,0.00,VWS V14.01,2013-05-17 07:17:00,
2013-05-17 02:18:00,73.6,69.5,29.79,SSW,202,2.2,6.0,87,0.00,,---,0.00,VWS V14.01,2013-05-17 07:18:00,
2013-05-17 02:19:00,73.6,69.5,29.79,South,180,5.4,5.4,87,0.00,,---,0.00,VWS V14.01,2013-05-17 07:19:00,
2013-05-17 02:20:00,73.6,69.5,29.79,South,180,3.1,5.4,87,0.00,,---,0.00,VWS V14.01,2013-05-17 07:20:00,
2013-05-17 02:21:00,73.6,69.5,29.79,South,180,3.1,5.8,87,0.00,,---,0.00,VWS V14.01,2013-05-17 07:21:00,
2013-05-17 02:22:00,73.6,69.5,29.79,SSE,158,3.4,3.8,87,0.00,,---,0.00,VWS V14.01,2013-05-17 07:22:00,
2013-05-17 02:23:00,73.6,69.5,29.79,SE,135,2.7,3.4,87,0.00,,---,0.00,VWS V14.01,2013-05-17 07:23:00,
2013-05-17 02:24:00,73.6,69.5,29.79,East,90,2.0,3.1,87,0.00,,---,0.00,VWS V14.01,2013-05-17 07:24:00,
2013-05-17 02:25:00,73.6,69.5,29.79,SSE,158,2.5,2.5,87,0.00,,---,0.00,VWS V14.01,2013-05-17 07:25:00,
2013-05-17 02:26:00,73.6,69.5,29.79,SSW,202,2.5,4.0,87,0.00,,---,0.00,VWS V14.01,2013-05-17 07:26:00,
2013-05-17 02:27:00,73.6,69.5,29.79,ESE,112,1.3,3.8,87,0.00,,---,0.00,VWS V14.01,2013-05-17 07:27:00,
2013-05-17 02:28:00,73.6,69.5,29.79,ESE,112,4.0,4.0,87,0.00,,---,0.00,VWS V14.01,2013-05-17 07:28:00,
2013-05-17 02:29:00,73.6,69.5,29.79,ESE,112,2.9,5.6,87,0.00,,---,0.00,VWS V14.01,2013-05-17 07:29:00,
2013-05-17 02:30:00,73.6,69.5,29.79,South,180,5.4,5.4,87,0.00,,---,0.00,VWS V14.01,2013-05-17 07:30:00,
2013-05-17 02:31:00,73.6,69.5,29.79,SE,135,2.7,5.4,87,0.00,,---,0.00,VWS V14.01,2013-05-17 07:31:00,
2013-05-17 02:32:00,73.6,69.5,29.79,SSE,158,2.2,3.6,87,0.00,,---,0.00,VWS V14.01,2013-05-17 07:32:00,
2013-05-17 02:33:00,73.6,69.5,29.79,ESE,112,3.8,3.8,87,0.00,,---,0.00,VWS V14.01,2013-05-17 07:33:00,
2013-05-17 02:34:00,73.6,69.5,29.79,SE,135,4.9,4.9,87,0.00,,---,0.00,VWS V14.01,2013-05-17 07:34:00,
2013-05-17 02:35:00,73.6,69.5,29.79,ESE,112,3.8,6.0,87,0.00,,---,0.00,VWS V14.01,2013-05-17 07:35:00,
2013-05-17 02:36:00,73.6,69.5,29.79,East,90,2.5,4.3,87,0.00,,---,0.00,VWS V14.01,2013-05-17 07:36:00,
2013-05-17 02:37:00,73.6,69.5,29.79,SE,135,1.3,2.5,87,0.00,,---,0.00,VWS V14.01,2013-05-17 07:37:00,
2013-05-17 02:38:00,73.6,69.5,29.79,ESE,112,0.0,1.3,87,0.00,,---,0.00,VWS V14.01,2013-05-17 07:38:00,
2013-05-17 02:39:00,73.6,69.5,29.79,SSE,158,2.9,2.9,87,0.00,,---,0.00,VWS V14.01,2013-05-17 07:39:00,
2013-05-17 02:40:00,73.6,69.5,29.79,South,180,1.6,2.9,87,0.00,,---,0.00,VWS V14.01,2013-05-17 07:40:00,
2013-05-17 02:41:00,73.6,69.5,29.79,East,90,5.8,5.8,87,0.00,,---,0.00,VWS V14.01,2013-05-17 07:41:00,
2013-05-17 02:42:00,73.6,69.5,29.79,SSE,158,3.6,8.5,87,0.00,,---,0.00,VWS V14.01,2013-05-17 07:42:00,
2013-05-17 02:43:00,73.6,69.5,29.79,ESE,112,2.9,3.6,87,0.00,,---,0.00,VWS V14.01,2013-05-17 07:43:00,
2013-05-17 02:44:00,73.6,69.5,29.79,SW,225,2.9,4.9,87,0.00,,---,0.00,VWS V14.01,2013-05-17 07:44:00,
2013-05-17 02:45:00,73.6,69.5,29.79,East,90,5.8,5.8,87,0.00,,---,0.00,VWS V14.01,2013-05-17 07:45:00,
2013-05-17 02:46:00,73.5,69.4,29.79,East,90,3.4,6.3,87,0.00,,---,0.00,VWS V14.01,2013-05-17 07:46:00,
2013-05-17 02:47:00,73.5,69.7,29.82,SE,135,3.4,4.9,88,0.00,,---,0.00,VWS V14.01,2013-05-17 07:47:00,
2013-05-17 02:48:00,73.5,69.4,29.82,SSE,158,8.1,8.1,87,0.00,,---,0.00,VWS V14.01,2013-05-17 07:48:00,
2013-05-17 02:49:00,73.5,69.4,29.82,SE,135,5.6,8.1,87,0.00,,---,0.00,VWS V14.01,2013-05-17 07:49:00,
2013-05-17 02:50:00,73.5,69.7,29.82,South,180,4.9,5.6,88,0.00,,---,0.00,VWS V14.01,2013-05-17 07:50:00,
2013-05-17 02:51:00,73.5,69.4,29.82,ESE,112,0.9,4.9,87,0.00,,---,0.00,VWS V14.01,2013-05-17 07:51:00,
2013-05-17 02:52:00,73.5,69.4,29.82,South,180,4.7,6.3,87,0.00,,---,0.00,VWS V14.01,2013-05-17 07:52:00,
2013-05-17 02:53:00,73.5,69.4,29.82,SE,135,2.5,4.7,87,0.00,,---,0.00,VWS V14.01,2013-05-17 07:53:00,
2013-05-17 02:54:00,73.5,69.4,29.82,East,90,4.3,5.6,87,0.00,,---,0.00,VWS V14.01,2013-05-17 07:54:00,
2013-05-17 02:55:00,73.5,69.7,29.82,SE,135,2.7,4.3,88,0.00,,---,0.00,VWS V14.01,2013-05-17 07:55:00,
2013-05-17 02:56:00,73.5,69.7,29.82,SE,135,2.7,4.9,88,0.00,,---,0.00,VWS V14.01,2013-05-17 07:56:00,
2013-05-17 02:57:00,73.5,69.7,29.82,SE,135,3.8,3.8,88,0.00,,---,0.00,VWS V14.01,2013-05-17 07:57:00,
2013-05-17 02:58:00,73.5,69.7,29.82,South,180,2.5,4.9,88,0.00,,---,0.00,VWS V14.01,2013-05-17 07:58:00,
2013-05-17 02:59:00,73.5,69.7,29.82,SSW,202,2.7,3.1,88,0.00,,---,0.00,VWS V14.01,2013-05-17 07:59:00,
2013-05-17 03:00:00,73.5,69.7,29.82,ESE,112,2.0,3.6,88,0.00,,---,0.00,VWS V14.01,2013-05-17 08:00:00,
2013-05-17 03:01:00,73.5,69.7,29.82,South,180,3.4,3.4,88,0.00,,---,0.00,VWS V14.01,2013-05-17 08:01:00,
2013-05-17 03:02:00,73.5,69.7,29.82,South,180,0.0,6.3,88,0.00,,---,0.00,VWS V14.01,2013-05-17 08:02:00,
2013-05-17 03:03:00,73.5,69.7,29.82,SSE,158,1.6,1.6,88,0.00,,---,0.00,VWS V14.01,2013-05-17 08:03:00,
2013-05-17 03:04:00,73.5,69.7,29.82,SSE,158,1.1,7.2,88,0.00,,---,0.00,VWS V14.01,2013-05-17 08:04:00,
2013-05-17 03:05:00,73.5,69.7,29.82,SE,135,3.6,5.4,88,0.00,,---,0.00,VWS V14.01,2013-05-17 08:05:00,
2013-05-17 03:06:00,73.5,69.7,29.82,SSW,202,3.6,3.6,88,0.00,,---,0.00,VWS V14.01,2013-05-17 08:06:00,
2013-05-17 03:07:00,73.3,69.2,29.82,SE,135,1.6,4.3,87,0.00,,---,0.00,VWS V14.01,2013-05-17 08:07:00,
2013-05-17 03:08:00,73.3,69.2,29.82,East,90,0.9,3.8,87,0.00,,---,0.00,VWS V14.01,2013-05-17 08:08:00,
2013-05-17 03:09:00,73.3,69.2,29.82,SSW,202,2.2,7.2,87,0.00,,---,0.00,VWS V14.01,2013-05-17 08:09:00,
2013-05-17 03:10:00,73.3,69.5,29.82,WSW,248,0.0,3.6,88,0.00,,---,0.00,VWS V14.01,2013-05-17 08:10:00,
2013-05-17 03:11:00,73.3,69.2,29.82,SSE,158,1.6,1.6,87,0.00,,---,0.00,VWS V14.01,2013-05-17 08:11:00,
2013-05-17 03:12:00,73.3,69.2,29.82,SSE,158,2.0,2.7,87,0.00,,---,0.00,VWS V14.01,2013-05-17 08:12:00,
2013-05-17 03:13:00,73.3,69.5,29.82,East,90,2.9,3.1,88,0.00,,---,0.00,VWS V14.01,2013-05-17 08:13:00,
2013-05-17 03:14:00,73.3,69.2,29.82,SSE,158,1.6,3.8,87,0.00,,---,0.00,VWS V14.01,2013-05-17 08:14:00,
2013-05-17 03:15:00,73.3,69.2,29.82,SE,135,5.8,5.8,87,0.00,,---,0.00,VWS V14.01,2013-05-17 08:15:00,
2013-05-17 03:16:00,73.3,69.2,29.82,SE,135,2.0,3.1,87,0.00,,---,0.00,VWS V14.01,2013-05-17 08:16:00,
2013-05-17 03:17:00,73.3,69.2,29.82,ESE,112,6.0,6.0,87,0.00,,---,0.00,VWS V14.01,2013-05-17 08:17:00,
2013-05-17 03:18:00,73.3,69.2,29.82,ESE,112,1.6,6.0,87,0.00,,---,0.00,VWS V14.01,2013-05-17 08:18:00,
2013-05-17 03:19:00,73.3,69.2,29.82,SE,135,0.9,3.1,87,0.00,,---,0.00,VWS V14.01,2013-05-17 08:19:00,
2013-05-17 03:20:00,73.3,69.2,29.82,SSW,202,1.6,2.7,87,0.00,,---,0.00,VWS V14.01,2013-05-17 08:20:00,
2013-05-17 03:21:00,73.3,69.2,29.82,SSW,202,0.9,3.1,87,0.00,,---,0.00,VWS V14.01,2013-05-17 08:21:00,
2013-05-17 03:22:00,73.3,69.2,29.82,SE,135,4.5,4.5,87,0.00,,---,0.00,VWS V14.01,2013-05-17 08:22:00,
2013-05-17 03:23:00,73.3,69.2,29.82,South,180,5.4,7.4,87,0.00,,---,0.00,VWS V14.01,2013-05-17 08:23:00,
2013-05-17 03:24:00,73.3,69.2,29.82,SSW,202,2.0,5.4,87,0.00,,---,0.00,VWS V14.01,2013-05-17 08:24:00,
2013-05-17 03:25:00,73.1,69.0,29.82,SSW,202,1.3,2.9,87,0.00,,---,0.00,VWS V14.01,2013-05-17 08:25:00,
2013-05-17 03:26:00,73.1,69.0,29.82,SSW,202,1.3,1.3,87,0.00,,---,0.00,VWS V14.01,2013-05-17 08:26:00,
2013-05-17 03:27:00,73.1,69.0,29.82,South,180,3.8,3.8,87,0.00,,---,0.00,VWS V14.01,2013-05-17 08:27:00,
2013-05-17 03:28:00,73.1,69.0,29.82,SSW,202,1.3,3.8,87,0.00,,---,0.00,VWS V14.01,2013-05-17 08:28:00,
2013-05-17 03:29:00,73.1,69.0,29.82,SSW,202,2.5,7.4,87,0.00,,---,0.00,VWS V14.01,2013-05-17 08:29:00,
2013-05-17 03:30:00,73.1,69.0,29.82,SSW,202,1.6,3.6,87,0.00,,---,0.00,VWS V14.01,2013-05-17 08:30:00,
2013-05-17 03:31:00,73.1,69.0,29.82,East,90,0.0,3.6,87,0.00,,---,0.00,VWS V14.01,2013-05-17 08:31:00,
2013-05-17 03:32:00,73.1,69.0,29.82,SE,135,0.9,3.1,87,0.00,,---,0.00,VWS V14.01,2013-05-17 08:32:00,
2013-05-17 03:33:00,73.1,69.0,29.82,SSE,158,3.6,3.6,87,0.00,,---,0.00,VWS V14.01,2013-05-17 08:33:00,
2013-05-17 03:34:00,73.1,69.0,29.82,ESE,112,0.9,3.6,87,0.00,,---,0.00,VWS V14.01,2013-05-17 08:34:00,
2013-05-17 03:35:00,73.1,69.0,29.82,East,90,2.5,4.9,87,0.00,,---,0.00,VWS V14.01,2013-05-17 08:35:00,
2013-05-17 03:36:00,73.1,69.0,29.82,ESE,112,2.0,3.1,87,0.00,,---,0.00,VWS V14.01,2013-05-17 08:36:00,
2013-05-17 03:37:00,73.1,69.0,29.82,SE,135,2.7,4.0,87,0.00,,---,0.00,VWS V14.01,2013-05-17 08:37:00,
2013-05-17 03:38:00,73.1,69.0,29.82,SSE,158,2.5,4.0,87,0.00,,---,0.00,VWS V14.01,2013-05-17 08:38:00,
2013-05-17 03:39:00,73.1,69.0,29.82,SE,135,3.4,3.8,87,0.00,,---,0.00,VWS V14.01,2013-05-17 08:39:00,
2013-05-17 03:40:00,73.1,69.0,29.82,SW,225,1.6,4.0,87,0.00,,---,0.00,VWS V14.01,2013-05-17 08:40:00,
2013-05-17 03:41:00,73.1,69.0,29.82,ESE,112,3.1,3.1,87,0.00,,---,0.00,VWS V14.01,2013-05-17 08:41:00,
2013-05-17 03:42:00,73.1,69.0,29.82,SSW,202,2.2,4.0,87,0.00,,---,0.00,VWS V14.01,2013-05-17 08:42:00,
2013-05-17 03:43:00,72.9,68.8,29.82,South,180,4.5,4.5,87,0.00,,---,0.00,VWS V14.01,2013-05-17 08:43:00,
2013-05-17 03:44:00,72.9,68.8,29.82,East,90,0.0,4.7,87,0.00,,---,0.00,VWS V14.01,2013-05-17 08:44:00,
2013-05-17 03:45:00,72.9,68.8,29.82,SSW,202,6.3,9.0,87,0.00,,---,0.00,VWS V14.01,2013-05-17 08:45:00,
2013-05-17 03:46:00,72.9,68.8,29.82,South,180,2.9,6.3,87,0.00,,---,0.00,VWS V14.01,2013-05-17 08:46:00,
2013-05-17 03:47:00,72.9,68.8,29.82,South,180,5.4,5.6,87,0.00,,---,0.00,VWS V14.01,2013-05-17 08:47:00,
2013-05-17 03:48:00,72.9,68.8,29.82,South,180,2.7,7.6,87,0.00,,---,0.00,VWS V14.01,2013-05-17 08:48:00,
2013-05-17 03:49:00,72.9,68.8,29.82,SE,135,3.6,3.6,87,0.00,,---,0.00,VWS V14.01,2013-05-17 08:49:00,
2013-05-17 03:50:00,72.9,68.8,29.82,South,180,5.6,7.2,87,0.00,,---,0.00,VWS V14.01,2013-05-17 08:50:00,
2013-05-17 03:51:00,72.9,68.8,29.82,South,180,3.6,5.6,87,0.00,,---,0.00,VWS V14.01,2013-05-17 08:51:00,
2013-05-17 03:52:00,72.9,68.8,29.82,East,90,2.0,3.6,87,0.00,,---,0.00,VWS V14.01,2013-05-17 08:52:00,
2013-05-17 03:53:00,72.8,68.7,29.82,South,180,1.3,2.0,87,0.00,,---,0.00,VWS V14.01,2013-05-17 08:53:00,
2013-05-17 03:54:00,72.8,68.7,29.82,ESE,112,1.3,2.9,87,0.00,,---,0.00,VWS V14.01,2013-05-17 08:54:00,
2013-05-17 03:55:00,72.8,68.7,29.82,ESE,112,0.0,2.9,87,0.00,,---,0.00,VWS V14.01,2013-05-17 08:55:00,
2013-05-17 03:56:00,72.8,68.7,29.82,East,90,1.6,2.7,87,0.00,,---,0.00,VWS V14.01,2013-05-17 08:56:00,
2013-05-17 03:57:00,72.8,68.7,29.82,South,180,4.9,4.9,87,0.00,,---,0.00,VWS V14.01,2013-05-17 08:57:00,
2013-05-17 03:58:00,72.8,68.7,29.82,East,90,1.3,4.9,87,0.00,,---,0.00,VWS V14.01,2013-05-17 08:58:00,
2013-05-17 03:59:00,72.8,68.7,29.82,SSE,158,2.9,2.9,87,0.00,,---,0.00,VWS V14.01,2013-05-17 08:59:00,
2013-05-17 04:00:00,72.8,68.7,29.82,SE,135,5.4,5.6,87,0.00,,---,0.00,VWS V14.01,2013-05-17 09:00:00,
2013-05-17 04:01:00,72.8,68.7,29.82,SSW,202,2.5,5.4,87,0.00,,---,0.00,VWS V14.01,2013-05-17 09:01:00,
2013-05-17 04:02:00,72.8,68.7,29.82,SSW,202,3.4,3.4,87,0.00,,---,0.00,VWS V14.01,2013-05-17 09:02:00,
2013-05-17 04:03:00,72.8,68.7,29.82,SE,135,2.2,3.4,87,0.00,,---,0.00,VWS V14.01,2013-05-17 09:03:00,
2013-05-17 04:04:00,72.8,68.7,29.82,South,180,1.6,4.0,87,0.00,,---,0.00,VWS V14.01,2013-05-17 09:04:00,
2013-05-17 04:05:00,72.8,68.7,29.82,South,180,2.7,3.4,87,0.00,,---,0.00,VWS V14.01,2013-05-17 09:05:00,
2013-05-17 04:06:00,72.8,68.7,29.82,SSE,158,1.1,2.9,87,0.00,,---,0.00,VWS V14.01,2013-05-17 09:06:00,
2013-05-17 04:07:00,72.8,68.7,29.82,South,180,0.0,1.1,87,0.00,,---,0.00,VWS V14.01,2013-05-17 09:07:00,
2013-05-17 04:08:00,72.8,68.7,29.82,WSW,248,0.0,0.0,87,0.00,,---,0.00,VWS V14.01,2013-05-17 09:08:00,
2013-05-17 04:09:00,72.8,68.7,29.82,South,180,0.0,2.5,87,0.00,,---,0.00,VWS V14.01,2013-05-17 09:09:00,
2013-05-17 04:10:00,72.8,68.7,29.82,ENE,68,1.1,1.1,87,0.00,,---,0.00,VWS V14.01,2013-05-17 09:10:00,
2013-05-17 04:11:00,72.8,68.7,29.82,South,180,1.1,1.1,87,0.00,,---,0.00,VWS V14.01,2013-05-17 09:11:00,
2013-05-17 04:12:00,72.8,68.7,29.82,East,90,1.3,1.3,87,0.00,,---,0.00,VWS V14.01,2013-05-17 09:12:00,
2013-05-17 04:13:00,72.8,68.7,29.82,South,180,2.7,3.8,87,0.00,,---,0.00,VWS V14.01,2013-05-17 09:13:00,
2013-05-17 04:14:00,72.8,68.7,29.82,SE,135,1.6,4.0,87,0.00,,---,0.00,VWS V14.01,2013-05-17 09:14:00,
2013-05-17 04:15:00,72.8,68.7,29.82,SE,135,2.2,2.2,87,0.00,,---,0.00,VWS V14.01,2013-05-17 09:15:00,
2013-05-17 04:16:00,72.8,68.7,29.82,East,90,2.9,2.9,87,0.00,,---,0.00,VWS V14.01,2013-05-17 09:16:00,
2013-05-17 04:17:00,72.8,68.7,29.82,South,180,2.5,5.8,87,0.00,,---,0.00,VWS V14.01,2013-05-17 09:17:00,
2013-05-17 04:18:00,72.6,68.5,29.82,SE,135,0.0,2.5,87,0.00,,---,0.00,VWS V14.01,2013-05-17 09:18:00,
2013-05-17 04:19:00,72.6,68.5,29.82,NNW,338,0.0,0.0,87,0.00,,---,0.00,VWS V14.01,2013-05-17 09:19:00,
2013-05-17 04:20:00,72.6,68.5,29.82,ESE,112,0.9,0.9,87,0.00,,---,0.00,VWS V14.01,2013-05-17 09:20:00,
2013-05-17 04:21:00,72.6,68.5,29.82,South,180,2.0,2.7,87,0.00,,---,0.00,VWS V14.01,2013-05-17 09:21:00,
2013-05-17 04:22:00,72.6,68.5,29.82,SE,135,1.6,4.0,87,0.00,,---,0.00,VWS V14.01,2013-05-17 09:22:00,
2013-05-17 04:23:00,72.6,68.5,29.82,South,180,2.7,4.0,87,0.00,,---,0.00,VWS V14.01,2013-05-17 09:23:00,
2013-05-17 04:24:00,72.6,68.5,29.82,ESE,112,2.7,3.8,87,0.00,,---,0.00,VWS V14.01,2013-05-17 09:24:00,
2013-05-17 04:25:00,72.6,68.5,29.82,ENE,68,4.3,6.5,87,0.00,,---,0.00,VWS V14.01,2013-05-17 09:25:00,
2013-05-17 04:26:00,72.6,68.5,29.82,ESE,112,3.6,4.3,87,0.00,,---,0.00,VWS V14.01,2013-05-17 09:26:00,
2013-05-17 04:27:00,72.6,68.5,29.82,East,90,0.0,3.6,87,0.00,,---,0.00,VWS V14.01,2013-05-17 09:27:00,
2013-05-17 04:28:00,72.6,68.5,29.82,ESE,112,2.9,2.9,87,0.00,,---,0.00,VWS V14.01,2013-05-17 09:28:00,
2013-05-17 04:29:00,72.6,68.5,29.82,ESE,112,3.4,3.4,87,0.00,,---,0.00,VWS V14.01,2013-05-17 09:29:00,
2013-05-17 04:30:00,72.6,68.5,29.82,SSE,158,0.0,3.4,87,0.00,,---,0.00,VWS V14.01,2013-05-17 09:30:00,
2013-05-17 04:31:00,72.6,68.5,29.82,East,90,3.6,3.8,87,0.00,,---,0.00,VWS V14.01,2013-05-17 09:31:00,
2013-05-17 04:32:00,72.6,68.5,29.82,South,180,4.0,4.0,87,0.00,,---,0.00,VWS V14.01,2013-05-17 09:32:00,
2013-05-17 04:33:00,72.6,68.5,29.82,ESE,112,2.0,4.0,87,0.00,,---,0.00,VWS V14.01,2013-05-17 09:33:00,
2013-05-17 04:34:00,72.6,68.5,29.82,SE,135,1.6,4.3,87,0.00,,---,0.00,VWS V14.01,2013-05-17 09:34:00,
2013-05-17 04:35:00,72.6,68.5,29.82,ESE,112,3.6,3.6,87,0.00,,---,0.00,VWS V14.01,2013-05-17 09:35:00,
2013-05-17 04:36:00,72.6,68.5,29.82,South,180,2.5,6.0,87,0.00,,---,0.00,VWS V14.01,2013-05-17 09:36:00,
2013-05-17 04:37:00,72.6,68.5,29.82,South,180,6.3,6.3,87,0.00,,---,0.00,VWS V14.01,2013-05-17 09:37:00,
2013-05-17 04:38:00,72.6,68.5,29.82,SSE,158,3.4,6.3,87,0.00,,---,0.00,VWS V14.01,2013-05-17 09:38:00,
2013-05-17 04:39:00,72.4,68.3,29.82,SSW,202,2.0,4.3,87,0.00,,---,0.00,VWS V14.01,2013-05-17 09:39:00,
2013-05-17 04:40:00,72.4,68.3,29.82,South,180,2.0,2.7,87,0.00,,---,0.00,VWS V14.01,2013-05-17 09:40:00,
2013-05-17 04:41:00,72.4,68.3,29.82,SE,135,0.9,2.9,87,0.00,,---,0.00,VWS V14.01,2013-05-17 09:41:00,
2013-05-17 04:42:00,72.6,68.5,29.82,East,90,3.1,3.8,87,0.00,,---,0.00,VWS V14.01,2013-05-17 09:42:00,
2013-05-17 04:43:00,72.6,68.5,29.82,ESE,112,2.9,6.3,87,0.00,,---,0.00,VWS V14.01,2013-05-17 09:43:00,
2013-05-17 04:44:00,72.4,68.3,29.82,South,180,1.3,2.9,87,0.00,,---,0.00,VWS V14.01,2013-05-17 09:44:00,
2013-05-17 04:45:00,72.4,68.3,29.82,South,180,3.6,3.6,87,0.00,,---,0.00,VWS V14.01,2013-05-17 09:45:00,
2013-05-17 04:46:00,72.4,68.3,29.82,South,180,2.0,3.8,87,0.00,,---,0.00,VWS V14.01,2013-05-17 09:46:00,
2013-05-17 04:47:00,72.4,68.3,29.82,South,180,2.0,2.7,87,0.00,,---,0.00,VWS V14.01,2013-05-17 09:47:00,
2013-05-17 04:48:00,72.4,68.3,29.82,SSE,158,2.5,2.9,87,0.00,,---,0.00,VWS V14.01,2013-05-17 09:48:00,
2013-05-17 04:49:00,72.4,68.3,29.82,ESE,112,1.6,2.9,87,0.00,,---,0.00,VWS V14.01,2013-05-17 09:49:00,
2013-05-17 04:50:00,72.4,68.3,29.82,ESE,112,0.0,3.4,87,0.00,,---,0.00,VWS V14.01,2013-05-17 09:50:00,
2013-05-17 04:51:00,72.4,68.3,29.82,SSW,202,1.1,4.3,87,0.00,,---,0.00,VWS V14.01,2013-05-17 09:51:00,
2013-05-17 04:52:00,72.2,68.1,29.82,East,90,0.0,2.5,87,0.00,,---,0.00,VWS V14.01,2013-05-17 09:52:00,
2013-05-17 04:53:00,72.2,68.5,29.82,South,180,0.0,2.0,88,0.00,,---,0.00,VWS V14.01,2013-05-17 09:53:00,
2013-05-17 04:54:00,72.2,68.1,29.82,East,90,2.7,2.7,87,0.00,,---,0.00,VWS V14.01,2013-05-17 09:54:00,
2013-05-17 04:55:00,72.2,68.1,29.82,SSE,158,2.2,2.7,87,0.00,,---,0.00,VWS V14.01,2013-05-17 09:55:00,
2013-05-17 04:56:00,72.2,68.5,29.82,NE,45,0.0,4.7,88,0.00,,---,0.00,VWS V14.01,2013-05-17 09:56:00,
2013-05-17 04:57:00,72.0,68.3,29.82,East,90,3.4,3.4,88,0.00,,---,0.00,VWS V14.01,2013-05-17 09:57:00,
2013-05-17 04:58:00,72.0,68.3,29.82,SSE,158,2.5,3.4,88,0.00,,---,0.00,VWS V14.01,2013-05-17 09:58:00,
2013-05-17 04:59:00,72.0,68.3,29.82,ESE,112,0.0,2.5,88,0.00,,---,0.00,VWS V14.01,2013-05-17 09:59:00,
2013-05-17 05:00:00,72.0,68.3,29.82,SSE,158,1.6,3.8,88,0.00,,---,0.00,VWS V14.01,2013-05-17 10:00:00,
2013-05-17 05:01:00,71.9,68.1,29.82,South,180,3.6,3.8,88,0.00,,---,0.00,VWS V14.01,2013-05-17 10:01:00,
2013-05-17 05:02:00,71.9,68.1,29.82,South,180,0.0,3.6,88,0.00,,---,0.00,VWS V14.01,2013-05-17 10:02:00,
2013-05-17 05:03:00,71.9,68.1,29.82,ESE,112,0.0,0.0,88,0.00,,---,0.00,VWS V14.01,2013-05-17 10:03:00,
2013-05-17 05:04:00,71.9,68.1,29.82,SE,135,3.1,4.0,88,0.00,,---,0.00,VWS V14.01,2013-05-17 10:04:00,
2013-05-17 05:05:00,71.9,68.1,29.82,South,180,0.0,3.1,88,0.00,,---,0.00,VWS V14.01,2013-05-17 10:05:00,
2013-05-17 05:06:00,71.9,68.1,29.82,ESE,112,1.1,1.1,88,0.00,,---,0.00,VWS V14.01,2013-05-17 10:06:00,
2013-05-17 05:07:00,71.9,68.1,29.82,SE,135,2.9,5.8,88,0.00,,---,0.00,VWS V14.01,2013-05-17 10:07:00,
2013-05-17 05:08:00,71.9,68.1,29.82,SE,135,2.0,2.9,88,0.00,,---,0.00,VWS V14.01,2013-05-17 10:08:00,
2013-05-17 05:09:00,71.9,68.1,29.82,SE,135,2.2,3.1,88,0.00,,---,0.00,VWS V14.01,2013-05-17 10:09:00,
2013-05-17 05:10:00,71.9,68.1,29.82,SE,135,2.7,2.7,88,0.00,,---,0.00,VWS V14.01,2013-05-17 10:10:00,
2013-05-17 05:11:00,71.9,68.1,29.82,SE,135,2.0,4.0,88,0.00,,---,0.00,VWS V14.01,2013-05-17 10:11:00,
2013-05-17 05:12:00,71.9,68.1,29.82,SSE,158,2.0,4.3,88,0.00,,---,0.00,VWS V14.01,2013-05-17 10:12:00,
2013-05-17 05:13:00,71.7,67.9,29.82,East,90,2.9,4.9,88,0.00,,---,0.00,VWS V14.01,2013-05-17 10:13:00,
2013-05-17 05:14:00,71.7,67.9,29.82,East,90,1.1,5.4,88,0.00,,---,0.00,VWS V14.01,2013-05-17 10:14:00,
2013-05-17 05:15:00,71.7,67.9,29.82,SE,135,3.6,4.7,88,0.00,,---,0.00,VWS V14.01,2013-05-17 10:15:00,
2013-05-17 05:16:00,71.7,67.9,29.82,South,180,2.2,3.6,88,0.00,,---,0.00,VWS V14.01,2013-05-17 10:16:00,
2013-05-17 05:17:00,71.5,67.8,29.85,East,90,3.4,3.4,88,0.00,,---,0.00,VWS V14.01,2013-05-17 10:17:00,
2013-05-17 05:18:00,71.5,67.8,29.85,SW,225,1.3,3.4,88,0.00,,---,0.00,VWS V14.01,2013-05-17 10:18:00,
2013-05-17 05:19:00,71.5,67.8,29.85,ESE,112,0.0,1.3,88,0.00,,---,0.00,VWS V14.01,2013-05-17 10:19:00,
2013-05-17 05:20:00,71.5,67.8,29.85,SSE,158,2.5,2.9,88,0.00,,---,0.00,VWS V14.01,2013-05-17 10:20:00,
2013-05-17 05:21:00,71.5,67.8,29.85,South,180,0.0,2.5,88,0.00,,---,0.00,VWS V14.01,2013-05-17 10:21:00,
2013-05-17 05:22:00,71.5,67.8,29.85,East,90,0.0,0.0,88,0.00,,---,0.00,VWS V14.01,2013-05-17 10:22:00,
2013-05-17 05:23:00,71.5,67.8,29.85,ESE,112,1.6,2.5,88,0.00,,---,0.00,VWS V14.01,2013-05-17 10:23:00,
2013-05-17 05:24:00,71.3,67.6,29.85,South,180,0.0,1.6,88,0.00,,---,0.00,VWS V14.01,2013-05-17 10:24:00,
2013-05-17 05:25:00,71.3,67.6,29.85,SE,135,2.0,2.9,88,0.00,,---,0.00,VWS V14.01,2013-05-17 10:25:00,
2013-05-17 05:26:00,71.3,67.6,29.85,SE,135,0.0,2.0,88,0.00,,---,0.00,VWS V14.01,2013-05-17 10:26:00,
2013-05-17 05:27:00,71.3,67.6,29.85,ESE,112,2.7,2.7,88,0.00,,---,0.00,VWS V14.01,2013-05-17 10:27:00,
2013-05-17 05:28:00,71.3,67.6,29.85,South,180,0.0,2.7,88,0.00,,---,0.00,VWS V14.01,2013-05-17 10:28:00,
2013-05-17 05:29:00,71.3,67.6,29.85,ESE,112,1.3,2.0,88,0.00,,---,0.00,VWS V14.01,2013-05-17 10:29:00,
2013-05-17 05:30:00,71.3,67.6,29.85,ESE,112,0.0,1.3,88,0.00,,---,0.00,VWS V14.01,2013-05-17 10:30:00,
2013-05-17 05:31:00,71.2,67.8,29.85,SE,135,2.0,2.5,89,0.00,,---,0.00,VWS V14.01,2013-05-17 10:31:00,
2013-05-17 05:32:00,71.2,67.8,29.85,East,90,1.6,2.0,89,0.00,,---,0.00,VWS V14.01,2013-05-17 10:32:00,
2013-05-17 05:33:00,71.2,67.8,29.85,SSE,158,0.0,1.6,89,0.00,,---,0.00,VWS V14.01,2013-05-17 10:33:00,
2013-05-17 05:34:00,71.2,67.8,29.85,ESE,112,3.4,3.4,89,0.00,,---,0.00,VWS V14.01,2013-05-17 10:34:00,
2013-05-17 05:35:00,71.2,67.8,29.85,SE,135,0.9,3.4,89,0.00,,---,0.00,VWS V14.01,2013-05-17 10:35:00,
2013-05-17 05:36:00,71.2,67.8,29.85,South,180,2.9,2.9,89,0.00,,---,0.00,VWS V14.01,2013-05-17 10:36:00,
2013-05-17 05:37:00,71.2,67.8,29.85,NE,45,0.0,2.9,89,0.00,,---,0.00,VWS V14.01,2013-05-17 10:37:00,
2013-05-17 05:38:00,71.2,67.8,29.85,SSW,202,0.0,0.9,89,0.00,,---,0.00,VWS V14.01,2013-05-17 10:38:00,
2013-05-17 05:39:00,71.2,67.8,29.85,SSE,158,0.0,0.0,89,0.00,,---,0.00,VWS V14.01,2013-05-17 10:39:00,
2013-05-17 05:40:00,71.0,67.6,29.85,ESE,112,0.0,0.0,89,0.00,,---,0.00,VWS V14.01,2013-05-17 10:40:00,
2013-05-17 05:41:00,71.0,67.6,29.85,South,180,2.9,3.1,89,0.00,,---,0.00,VWS V14.01,2013-05-17 10:41:00,
2013-05-17 05:42:00,71.0,67.6,29.85,South,180,1.3,2.9,89,0.00,,---,0.00,VWS V14.01,2013-05-17 10:42:00,
2013-05-17 05:43:00,71.0,67.6,29.85,SE,135,2.2,2.2,89,0.00,,---,0.00,VWS V14.01,2013-05-17 10:43:00,
2013-05-17 05:44:00,71.0,67.6,29.85,SSE,158,0.0,3.6,89,0.00,,---,0.00,VWS V14.01,2013-05-17 10:44:00,
2013-05-17 05:45:00,71.0,67.6,29.85,SE,135,1.1,1.1,89,0.00,,---,0.00,VWS V14.01,2013-05-17 10:45:00,
2013-05-17 05:46:00,71.0,67.6,29.85,South,180,0.0,1.1,89,0.00,,---,0.00,VWS V14.01,2013-05-17 10:46:00,
2013-05-17 05:47:00,71.0,67.6,29.85,South,180,1.1,1.1,89,0.00,,---,0.00,VWS V14.01,2013-05-17 10:47:00,
2013-05-17 05:48:00,71.0,67.6,29.85,SE,135,0.0,2.9,89,0.00,,---,0.00,VWS V14.01,2013-05-17 10:48:00,
2013-05-17 05:49:00,71.0,67.6,29.85,ESE,112,0.9,1.3,89,0.00,,---,0.00,VWS V14.01,2013-05-17 10:49:00,
2013-05-17 05:50:00,71.0,67.6,29.85,SE,135,0.0,0.9,89,0.00,,---,0.00,VWS V14.01,2013-05-17 10:50:00,
2013-05-17 05:51:00,71.0,67.6,29.85,East,90,2.2,2.9,89,0.00,,---,0.00,VWS V14.01,2013-05-17 10:51:00,
2013-05-17 05:52:00,71.0,67.6,29.85,SSE,158,2.7,5.8,89,0.00,,---,0.00,VWS V14.01,2013-05-17 10:52:00,
2013-05-17 05:53:00,71.0,67.6,29.85,South,180,1.3,3.6,89,0.00,,---,0.00,VWS V14.01,2013-05-17 10:53:00,
2013-05-17 05:54:00,71.0,67.6,29.85,SE,135,1.3,3.8,89,0.00,,---,0.00,VWS V14.01,2013-05-17 10:54:00,
2013-05-17 05:55:00,71.0,67.6,29.85,SSW,202,2.9,4.7,89,0.00,,---,0.00,VWS V14.01,2013-05-17 10:55:00,
2013-05-17 05:56:00,71.0,67.6,29.85,SSE,158,2.0,2.9,89,0.00,,---,0.00,VWS V14.01,2013-05-17 10:56:00,
2013-05-17 05:57:00,71.0,67.6,29.85,South,180,0.0,2.0,89,0.00,,---,0.00,VWS V14.01,2013-05-17 10:57:00,
2013-05-17 05:58:00,71.0,67.6,29.85,SSW,202,0.0,2.5,89,0.00,,---,0.00,VWS V14.01,2013-05-17 10:58:00,
2013-05-17 05:59:00,71.0,67.6,29.85,SSE,158,0.0,2.9,89,0.00,,---,0.00,VWS V14.01,2013-05-17 10:59:00,
2013-05-17 06:00:00,70.8,67.4,29.85,South,180,0.0,1.3,89,0.00,,---,0.00,VWS V14.01,2013-05-17 11:00:00,
2013-05-17 06:01:00,70.8,67.4,29.85,SSE,158,3.4,3.4,89,0.00,,---,0.00,VWS V14.01,2013-05-17 11:01:00,
2013-05-17 06:02:00,70.8,67.4,29.85,South,180,1.1,3.8,89,0.00,,---,0.00,VWS V14.01,2013-05-17 11:02:00,
2013-05-17 06:03:00,70.8,67.4,29.85,SE,135,0.0,3.1,89,0.00,,---,0.00,VWS V14.01,2013-05-17 11:03:00,
2013-05-17 06:04:00,70.8,67.4,29.85,SE,135,2.0,2.5,89,0.00,,---,0.00,VWS V14.01,2013-05-17 11:04:00,
2013-05-17 06:05:00,70.8,67.4,29.85,ESE,112,1.3,2.2,89,0.00,,---,0.00,VWS V14.01,2013-05-17 11:05:00,
2013-05-17 06:06:00,70.8,67.4,29.85,East,90,0.0,1.3,89,0.00,,---,0.00,VWS V14.01,2013-05-17 11:06:00,
2013-05-17 06:07:00,70.8,67.4,29.85,SE,135,0.0,1.1,89,0.00,,---,0.00,VWS V14.01,2013-05-17 11:07:00,
2013-05-17 06:08:00,70.8,67.4,29.85,SE,135,0.0,0.0,89,0.00,,---,0.00,VWS V14.01,2013-05-17 11:08:00,
2013-05-17 06:09:00,71.0,67.6,29.85,East,90,2.7,2.7,89,0.00,,---,0.00,VWS V14.01,2013-05-17 11:09:00,
2013-05-17 06:10:00,70.8,67.4,29.85,South,180,2.2,2.7,89,0.00,,---,0.00,VWS V14.01,2013-05-17 11:10:00,
2013-05-17 06:11:00,70.8,67.4,29.85,SE,135,0.9,2.2,89,0.00,,---,0.00,VWS V14.01,2013-05-17 11:11:00,
2013-05-17 06:12:00,70.8,67.4,29.85,SE,135,2.5,2.5,89,0.00,,---,0.00,VWS V14.01,2013-05-17 11:12:00,
2013-05-17 06:13:00,70.8,67.4,29.85,West,270,0.0,2.7,89,0.00,,---,0.00,VWS V14.01,2013-05-17 11:13:00,
2013-05-17 06:14:00,70.8,67.4,29.85,SSW,202,0.9,1.1,89,0.00,,---,0.00,VWS V14.01,2013-05-17 11:14:00,
2013-05-17 06:15:00,70.8,67.4,29.85,East,90,0.0,0.9,89,0.00,,---,0.00,VWS V14.01,2013-05-17 11:15:00,
2013-05-17 06:16:00,70.8,67.4,29.85,South,180,0.0,0.0,89,0.00,,---,0.00,VWS V14.01,2013-05-17 11:16:00,
2013-05-17 06:17:00,70.8,67.4,29.85,SSW,202,2.7,2.7,89,0.00,,---,0.00,VWS V14.01,2013-05-17 11:17:00,
2013-05-17 06:18:00,70.8,67.4,29.85,SE,135,0.0,2.7,89,0.00,,---,0.00,VWS V14.01,2013-05-17 11:18:00,
2013-05-17 06:19:00,70.8,67.4,29.85,South,180,0.0,0.9,89,0.00,,---,0.00,VWS V14.01,2013-05-17 11:19:00,
2013-05-17 06:20:00,71.0,67.6,29.85,SE,135,0.0,0.0,89,0.00,,---,0.00,VWS V14.01,2013-05-17 11:20:00,
2013-05-17 06:21:00,71.0,67.6,29.85,SSW,202,0.0,0.0,89,0.00,,---,0.00,VWS V14.01,2013-05-17 11:21:00,
2013-05-17 06:22:00,71.0,67.6,29.85,ESE,112,2.2,2.2,89,0.00,,---,0.00,VWS V14.01,2013-05-17 11:22:00,
2013-05-17 06:23:00,71.0,67.6,29.85,SE,135,2.5,4.0,89,0.00,,---,0.00,VWS V14.01,2013-05-17 11:23:00,
2013-05-17 06:24:00,71.2,67.8,29.85,SSW,202,3.4,3.4,89,0.00,,---,0.00,VWS V14.01,2013-05-17 11:24:00,
2013-05-17 06:25:00,71.2,67.8,29.85,ESE,112,0.0,4.9,89,0.00,,---,0.00,VWS V14.01,2013-05-17 11:25:00,
2013-05-17 06:26:00,71.2,68.1,29.85,SE,135,5.6,5.8,90,0.00,,---,0.00,VWS V14.01,2013-05-17 11:26:00,
2013-05-17 06:27:00,71.2,68.1,29.85,South,180,4.0,5.6,90,0.00,,---,0.00,VWS V14.01,2013-05-17 11:27:00,
2013-05-17 06:28:00,71.2,67.8,29.85,ESE,112,1.6,4.9,89,0.00,,---,0.00,VWS V14.01,2013-05-17 11:28:00,
2013-05-17 06:29:00,71.2,67.8,29.85,ESE,112,3.6,5.4,89,0.00,,---,0.00,VWS V14.01,2013-05-17 11:29:00,
2013-05-17 06:30:00,71.2,67.8,29.85,ESE,112,1.6,3.8,89,0.00,,---,0.00,VWS V14.01,2013-05-17 11:30:00,
2013-05-17 06:31:00,71.3,67.9,29.85,SSW,202,1.6,7.2,89,0.00,,---,0.00,VWS V14.01,2013-05-17 11:31:00,
2013-05-17 06:32:00,71.3,67.9,29.85,South,180,1.6,2.7,89,0.00,,---,0.00,VWS V14.01,2013-05-17 11:32:00,
2013-05-17 06:33:00,71.3,67.9,29.85,ESE,112,1.3,2.7,89,0.00,,---,0.00,VWS V14.01,2013-05-17 11:33:00,
2013-05-17 06:34:00,71.3,67.6,29.85,South,180,1.6,3.4,88,0.00,,---,0.00,VWS V14.01,2013-05-17 11:34:00,
2013-05-17 06:35:00,71.3,67.6,29.85,SSW,202,3.4,3.4,88,0.00,,---,0.00,VWS V14.01,2013-05-17 11:35:00,
2013-05-17 06:36:00,71.5,67.8,29.85,SE,135,2.2,3.4,88,0.00,,---,0.00,VWS V14.01,2013-05-17 11:36:00,
2013-05-17 06:37:00,71.5,67.8,29.85,ESE,112,1.3,3.1,88,0.00,,---,0.00,VWS V14.01,2013-05-17 11:37:00,
2013-05-17 06:38:00,71.5,67.8,29.85,SE,135,1.3,1.3,88,0.00,,---,0.00,VWS V14.01,2013-05-17 11:38:00,
2013-05-17 06:39:00,71.5,67.8,29.85,ESE,112,2.9,5.6,88,0.00,,---,0.00,VWS V14.01,2013-05-17 11:39:00,
2013-05-17 06:40:00,71.5,67.8,29.85,NE,45,3.4,3.4,88,0.00,,---,0.00,VWS V14.01,2013-05-17 11:40:00,
2013-05-17 06:41:00,71.5,67.8,29.85,ENE,68,0.0,3.4,88,0.00,,---,0.00,VWS V14.01,2013-05-17 11:41:00,
2013-05-17 06:42:00,71.5,67.8,29.85,South,180,1.1,1.6,88,0.00,,---,0.00,VWS V14.01,2013-05-17 11:42:00,
2013-05-17 06:43:00,71.5,67.8,29.85,South,180,2.0,2.2,88,0.00,,---,0.00,VWS V14.01,2013-05-17 11:43:00,
2013-05-17 06:44:00,71.5,67.8,29.85,SE,135,4.3,4.3,88,0.00,,---,0.00,VWS V14.01,2013-05-17 11:44:00,
2013-05-17 06:45:00,71.5,67.4,29.85,SE,135,2.5,6.3,87,0.00,,---,0.00,VWS V14.01,2013-05-17 11:45:00,
2013-05-17 06:46:00,71.5,67.4,29.85,SSE,158,2.7,4.7,87,0.00,,---,0.00,VWS V14.01,2013-05-17 11:46:00,
2013-05-17 06:47:00,71.5,67.4,29.85,South,180,2.2,4.9,87,0.00,,---,0.00,VWS V14.01,2013-05-17 11:47:00,
2013-05-17 06:48:00,71.5,67.4,29.85,ESE,112,3.1,3.1,87,0.00,,---,0.00,VWS V14.01,2013-05-17 11:48:00,
2013-05-17 06:49:00,71.5,67.1,29.85,SSE,158,3.6,6.5,86,0.00,,---,0.00,VWS V14.01,2013-05-17 11:49:00,
2013-05-17 06:50:00,71.5,67.1,29.85,ESE,112,1.3,3.6,86,0.00,,---,0.00,VWS V14.01,2013-05-17 11:50:00,
2013-05-17 06:51:00,71.7,67.3,29.85,SE,135,1.1,3.6,86,0.00,,---,0.00,VWS V14.01,2013-05-17 11:51:00,
2013-05-17 06:52:00,71.7,67.3,29.85,East,90,3.4,5.6,86,0.00,,---,0.00,VWS V14.01,2013-05-17 11:52:00,
2013-05-17 06:53:00,71.7,67.3,29.85,East,90,3.1,3.4,86,0.00,,---,0.00,VWS V14.01,2013-05-17 11:53:00,
2013-05-17 06:54:00,71.7,67.3,29.85,East,90,1.6,3.1,86,0.00,,---,0.00,VWS V14.01,2013-05-17 11:54:00,
2013-05-17 06:55:00,71.9,67.1,29.85,ESE,112,7.2,7.2,85,0.00,,---,0.00,VWS V14.01,2013-05-17 11:55:00,
2013-05-17 06:56:00,71.9,67.1,29.85,SSW,202,2.5,7.2,85,0.00,,---,0.00,VWS V14.01,2013-05-17 11:56:00,
2013-05-17 06:57:00,71.9,67.1,29.85,WSW,248,7.6,7.6,85,0.00,,---,0.00,VWS V14.01,2013-05-17 11:57:00,
2013-05-17 06:58:00,71.9,67.1,29.85,South,180,2.5,7.6,85,0.00,,---,0.00,VWS V14.01,2013-05-17 11:58:00,
2013-05-17 06:59:00,71.9,67.1,29.85,SSW,202,2.7,3.1,85,0.00,,---,0.00,VWS V14.01,2013-05-17 11:59:00,
2013-05-17 07:00:00,72.0,67.3,29.85,SSW,202,4.9,4.9,85,0.00,,---,0.00,VWS V14.01,2013-05-17 12:00:00,
2013-05-17 07:01:00,72.0,67.3,29.85,SSW,202,2.5,4.9,85,0.00,,---,0.00,VWS V14.01,2013-05-17 12:01:00,
2013-05-17 07:02:00,72.0,66.9,29.88,South,180,1.3,9.2,84,0.00,,---,0.00,VWS V14.01,2013-05-17 12:02:00,
2013-05-17 07:03:00,72.0,67.3,29.88,East,90,2.7,3.8,85,0.00,,---,0.00,VWS V14.01,2013-05-17 12:03:00,
2013-05-17 07:04:00,72.2,67.1,29.88,ESE,112,2.9,6.5,84,0.00,,---,0.00,VWS V14.01,2013-05-17 12:04:00,
2013-05-17 07:05:00,72.2,67.5,29.88,ESE,112,2.0,2.9,85,0.00,,---,0.00,VWS V14.01,2013-05-17 12:05:00,
2013-05-17 07:06:00,72.2,67.5,29.88,SSE,158,3.6,3.6,85,0.00,,---,0.00,VWS V14.01,2013-05-17 12:06:00,
2013-05-17 07:07:00,72.2,67.5,29.88,SW,225,4.0,5.6,85,0.00,,---,0.00,VWS V14.01,2013-05-17 12:07:00,
2013-05-17 07:08:00,72.2,67.1,29.88,SSW,202,3.1,7.6,84,0.00,,---,0.00,VWS V14.01,2013-05-17 12:08:00,
2013-05-17 07:09:00,72.2,67.1,29.88,SE,135,1.3,3.1,84,0.00,,---,0.00,VWS V14.01,2013-05-17 12:09:00,
2013-05-17 07:10:00,72.4,67.3,29.88,ESE,112,2.0,5.8,84,0.00,,---,0.00,VWS V14.01,2013-05-17 12:10:00,
2013-05-17 07:11:00,72.4,67.3,29.88,SE,135,2.5,2.9,84,0.00,,---,0.00,VWS V14.01,2013-05-17 12:11:00,
2013-05-17 07:12:00,72.4,67.3,29.88,South,180,6.3,6.5,84,0.00,,---,0.00,VWS V14.01,2013-05-17 12:12:00,
2013-05-17 07:13:00,72.4,67.3,29.88,SE,135,2.5,6.3,84,0.00,,---,0.00,VWS V14.01,2013-05-17 12:13:00,
2013-05-17 07:14:00,72.6,67.1,29.88,ESE,112,0.0,4.3,83,0.00,,---,0.00,VWS V14.01,2013-05-17 12:14:00,
2013-05-17 07:15:00,72.6,67.1,29.88,SSE,158,3.6,3.6,83,0.00,,---,0.00,VWS V14.01,2013-05-17 12:15:00,
2013-05-17 07:16:00,72.6,67.1,29.88,SE,135,2.7,3.6,83,0.00,,---,0.00,VWS V14.01,2013-05-17 12:16:00,
2013-05-17 07:17:00,72.8,67.3,29.88,ESE,112,1.1,7.6,83,0.00,,---,0.00,VWS V14.01,2013-05-17 12:17:00,
2013-05-17 07:18:00,72.8,67.3,29.88,East,90,1.3,1.3,83,0.00,,---,0.00,VWS V14.01,2013-05-17 12:18:00,
2013-05-17 07:19:00,72.8,67.3,29.88,ESE,112,2.9,6.0,83,0.00,,---,0.00,VWS V14.01,2013-05-17 12:19:00,
2013-05-17 07:20:00,72.8,66.9,29.88,East,90,0.0,6.3,82,0.00,,---,0.00,VWS V14.01,2013-05-17 12:20:00,
2013-05-17 07:21:00,72.8,67.3,29.88,SSE,158,1.1,3.1,83,0.00,,---,0.00,VWS V14.01,2013-05-17 12:21:00,
2013-05-17 07:22:00,72.9,67.5,29.88,SSE,158,4.0,4.9,83,0.00,,---,0.00,VWS V14.01,2013-05-17 12:22:00,
2013-05-17 07:23:00,72.9,67.5,29.88,ESE,112,2.2,4.0,83,0.00,,---,0.00,VWS V14.01,2013-05-17 12:23:00,
2013-05-17 07:24:00,72.9,67.5,29.88,SSE,158,4.0,4.9,83,0.00,,---,0.00,VWS V14.01,2013-05-17 12:24:00,
2013-05-17 07:25:00,73.1,67.3,29.88,South,180,1.3,6.0,82,0.00,,---,0.00,VWS V14.01,2013-05-17 12:25:00,
2013-05-17 07:26:00,73.1,66.9,29.88,ESE,112,5.6,5.6,81,0.00,,---,0.00,VWS V14.01,2013-05-17 12:26:00,
2013-05-17 07:27:00,73.1,66.9,29.88,South,180,2.5,5.6,81,0.00,,---,0.00,VWS V14.01,2013-05-17 12:27:00,
2013-05-17 07:28:00,73.1,66.9,29.88,SE,135,4.3,7.4,81,0.00,,---,0.00,VWS V14.01,2013-05-17 12:28:00,
2013-05-17 07:29:00,73.1,66.9,29.88,South,180,4.7,6.5,81,0.00,,---,0.00,VWS V14.01,2013-05-17 12:29:00,
2013-05-17 07:30:00,73.1,66.9,29.88,SE,135,5.8,6.0,81,0.00,,---,0.00,VWS V14.01,2013-05-17 12:30:00,
2013-05-17 07:31:00,73.1,66.9,29.88,South,180,2.5,5.8,81,0.00,,---,0.00,VWS V14.01,2013-05-17 12:31:00,
2013-05-17 07:32:00,73.1,66.6,29.88,NE,45,4.0,4.0,80,0.00,,---,0.00,VWS V14.01,2013-05-17 12:32:00,
2013-05-17 07:33:00,72.9,66.4,29.88,South,180,5.8,5.8,80,0.00,,---,0.00,VWS V14.01,2013-05-17 12:33:00,
2013-05-17 07:34:00,72.9,66.4,29.88,NE,45,3.6,5.8,80,0.00,,---,0.00,VWS V14.01,2013-05-17 12:34:00,
2013-05-17 07:35:00,73.1,66.6,29.88,ENE,68,2.9,3.6,80,0.00,,---,0.00,VWS V14.01,2013-05-17 12:35:00,
2013-05-17 07:36:00,73.1,66.6,29.88,SSE,158,7.6,7.6,80,0.00,,---,0.00,VWS V14.01,2013-05-17 12:36:00,
2013-05-17 07:37:00,73.1,66.6,29.88,SSE,158,1.1,7.6,80,0.00,,---,0.00,VWS V14.01,2013-05-17 12:37:00,
2013-05-17 07:38:00,73.3,66.8,29.88,SE,135,4.9,4.9,80,0.00,,---,0.00,VWS V14.01,2013-05-17 12:38:00,
2013-05-17 07:39:00,73.3,66.8,29.88,South,180,6.9,6.9,80,0.00,,---,0.00,VWS V14.01,2013-05-17 12:39:00,
2013-05-17 07:40:00,73.3,66.8,29.88,SSE,158,4.0,6.9,80,0.00,,---,0.00,VWS V14.01,2013-05-17 12:40:00,
2013-05-17 07:41:00,73.3,66.8,29.88,SE,135,3.8,6.0,80,0.00,,---,0.00,VWS V14.01,2013-05-17 12:41:00,
2013-05-17 07:42:00,73.3,66.4,29.88,SE,135,2.2,5.8,79,0.00,,---,0.00,VWS V14.01,2013-05-17 12:42:00,
2013-05-17 07:43:00,73.3,66.8,29.88,East,90,2.9,3.1,80,0.00,,---,0.00,VWS V14.01,2013-05-17 12:43:00,
2013-05-17 07:44:00,73.5,66.9,29.88,SSE,158,1.1,4.7,80,0.00,,---,0.00,VWS V14.01,2013-05-17 12:44:00,
2013-05-17 07:45:00,73.6,67.1,29.88,SSW,202,7.8,7.8,80,0.00,,---,0.00,VWS V14.01,2013-05-17 12:45:00,
2013-05-17 07:46:00,73.6,67.1,29.88,South,180,3.4,7.8,80,0.00,,---,0.00,VWS V14.01,2013-05-17 12:46:00,
2013-05-17 07:47:00,73.6,67.1,29.88,ESE,112,2.9,3.4,80,0.00,,---,0.00,VWS V14.01,2013-05-17 12:47:00,
2013-05-17 07:48:00,73.8,66.9,29.88,South,180,2.7,4.9,79,0.00,,---,0.00,VWS V14.01,2013-05-17 12:48:00,
2013-05-17 07:49:00,73.8,66.9,29.88,SSE,158,2.7,7.4,79,0.00,,---,0.00,VWS V14.01,2013-05-17 12:49:00,
2013-05-17 07:50:00,74.0,67.4,29.88,SSE,158,2.0,3.1,80,0.00,,---,0.00,VWS V14.01,2013-05-17 12:50:00,
2013-05-17 07:51:00,74.2,67.6,29.88,South,180,2.5,2.5,80,0.00,,---,0.00,VWS V14.01,2013-05-17 12:51:00,
2013-05-17 07:52:00,74.2,67.6,29.88,SSW,202,1.3,4.0,80,0.00,,---,0.00,VWS V14.01,2013-05-17 12:52:00,
2013-05-17 07:53:00,74.2,67.6,29.88,ESE,112,2.9,2.9,80,0.00,,---,0.00,VWS V14.01,2013-05-17 12:53:00,
2013-05-17 07:54:00,74.2,67.6,29.88,South,180,3.4,3.4,80,0.00,,---,0.00,VWS V14.01,2013-05-17 12:54:00,
2013-05-17 07:55:00,74.5,67.6,29.88,SE,135,2.9,3.6,79,0.00,,---,0.00,VWS V14.01,2013-05-17 12:55:00,
2013-05-17 07:56:00,74.9,67.9,29.88,ESE,112,1.3,5.4,79,0.00,,---,0.00,VWS V14.01,2013-05-17 12:56:00,
2013-05-17 07:57:00,75.1,67.7,29.88,SSE,158,3.4,4.3,78,0.00,,---,0.00,VWS V14.01,2013-05-17 12:57:00,
2013-05-17 07:58:00,75.4,68.1,29.88,ENE,68,1.6,4.9,78,0.00,,---,0.00,VWS V14.01,2013-05-17 12:58:00,
2013-05-17 07:59:00,75.4,68.1,29.88,ESE,112,4.9,4.9,78,0.00,,---,0.00,VWS V14.01,2013-05-17 12:59:00,
2013-05-17 08:00:00,75.6,67.9,29.88,East,90,2.7,5.4,77,0.00,,---,0.00,VWS V14.01,2013-05-17 13:00:00,
2013-05-17 08:01:00,75.8,68.1,29.88,South,180,5.4,5.4,77,0.00,,---,0.00,VWS V14.01,2013-05-17 13:01:00,
2013-05-17 08:02:00,75.8,68.1,29.88,WSW,248,3.8,5.8,77,0.00,,---,0.00,VWS V14.01,2013-05-17 13:02:00,
2013-05-17 08:03:00,76.1,68.0,29.88,SSE,158,2.9,4.9,76,0.00,,---,0.00,VWS V14.01,2013-05-17 13:03:00,
2013-05-17 08:04:00,76.1,68.0,29.88,ESE,112,4.0,5.8,76,0.00,,---,0.00,VWS V14.01,2013-05-17 13:04:00,
2013-05-17 08:05:00,76.1,68.0,29.88,SSW,202,2.5,4.0,76,0.00,,---,0.00,VWS V14.01,2013-05-17 13:05:00,
2013-05-17 08:06:00,75.9,67.8,29.88,SSE,158,7.6,7.6,76,0.00,,---,0.00,VWS V14.01,2013-05-17 13:06:00,
2013-05-17 08:07:00,76.1,67.6,29.88,SE,135,8.7,8.7,75,0.00,,---,0.00,VWS V14.01,2013-05-17 13:07:00,
2013-05-17 08:08:00,76.3,67.8,29.88,SE,135,3.4,8.7,75,0.00,,---,0.00,VWS V14.01,2013-05-17 13:08:00,
2013-05-17 08:09:00,76.5,68.0,29.88,South,180,3.4,4.3,75,0.00,,---,0.00,VWS V14.01,2013-05-17 13:09:00,
2013-05-17 08:10:00,76.7,67.8,29.88,South,180,7.4,7.4,74,0.00,,---,0.00,VWS V14.01,2013-05-17 13:10:00,
2013-05-17 08:11:00,76.5,67.6,29.88,East,90,3.8,7.4,74,0.00,,---,0.00,VWS V14.01,2013-05-17 13:11:00,
2013-05-17 08:12:00,76.7,67.3,29.88,SE,135,8.5,8.5,73,0.00,,---,0.00,VWS V14.01,2013-05-17 13:12:00,
2013-05-17 08:13:00,76.8,67.5,29.88,SE,135,4.7,9.6,73,0.00,,---,0.00,VWS V14.01,2013-05-17 13:13:00,
2013-05-17 08:14:00,77.2,67.9,29.88,SE,135,4.0,4.7,73,0.00,,---,0.00,VWS V14.01,2013-05-17 13:14:00,
2013-05-17 08:15:00,77.2,67.9,29.88,SE,135,3.4,4.0,73,0.00,,---,0.00,VWS V14.01,2013-05-17 13:15:00,
2013-05-17 08:16:00,77.2,67.9,29.88,SE,135,2.5,6.0,73,0.00,,---,0.00,VWS V14.01,2013-05-17 13:16:00,
2013-05-17 08:17:00,77.2,67.5,29.88,WSW,248,3.1,4.9,72,0.00,,---,0.00,VWS V14.01,2013-05-17 13:17:00,
2013-05-17 08:18:00,77.7,68.0,29.88,South,180,4.0,4.0,72,0.00,,---,0.00,VWS V14.01,2013-05-17 13:18:00,
2013-05-17 08:19:00,77.9,68.2,29.88,NNE,22,1.3,4.0,72,0.00,,---,0.00,VWS V14.01,2013-05-17 13:19:00,
2013-05-17 08:20:00,77.9,68.2,29.88,SE,135,4.7,4.7,72,0.00,,---,0.00,VWS V14.01,2013-05-17 13:20:00,
2013-05-17 08:21:00,77.9,67.3,29.88,SE,135,6.0,6.5,70,0.00,,---,0.00,VWS V14.01,2013-05-17 13:21:00,
2013-05-17 08:22:00,77.7,66.7,29.88,SE,135,3.1,7.8,69,0.00,,---,0.00,VWS V14.01,2013-05-17 13:22:00,
2013-05-17 08:23:00,77.7,66.7,29.88,ESE,112,2.0,7.6,69,0.00,,---,0.00,VWS V14.01,2013-05-17 13:23:00,
2013-05-17 08:24:00,77.7,66.7,29.88,SE,135,2.0,2.9,69,0.00,,---,0.00,VWS V14.01,2013-05-17 13:24:00,
2013-05-17 08:25:00,77.2,66.7,29.88,SSW,202,2.7,4.7,70,0.00,,---,0.00,VWS V14.01,2013-05-17 13:25:00,
2013-05-17 08:26:00,77.0,66.5,29.88,SSW,202,2.7,7.6,70,0.00,,---,0.00,VWS V14.01,2013-05-17 13:26:00,
2013-05-17 08:27:00,77.0,66.5,29.88,SSE,158,4.0,7.8,70,0.00,,---,0.00,VWS V14.01,2013-05-17 13:27:00,
2013-05-17 08:28:00,77.2,66.7,29.88,South,180,2.7,4.3,70,0.00,,---,0.00,VWS V14.01,2013-05-17 13:28:00,
2013-05-17 08:29:00,77.2,66.7,29.88,ESE,112,4.3,5.4,70,0.00,,---,0.00,VWS V14.01,2013-05-17 13:29:00,
2013-05-17 08:30:00,77.2,66.2,29.88,South,180,5.6,5.8,69,0.00,,---,0.00,VWS V14.01,2013-05-17 13:30:00,
2013-05-17 08:31:00,77.4,66.4,29.88,SSW,202,4.0,5.6,69,0.00,,---,0.00,VWS V14.01,2013-05-17 13:31:00,
2013-05-17 08:32:00,77.2,66.7,29.88,SW,225,1.1,4.0,70,0.00,,---,0.00,VWS V14.01,2013-05-17 13:32:00,
2013-05-17 08:33:00,77.5,66.6,29.88,South,180,3.4,5.6,69,0.00,,---,0.00,VWS V14.01,2013-05-17 13:33:00,
2013-05-17 08:34:00,77.7,66.7,29.88,SSW,202,2.7,6.3,69,0.00,,---,0.00,VWS V14.01,2013-05-17 13:34:00,
2013-05-17 08:35:00,77.9,66.9,29.88,ENE,68,4.3,5.8,69,0.00,,---,0.00,VWS V14.01,2013-05-17 13:35:00,
2013-05-17 08:36:00,78.2,67.2,29.88,SSW,202,1.3,4.3,69,0.00,,---,0.00,VWS V14.01,2013-05-17 13:36:00,
2013-05-17 08:37:00,78.6,68.0,29.88,South,180,1.1,3.1,70,0.00,,---,0.00,VWS V14.01,2013-05-17 13:37:00,
2013-05-17 08:38:00,78.9,67.9,29.88,SSE,158,4.0,6.7,69,0.00,,---,0.00,VWS V14.01,2013-05-17 13:38:00,
2013-05-17 08:39:00,78.9,67.5,29.88,ESE,112,4.0,4.0,68,0.00,,---,0.00,VWS V14.01,2013-05-17 13:39:00,
2013-05-17 08:40:00,79.1,68.1,29.88,SE,135,2.5,4.0,69,0.00,,---,0.00,VWS V14.01,2013-05-17 13:40:00,
2013-05-17 08:41:00,79.7,68.2,29.88,SSE,158,5.6,5.6,68,0.00,,---,0.00,VWS V14.01,2013-05-17 13:41:00,
2013-05-17 08:42:00,79.7,67.3,29.88,SE,135,10.5,10.5,66,0.00,,---,0.00,VWS V14.01,2013-05-17 13:42:00,
2013-05-17 08:43:00,79.8,67.9,29.88,SSE,158,4.7,10.5,67,0.00,,---,0.00,VWS V14.01,2013-05-17 13:43:00,
2013-05-17 08:44:00,79.7,66.9,29.88,South,180,3.6,8.7,65,0.00,,---,0.00,VWS V14.01,2013-05-17 13:44:00,
2013-05-17 08:45:00,80.0,67.7,29.88,SE,135,3.4,4.9,66,0.00,,---,0.00,VWS V14.01,2013-05-17 13:45:00,
2013-05-17 08:46:00,80.2,67.8,29.88,ESE,112,4.5,4.5,66,0.00,,---,0.00,VWS V14.01,2013-05-17 13:46:00,
2013-05-17 08:47:00,80.4,68.0,29.88,ESE,112,3.8,4.5,66,0.00,,---,0.00,VWS V14.01,2013-05-17 13:47:00,
2013-05-17 08:48:00,80.6,68.2,29.88,ESE,112,3.4,3.8,66,0.00,,---,0.00,VWS V14.01,2013-05-17 13:48:00,
2013-05-17 08:49:00,80.7,67.9,29.88,SSE,158,2.9,3.6,65,0.00,,---,0.00,VWS V14.01,2013-05-17 13:49:00,
2013-05-17 08:50:00,80.7,68.3,29.88,SSW,202,1.3,2.9,66,0.00,,---,0.00,VWS V14.01,2013-05-17 13:50:00,
2013-05-17 08:51:00,81.1,68.7,29.88,SSW,202,2.2,2.2,66,0.00,,---,0.00,VWS V14.01,2013-05-17 13:51:00,
2013-05-17 08:52:00,81.3,68.8,29.88,ENE,68,3.6,6.3,66,0.00,,---,0.00,VWS V14.01,2013-05-17 13:52:00,
2013-05-17 08:53:00,81.3,68.4,29.88,South,180,3.8,4.0,65,0.00,,---,0.00,VWS V14.01,2013-05-17 13:53:00,
2013-05-17 08:54:00,81.4,68.1,29.88,ESE,112,3.6,3.8,64,0.00,,---,0.00,VWS V14.01,2013-05-17 13:54:00,
2013-05-17 08:55:00,81.3,67.9,29.88,East,90,3.8,7.2,64,0.00,,---,0.00,VWS V14.01,2013-05-17 13:55:00,
2013-05-17 08:56:00,81.1,67.3,29.88,SW,225,3.1,8.7,63,0.00,,---,0.00,VWS V14.01,2013-05-17 13:56:00,
2013-05-17 08:57:00,81.1,67.3,29.88,SSW,202,2.2,3.6,63,0.00,,---,0.00,VWS V14.01,2013-05-17 13:57:00,
2013-05-17 08:58:00,81.1,67.3,29.88,SE,135,3.6,6.0,63,0.00,,---,0.00,VWS V14.01,2013-05-17 13:58:00,
2013-05-17 08:59:00,80.9,67.1,29.88,WSW,248,1.1,5.4,63,0.00,,---,0.00,VWS V14.01,2013-05-17 13:59:00,
2013-05-17 09:00:00,80.9,67.1,29.88,ESE,112,2.5,2.9,63,0.00,,---,0.00,VWS V14.01,2013-05-17 14:00:00,
2013-05-17 09:01:00,80.9,67.1,29.88,South,180,5.6,5.6,63,0.00,,---,0.00,VWS V14.01,2013-05-17 14:01:00,
2013-05-17 09:02:00,81.1,67.3,29.88,NNW,338,2.7,5.6,63,0.00,,---,0.00,VWS V14.01,2013-05-17 14:02:00,
2013-05-17 09:03:00,80.9,66.7,29.88,South,180,8.7,8.7,62,0.00,,---,0.00,VWS V14.01,2013-05-17 14:03:00,
2013-05-17 09:04:00,80.9,67.1,29.88,SE,135,2.2,8.7,63,0.00,,---,0.00,VWS V14.01,2013-05-17 14:04:00,
2013-05-17 09:05:00,81.1,67.3,29.88,WSW,248,1.1,2.2,63,0.00,,---,0.00,VWS V14.01,2013-05-17 14:05:00,
2013-05-17 09:06:00,80.9,66.7,29.88,South,180,3.4,7.6,62,0.00,,---,0.00,VWS V14.01,2013-05-17 14:06:00,
2013-05-17 09:07:00,80.9,66.7,29.88,South,180,4.7,8.1,62,0.00,,---,0.00,VWS V14.01,2013-05-17 14:07:00,
2013-05-17 09:08:00,80.9,66.7,29.88,ESE,112,3.8,4.7,62,0.00,,---,0.00,VWS V14.01,2013-05-17 14:08:00,
2013-05-17 09:09:00,80.9,67.1,29.88,South,180,5.6,5.6,63,0.00,,---,0.00,VWS V14.01,2013-05-17 14:09:00,
2013-05-17 09:10:00,81.1,67.3,29.88,South,180,5.6,5.6,63,0.00,,---,0.00,VWS V14.01,2013-05-17 14:10:00,
2013-05-17 09:11:00,81.3,67.5,29.88,South,180,4.0,6.0,63,0.00,,---,0.00,VWS V14.01,2013-05-17 14:11:00,
2013-05-17 09:12:00,81.4,67.2,29.88,South,180,1.1,7.8,62,0.00,,---,0.00,VWS V14.01,2013-05-17 14:12:00,
2013-05-17 09:13:00,81.4,67.2,29.88,SSE,158,3.6,3.6,62,0.00,,---,0.00,VWS V14.01,2013-05-17 14:13:00,
2013-05-17 09:14:00,81.4,67.2,29.88,SE,135,4.7,6.9,62,0.00,,---,0.00,VWS V14.01,2013-05-17 14:14:00,
2013-05-17 09:15:00,81.6,67.8,29.88,SSW,202,1.1,4.7,63,0.00,,---,0.00,VWS V14.01,2013-05-17 14:15:00,
2013-05-17 09:16:00,81.8,68.0,29.88,SE,135,4.9,6.0,63,0.00,,---,0.00,VWS V14.01,2013-05-17 14:16:00,
2013-05-17 09:17:00,81.8,67.5,29.88,ESE,112,2.9,5.4,62,0.00,,---,0.00,VWS V14.01,2013-05-17 14:17:00,
2013-05-17 09:18:00,82.0,67.7,29.88,ESE,112,1.3,6.5,62,0.00,,---,0.00,VWS V14.01,2013-05-17 14:18:00,
2013-05-17 09:19:00,82.0,67.7,29.88,SE,135,4.9,6.0,62,0.00,,---,0.00,VWS V14.01,2013-05-17 14:19:00,
2013-05-17 09:20:00,82.0,67.2,29.88,SSE,158,4.9,4.9,61,0.00,,---,0.00,VWS V14.01,2013-05-17 14:20:00,
2013-05-17 09:21:00,82.2,67.4,29.88,ENE,68,2.9,4.9,61,0.00,,---,0.00,VWS V14.01,2013-05-17 14:21:00,
2013-05-17 09:22:00,82.5,68.2,29.88,ESE,112,1.6,2.9,62,0.00,,---,0.00,VWS V14.01,2013-05-17 14:22:00,
2013-05-17 09:23:00,82.5,67.7,29.88,SSE,158,2.9,8.5,61,0.00,,---,0.00,VWS V14.01,2013-05-17 14:23:00,
2013-05-17 09:24:00,82.7,68.3,29.88,SE,135,6.5,6.5,62,0.00,,---,0.00,VWS V14.01,2013-05-17 14:24:00,
2013-05-17 09:25:00,82.5,67.2,29.88,East,90,3.6,6.5,60,0.00,,---,0.00,VWS V14.01,2013-05-17 14:25:00,
2013-05-17 09:26:00,82.5,67.7,29.88,ESE,112,1.1,7.6,61,0.00,,---,0.00,VWS V14.01,2013-05-17 14:26:00,
2013-05-17 09:27:00,82.5,67.2,29.88,SSW,202,7.2,7.2,60,0.00,,---,0.00,VWS V14.01,2013-05-17 14:27:00,
2013-05-17 09:28:00,82.3,67.1,29.88,East,90,8.1,8.1,60,0.00,,---,0.00,VWS V14.01,2013-05-17 14:28:00,
2013-05-17 09:29:00,82.5,67.2,29.88,East,90,3.1,8.1,60,0.00,,---,0.00,VWS V14.01,2013-05-17 14:29:00,
2013-05-17 09:30:00,82.7,67.4,29.88,SE,135,3.1,5.4,60,0.00,,---,0.00,VWS V14.01,2013-05-17 14:30:00,
2013-05-17 09:31:00,82.7,67.4,29.88,SW,225,2.7,3.8,60,0.00,,---,0.00,VWS V14.01,2013-05-17 14:31:00,
2013-05-17 09:32:00,82.7,67.4,29.88,South,180,2.9,6.3,60,0.00,,---,0.00,VWS V14.01,2013-05-17 14:32:00,
2013-05-17 09:33:00,82.7,67.9,29.88,SE,135,1.3,3.6,61,0.00,,---,0.00,VWS V14.01,2013-05-17 14:33:00,
2013-05-17 09:34:00,82.9,67.6,29.88,SE,135,5.4,8.5,60,0.00,,---,0.00,VWS V14.01,2013-05-17 14:34:00,
2013-05-17 09:35:00,82.9,67.6,29.88,SE,135,2.9,5.4,60,0.00,,---,0.00,VWS V14.01,2013-05-17 14:35:00,
2013-05-17 09:36:00,83.0,67.7,29.88,ESE,112,2.9,5.6,60,0.00,,---,0.00,VWS V14.01,2013-05-17 14:36:00,
2013-05-17 09:37:00,83.0,67.7,29.88,South,180,2.9,6.0,60,0.00,,---,0.00,VWS V14.01,2013-05-17 14:37:00,
2013-05-17 09:38:00,83.0,67.7,29.88,SE,135,3.8,4.3,60,0.00,,---,0.00,VWS V14.01,2013-05-17 14:38:00,
2013-05-17 09:39:00,83.0,67.7,29.88,SSE,158,2.5,3.8,60,0.00,,---,0.00,VWS V14.01,2013-05-17 14:39:00,
2013-05-17 09:40:00,83.2,67.4,29.88,SE,135,3.4,3.4,59,0.00,,---,0.00,VWS V14.01,2013-05-17 14:40:00,
2013-05-17 09:41:00,83.6,67.7,29.88,ESE,112,2.5,4.0,59,0.00,,---,0.00,VWS V14.01,2013-05-17 14:41:00,
2013-05-17 09:42:00,83.6,67.7,29.88,East,90,2.9,7.4,59,0.00,,---,0.00,VWS V14.01,2013-05-17 14:42:00,
2013-05-17 09:43:00,83.7,67.9,29.88,NE,45,1.6,6.0,59,0.00,,---,0.00,VWS V14.01,2013-05-17 14:43:00,
2013-05-17 09:44:00,83.9,68.6,29.88,South,180,3.8,3.8,60,0.00,,---,0.00,VWS V14.01,2013-05-17 14:44:00,
2013-05-17 09:45:00,83.6,67.2,29.88,ESE,112,8.1,8.1,58,0.00,,---,0.00,VWS V14.01,2013-05-17 14:45:00,
2013-05-17 09:46:00,83.4,67.1,29.85,SE,135,1.3,8.1,58,0.00,,---,0.00,VWS V14.01,2013-05-17 14:46:00,
2013-05-17 09:47:00,83.4,67.1,29.85,SE,135,4.0,4.9,58,0.00,,---,0.00,VWS V14.01,2013-05-17 14:47:00,
2013-05-17 09:48:00,83.6,67.7,29.85,ENE,68,1.3,4.7,59,0.00,,---,0.00,VWS V14.01,2013-05-17 14:48:00,
2013-05-17 09:49:00,83.9,68.1,29.85,West,270,1.6,3.8,59,0.00,,---,0.00,VWS V14.01,2013-05-17 14:49:00,
2013-05-17 09:50:00,84.3,68.9,29.85,SSW,202,2.7,2.7,60,0.00,,---,0.00,VWS V14.01,2013-05-17 14:50:00,
2013-05-17 09:51:00,84.3,68.4,29.85,SE,135,2.7,4.3,59,0.00,,---,0.00,VWS V14.01,2013-05-17 14:51:00,
2013-05-17 09:52:00,84.3,67.9,29.85,SE,135,3.4,4.0,58,0.00,,---,0.00,VWS V14.01,2013-05-17 14:52:00,
2013-05-17 09:53:00,84.4,68.1,29.85,SSE,158,2.9,3.4,58,0.00,,---,0.00,VWS V14.01,2013-05-17 14:53:00,
2013-05-17 09:54:00,84.4,68.1,29.85,ESE,112,4.0,5.4,58,0.00,,---,0.00,VWS V14.01,2013-05-17 14:54:00,
2013-05-17 09:55:00,84.6,67.7,29.85,WSW,248,6.9,6.9,57,0.00,,---,0.00,VWS V14.01,2013-05-17 14:55:00,
2013-05-17 09:56:00,84.8,68.4,29.85,SSW,202,4.9,6.9,58,0.00,,---,0.00,VWS V14.01,2013-05-17 14:56:00,
2013-05-17 09:57:00,85.0,68.1,29.85,South,180,2.0,4.9,57,0.00,,---,0.00,VWS V14.01,2013-05-17 14:57:00,
2013-05-17 09:58:00,85.0,67.6,29.85,SE,135,5.6,6.0,56,0.00,,---,0.00,VWS V14.01,2013-05-17 14:58:00,
2013-05-17 09:59:00,85.2,67.7,29.85,South,180,2.7,5.6,56,0.00,,---,0.00,VWS V14.01,2013-05-17 14:59:00,
2013-05-17 10:00:00,85.2,68.2,29.85,SSE,158,4.7,4.7,57,0.00,,---,0.00,VWS V14.01,2013-05-17 15:00:00,
2013-05-17 10:01:00,85.2,67.7,29.88,East,90,6.3,6.3,56,0.00,,---,0.00,VWS V14.01,2013-05-17 15:01:00,
2013-05-17 10:02:00,85.0,67.0,29.88,SW,225,4.0,6.3,55,0.00,,---,0.00,VWS V14.01,2013-05-17 15:02:00,
2013-05-17 10:03:00,85.0,67.0,29.88,SSE,158,1.1,4.0,55,0.00,,---,0.00,VWS V14.01,2013-05-17 15:03:00,
2013-05-17 10:04:00,85.0,67.6,29.88,South,180,4.3,4.3,56,0.00,,---,0.00,VWS V14.01,2013-05-17 15:04:00,
2013-05-17 10:05:00,85.2,67.7,29.88,South,180,2.5,4.5,56,0.00,,---,0.00,VWS V14.01,2013-05-17 15:05:00,
2013-05-17 10:06:00,85.2,67.7,29.88,ESE,112,2.0,6.3,56,0.00,,---,0.00,VWS V14.01,2013-05-17 15:06:00,
2013-05-17 10:07:00,85.5,68.6,29.88,East,90,1.6,2.9,57,0.00,,---,0.00,VWS V14.01,2013-05-17 15:07:00,
2013-05-17 10:08:00,85.7,68.2,29.88,South,180,5.8,6.3,56,0.00,,---,0.00,VWS V14.01,2013-05-17 15:08:00,
2013-05-17 10:09:00,85.7,68.2,29.88,South,180,4.3,5.8,56,0.00,,---,0.00,VWS V14.01,2013-05-17 15:09:00,
2013-05-17 10:10:00,85.5,67.5,29.88,ESE,112,6.5,6.5,55,0.00,,---,0.00,VWS V14.01,2013-05-17 15:10:00,
2013-05-17 10:11:00,85.3,67.9,29.88,SSW,202,3.1,6.5,56,0.00,,---,0.00,VWS V14.01,2013-05-17 15:11:00,
2013-05-17 10:12:00,85.3,67.9,29.88,ESE,112,0.0,3.1,56,0.00,,---,0.00,VWS V14.01,2013-05-17 15:12:00,
2013-05-17 10:13:00,85.3,67.9,29.88,SE,135,2.7,2.7,56,0.00,,---,0.00,VWS V14.01,2013-05-17 15:13:00,
2013-05-17 10:14:00,85.9,67.8,29.88,South,180,3.8,7.2,55,0.00,,---,0.00,VWS V14.01,2013-05-17 15:14:00,
2013-05-17 10:15:00,85.9,67.8,29.88,SSW,202,3.6,5.8,55,0.00,,---,0.00,VWS V14.01,2013-05-17 15:15:00,
2013-05-17 10:16:00,85.9,67.8,29.88,SE,135,5.6,5.6,55,0.00,,---,0.00,VWS V14.01,2013-05-17 15:16:00,
2013-05-17 10:17:00,85.9,67.8,29.88,SE,135,6.9,6.9,55,0.00,,---,0.00,VWS V14.01,2013-05-17 15:17:00,
2013-05-17 10:18:00,85.9,67.3,29.88,SSW,202,2.5,6.9,54,0.00,,---,0.00,VWS V14.01,2013-05-17 15:18:00,
2013-05-17 10:19:00,86.2,67.6,29.88,South,180,3.1,4.5,54,0.00,,---,0.00,VWS V14.01,2013-05-17 15:19:00,
2013-05-17 10:20:00,86.2,67.6,29.88,East,90,2.9,5.6,54,0.00,,---,0.00,VWS V14.01,2013-05-17 15:20:00,
2013-05-17 10:21:00,86.2,68.2,29.88,South,180,3.6,4.9,55,0.00,,---,0.00,VWS V14.01,2013-05-17 15:21:00,
2013-05-17 10:22:00,86.4,67.8,29.88,East,90,2.7,5.4,54,0.00,,---,0.00,VWS V14.01,2013-05-17 15:22:00,
2013-05-17 10:23:00,86.4,68.3,29.88,SSW,202,4.7,5.6,55,0.00,,---,0.00,VWS V14.01,2013-05-17 15:23:00,
2013-05-17 10:24:00,86.4,67.8,29.88,East,90,2.0,6.3,54,0.00,,---,0.00,VWS V14.01,2013-05-17 15:24:00,
2013-05-17 10:25:00,86.4,67.8,29.88,SSE,158,4.7,6.3,54,0.00,,---,0.00,VWS V14.01,2013-05-17 15:25:00,
2013-05-17 10:26:00,86.2,67.1,29.88,South,180,6.5,7.6,53,0.00,,---,0.00,VWS V14.01,2013-05-17 15:26:00,
2013-05-17 10:27:00,85.9,67.3,29.88,South,180,6.3,6.5,54,0.00,,---,0.00,VWS V14.01,2013-05-17 15:27:00,
2013-05-17 10:28:00,86.2,68.2,29.88,South,180,2.0,6.3,55,0.00,,---,0.00,VWS V14.01,2013-05-17 15:28:00,
2013-05-17 10:29:00,86.2,67.6,29.88,ESE,112,1.1,6.3,54,0.00,,---,0.00,VWS V14.01,2013-05-17 15:29:00,
2013-05-17 10:30:00,86.4,67.8,29.88,South,180,6.5,6.5,54,0.00,,---,0.00,VWS V14.01,2013-05-17 15:30:00,
2013-05-17 10:31:00,86.2,67.6,29.88,SSE,158,2.5,6.5,54,0.00,,---,0.00,VWS V14.01,2013-05-17 15:31:00,
2013-05-17 10:32:00,86.6,68.0,29.88,WSW,248,3.4,4.9,54,0.00,,---,0.00,VWS V14.01,2013-05-17 15:32:00,
2013-05-17 10:33:00,86.8,68.1,29.88,ESE,112,6.0,6.0,54,0.00,,---,0.00,VWS V14.01,2013-05-17 15:33:00,
2013-05-17 10:34:00,87.1,68.5,29.88,East,90,0.9,8.5,54,0.00,,---,0.00,VWS V14.01,2013-05-17 15:34:00,
2013-05-17 10:35:00,87.1,68.5,29.88,SE,135,3.6,3.6,54,0.00,,---,0.00,VWS V14.01,2013-05-17 15:35:00,
2013-05-17 10:36:00,87.1,67.9,29.88,SSE,158,2.9,3.6,53,0.00,,---,0.00,VWS V14.01,2013-05-17 15:36:00,
2013-05-17 10:37:00,86.9,67.8,29.88,South,180,3.1,5.6,53,0.00,,---,0.00,VWS V14.01,2013-05-17 15:37:00,
2013-05-17 10:38:00,86.9,67.8,29.88,South,180,2.7,6.0,53,0.00,,---,0.00,VWS V14.01,2013-05-17 15:38:00,
2013-05-17 10:39:00,87.1,67.9,29.88,East,90,2.9,6.3,53,0.00,,---,0.00,VWS V14.01,2013-05-17 15:39:00,
2013-05-17 10:40:00,87.1,67.9,29.88,SE,135,5.6,7.4,53,0.00,,---,0.00,VWS V14.01,2013-05-17 15:40:00,
2013-05-17 10:41:00,87.3,68.1,29.88,SE,135,2.7,5.8,53,0.00,,---,0.00,VWS V14.01,2013-05-17 15:41:00,
2013-05-17 10:42:00,87.5,68.2,29.88,SE,135,2.9,6.3,53,0.00,,---,0.00,VWS V14.01,2013-05-17 15:42:00,
2013-05-17 10:43:00,87.6,68.4,29.88,SW,225,3.1,3.8,53,0.00,,---,0.00,VWS V14.01,2013-05-17 15:43:00,
2013-05-17 10:44:00,87.5,67.7,29.88,East,90,3.8,7.4,52,0.00,,---,0.00,VWS V14.01,2013-05-17 15:44:00,
2013-05-17 10:45:00,87.5,67.7,29.88,ESE,112,3.4,6.0,52,0.00,,---,0.00,VWS V14.01,2013-05-17 15:45:00,
2013-05-17 10:46:00,87.5,67.7,29.88,South,180,3.4,7.2,52,0.00,,---,0.00,VWS V14.01,2013-05-17 15:46:00,
2013-05-17 10:47:00,87.5,67.7,29.88,East,90,2.7,3.6,52,0.00,,---,0.00,VWS V14.01,2013-05-17 15:47:00,
2013-05-17 10:48:00,88.0,68.7,29.88,East,90,2.0,4.0,53,0.00,,---,0.00,VWS V14.01,2013-05-17 15:48:00,
2013-05-17 10:49:00,88.0,67.6,29.88,SE,135,5.4,5.4,51,0.00,,---,0.00,VWS V14.01,2013-05-17 15:49:00,
2013-05-17 10:50:00,88.0,67.6,29.88,SE,135,2.9,5.8,51,0.00,,---,0.00,VWS V14.01,2013-05-17 15:50:00,
2013-05-17 10:51:00,87.8,67.4,29.88,ESE,112,4.0,6.0,51,0.00,,---,0.00,VWS V14.01,2013-05-17 15:51:00,
2013-05-17 10:52:00,88.0,67.6,29.88,NE,45,1.6,6.3,51,0.00,,---,0.00,VWS V14.01,2013-05-17 15:52:00,
2013-05-17 10:53:00,88.0,67.6,29.88,ESE,112,6.0,6.0,51,0.00,,---,0.00,VWS V14.01,2013-05-17 15:53:00,
2013-05-17 10:54:00,87.8,67.4,29.88,SE,135,5.8,7.2,51,0.00,,---,0.00,VWS V14.01,2013-05-17 15:54:00,
2013-05-17 10:55:00,87.8,67.4,29.88,South,180,2.9,5.8,51,0.00,,---,0.00,VWS V14.01,2013-05-17 15:55:00,
2013-05-17 10:56:00,87.8,68.0,29.88,South,180,4.9,4.9,52,0.00,,---,0.00,VWS V14.01,2013-05-17 15:56:00,
2013-05-17 10:57:00,88.0,67.6,29.88,WSW,248,3.8,4.9,51,0.00,,---,0.00,VWS V14.01,2013-05-17 15:57:00,
2013-05-17 10:58:00,88.0,68.2,29.88,East,90,2.0,4.9,52,0.00,,---,0.00,VWS V14.01,2013-05-17 15:58:00,
2013-05-17 10:59:00,88.2,68.3,29.88,East,90,2.9,2.9,52,0.00,,---,0.00,VWS V14.01,2013-05-17 15:59:00,
2013-05-17 11:00:00,88.2,67.8,29.88,SSE,158,10.1,10.1,51,0.00,,---,0.00,VWS V14.01,2013-05-17 16:00:00,
2013-05-17 11:01:00,88.2,67.2,29.88,SE,135,6.5,10.1,50,0.00,,---,0.00,VWS V14.01,2013-05-17 16:01:00,
2013-05-17 11:02:00,88.2,67.2,29.88,South,180,4.9,6.5,50,0.00,,---,0.00,VWS V14.01,2013-05-17 16:02:00,
2013-05-17 11:03:00,88.3,67.9,29.88,East,90,3.6,4.9,51,0.00,,---,0.00,VWS V14.01,2013-05-17 16:03:00,
2013-05-17 11:04:00,88.5,67.5,29.88,East,90,9.6,9.6,50,0.00,,---,0.00,VWS V14.01,2013-05-17 16:04:00,
2013-05-17 11:05:00,88.3,67.9,29.88,SSE,158,2.7,9.6,51,0.00,,---,0.00,VWS V14.01,2013-05-17 16:05:00,
2013-05-17 11:06:00,88.3,67.4,29.88,South,180,2.9,3.1,50,0.00,,---,0.00,VWS V14.01,2013-05-17 16:06:00,
2013-05-17 11:07:00,88.5,67.5,29.88,SE,135,1.6,4.0,50,0.00,,---,0.00,VWS V14.01,2013-05-17 16:07:00,
2013-05-17 11:08:00,88.3,67.4,29.88,SE,135,5.6,10.1,50,0.00,,---,0.00,VWS V14.01,2013-05-17 16:08:00,
2013-05-17 11:09:00,88.5,67.5,29.88,ESE,112,4.5,5.6,50,0.00,,---,0.00,VWS V14.01,2013-05-17 16:09:00,
2013-05-17 11:10:00,88.7,67.7,29.88,East,90,3.8,4.5,50,0.00,,---,0.00,VWS V14.01,2013-05-17 16:10:00,
2013-05-17 11:11:00,88.9,67.9,29.88,NE,45,3.6,3.8,50,0.00,,---,0.00,VWS V14.01,2013-05-17 16:11:00,
2013-05-17 11:12:00,88.9,67.9,29.88,ENE,68,2.0,5.6,50,0.00,,---,0.00,VWS V14.01,2013-05-17 16:12:00,
2013-05-17 11:13:00,88.9,67.9,29.88,ESE,112,3.6,5.8,50,0.00,,---,0.00,VWS V14.01,2013-05-17 16:13:00,
2013-05-17 11:14:00,88.7,67.7,29.88,ESE,112,3.1,11.0,50,0.00,,---,0.00,VWS V14.01,2013-05-17 16:14:00,
2013-05-17 11:15:00,88.3,66.8,29.88,ESE,112,7.4,8.5,49,0.00,,---,0.00,VWS V14.01,2013-05-17 16:15:00,
2013-05-17 11:16:00,88.3,66.8,29.88,East,90,5.6,7.6,49,0.00,,---,0.00,VWS V14.01,2013-05-17 16:16:00,
2013-05-17 11:17:00,88.3,66.8,29.88,East,90,3.6,5.6,49,0.00,,---,0.00,VWS V14.01,2013-05-17 16:17:00,
2013-05-17 11:18:00,88.7,67.7,29.88,SW,225,1.6,4.0,50,0.00,,---,0.00,VWS V14.01,2013-05-17 16:18:00,
2013-05-17 11:19:00,89.1,68.6,29.88,South,180,3.6,6.3,51,0.00,,---,0.00,VWS V14.01,2013-05-17 16:19:00,
2013-05-17 11:20:00,89.1,68.0,29.88,ESE,112,4.0,4.0,50,0.00,,---,0.00,VWS V14.01,2013-05-17 16:20:00,
2013-05-17 11:21:00,89.2,68.2,29.88,SW,225,1.6,4.0,50,0.00,,---,0.00,VWS V14.01,2013-05-17 16:21:00,
2013-05-17 11:22:00,89.4,68.3,29.88,North,0,3.4,4.0,50,0.00,,---,0.00,VWS V14.01,2013-05-17 16:22:00,
2013-05-17 11:23:00,89.4,67.8,29.88,South,180,5.8,5.8,49,0.00,,---,0.00,VWS V14.01,2013-05-17 16:23:00,
2013-05-17 11:24:00,89.4,67.8,29.88,South,180,3.1,5.8,49,0.00,,---,0.00,VWS V14.01,2013-05-17 16:24:00,
2013-05-17 11:25:00,89.1,67.4,29.88,SE,135,2.5,7.4,49,0.00,,---,0.00,VWS V14.01,2013-05-17 16:25:00,
2013-05-17 11:26:00,89.2,67.6,29.88,SE,135,2.0,2.5,49,0.00,,---,0.00,VWS V14.01,2013-05-17 16:26:00,
2013-05-17 11:27:00,89.4,68.3,29.88,West,270,4.9,4.9,50,0.00,,---,0.00,VWS V14.01,2013-05-17 16:27:00,
2013-05-17 11:28:00,89.8,68.1,29.88,ESE,112,2.7,4.9,49,0.00,,---,0.00,VWS V14.01,2013-05-17 16:28:00,
2013-05-17 11:29:00,89.8,68.1,29.88,SSE,158,3.6,6.0,49,0.00,,---,0.00,VWS V14.01,2013-05-17 16:29:00,
2013-05-17 11:30:00,90.1,69.0,29.88,WSW,248,0.9,3.6,50,0.00,,---,0.00,VWS V14.01,2013-05-17 16:30:00,
2013-05-17 11:31:00,90.3,68.6,29.88,SE,135,2.5,3.4,49,0.00,,---,0.00,VWS V14.01,2013-05-17 16:31:00,
2013-05-17 11:32:00,90.3,68.0,29.88,ESE,112,10.7,10.7,48,0.00,,---,0.00,VWS V14.01,2013-05-17 16:32:00,
2013-05-17 11:33:00,89.9,67.6,29.88,South,180,3.1,10.7,48,0.00,,---,0.00,VWS V14.01,2013-05-17 16:33:00,
2013-05-17 11:34:00,90.1,67.8,29.88,SSE,158,6.0,7.8,48,0.00,,---,0.00,VWS V14.01,2013-05-17 16:34:00,
2013-05-17 11:35:00,89.9,68.2,29.88,SE,135,2.2,6.0,49,0.00,,---,0.00,VWS V14.01,2013-05-17 16:35:00,
2013-05-17 11:36:00,90.1,68.4,29.88,South,180,2.2,2.5,49,0.00,,---,0.00,VWS V14.01,2013-05-17 16:36:00,
2013-05-17 11:37:00,90.1,68.4,29.88,ESE,112,2.0,2.2,49,0.00,,---,0.00,VWS V14.01,2013-05-17 16:37:00,
2013-05-17 11:38:00,90.3,68.0,29.88,ESE,112,3.4,3.4,48,0.00,,---,0.00,VWS V14.01,2013-05-17 16:38:00,
2013-05-17 11:39:00,90.1,67.8,29.88,SE,135,3.8,6.0,48,0.00,,---,0.00,VWS V14.01,2013-05-17 16:39:00,
2013-05-17 11:40:00,90.5,68.1,29.88,SE,135,4.7,4.7,48,0.00,,---,0.00,VWS V14.01,2013-05-17 16:40:00,
2013-05-17 11:41:00,90.5,67.5,29.88,SE,135,4.0,5.4,47,0.00,,---,0.00,VWS V14.01,2013-05-17 16:41:00,
2013-05-17 11:42:00,90.5,66.9,29.88,SSE,158,4.9,4.9,46,0.00,,---,0.00,VWS V14.01,2013-05-17 16:42:00,
2013-05-17 11:43:00,90.5,66.9,29.88,SSW,202,7.6,7.6,46,0.00,,---,0.00,VWS V14.01,2013-05-17 16:43:00,
2013-05-17 11:44:00,89.9,67.0,29.88,ESE,112,4.9,7.6,47,0.00,,---,0.00,VWS V14.01,2013-05-17 16:44:00,
2013-05-17 11:45:00,90.1,67.2,29.88,SW,225,6.5,6.5,47,0.00,,---,0.00,VWS V14.01,2013-05-17 16:45:00,
2013-05-17 11:46:00,89.9,67.0,29.88,ESE,112,6.0,10.1,47,0.00,,---,0.00,VWS V14.01,2013-05-17 16:46:00,
2013-05-17 11:47:00,89.9,67.0,29.88,SE,135,3.8,7.8,47,0.00,,---,0.00,VWS V14.01,2013-05-17 16:47:00,
2013-05-17 11:48:00,90.3,67.4,29.88,ESE,112,3.4,4.7,47,0.00,,---,0.00,VWS V14.01,2013-05-17 16:48:00,
2013-05-17 11:49:00,90.5,67.5,29.88,SE,135,3.4,4.9,47,0.00,,---,0.00,VWS V14.01,2013-05-17 16:49:00,
2013-05-17 11:50:00,90.8,67.2,29.88,SE,135,3.8,3.8,46,0.00,,---,0.00,VWS V14.01,2013-05-17 16:50:00,
2013-05-17 11:51:00,90.8,67.2,29.88,North,0,5.4,9.0,46,0.00,,---,0.00,VWS V14.01,2013-05-17 16:51:00,
2013-05-17 11:52:00,91.2,68.2,29.88,NE,45,2.2,5.6,47,0.00,,---,0.00,VWS V14.01,2013-05-17 16:52:00,
2013-05-17 11:53:00,91.2,68.2,29.88,SE,135,2.2,2.2,47,0.00,,---,0.00,VWS V14.01,2013-05-17 16:53:00,
2013-05-17 11:54:00,91.5,67.9,29.88,SE,135,3.1,4.9,46,0.00,,---,0.00,VWS V14.01,2013-05-17 16:54:00,
2013-05-17 11:55:00,91.5,68.5,29.88,SE,135,3.8,5.8,47,0.00,,---,0.00,VWS V14.01,2013-05-17 16:55:00,
2013-05-17 11:56:00,91.4,67.7,29.88,South,180,4.3,7.6,46,0.00,,---,0.00,VWS V14.01,2013-05-17 16:56:00,
2013-05-17 11:57:00,90.3,67.4,29.88,ENE,68,3.4,6.0,47,0.00,,---,0.00,VWS V14.01,2013-05-17 16:57:00,
2013-05-17 11:58:00,90.1,67.2,29.88,East,90,4.3,4.3,47,0.00,,---,0.00,VWS V14.01,2013-05-17 16:58:00,
2013-05-17 11:59:00,90.1,67.2,29.88,East,90,4.7,4.7,47,0.00,,---,0.00,VWS V14.01,2013-05-17 16:59:00,
2013-05-17 12:00:00,90.1,67.2,29.88,East,90,2.0,5.8,47,0.00,,---,0.00,VWS V14.01,2013-05-17 17:00:00,
2013-05-17 12:01:00,90.7,67.7,29.85,South,180,2.9,2.9,47,0.00,,---,0.00,VWS V14.01,2013-05-17 17:01:00,
2013-05-17 12:02:00,90.8,67.8,29.85,SSW,202,3.1,6.0,47,0.00,,---,0.00,VWS V14.01,2013-05-17 17:02:00,
2013-05-17 12:03:00,91.0,68.0,29.85,East,90,3.6,4.3,47,0.00,,---,0.00,VWS V14.01,2013-05-17 17:03:00,
2013-05-17 12:04:00,91.2,68.2,29.85,South,180,1.6,4.3,47,0.00,,---,0.00,VWS V14.01,2013-05-17 17:04:00,
2013-05-17 12:05:00,91.4,68.3,29.85,South,180,2.5,2.9,47,0.00,,---,0.00,VWS V14.01,2013-05-17 17:05:00,
2013-05-17 12:06:00,91.5,69.1,29.85,SSW,202,4.0,4.0,48,0.00,,---,0.00,VWS V14.01,2013-05-17 17:06:00,
2013-05-17 12:07:00,91.5,68.5,29.85,SE,135,4.0,4.3,47,0.00,,---,0.00,VWS V14.01,2013-05-17 17:07:00,
2013-05-17 12:08:00,91.5,68.5,29.85,SSW,202,2.0,5.6,47,0.00,,---,0.00,VWS V14.01,2013-05-17 17:08:00,
2013-05-17 12:09:00,91.5,67.9,29.85,ESE,112,4.0,5.8,46,0.00,,---,0.00,VWS V14.01,2013-05-17 17:09:00,
2013-05-17 12:10:00,91.7,68.0,29.85,SSW,202,4.0,5.6,46,0.00,,---,0.00,VWS V14.01,2013-05-17 17:10:00,
2013-05-17 12:11:00,91.7,68.0,29.85,SE,135,4.3,5.4,46,0.00,,---,0.00,VWS V14.01,2013-05-17 17:11:00,
2013-05-17 12:12:00,91.7,68.0,29.85,SE,135,3.4,4.3,46,0.00,,---,0.00,VWS V14.01,2013-05-17 17:12:00,
2013-05-17 12:13:00,91.9,67.5,29.85,South,180,5.8,5.8,45,0.00,,---,0.00,VWS V14.01,2013-05-17 17:13:00,
2013-05-17 12:14:00,91.7,67.4,29.85,South,180,5.6,5.8,45,0.00,,---,0.00,VWS V14.01,2013-05-17 17:14:00,
2013-05-17 12:15:00,91.7,67.4,29.85,ESE,112,1.1,5.6,45,0.00,,---,0.00,VWS V14.01,2013-05-17 17:15:00,
2013-05-17 12:16:00,91.5,67.2,29.88,ESE,112,8.7,11.0,45,0.00,,---,0.00,VWS V14.01,2013-05-17 17:16:00,
2013-05-17 12:17:00,91.7,68.0,29.88,ESE,112,3.1,8.7,46,0.00,,---,0.00,VWS V14.01,2013-05-17 17:17:00,
2013-05-17 12:18:00,91.5,67.2,29.88,ESE,112,6.5,9.6,45,0.00,,---,0.00,VWS V14.01,2013-05-17 17:18:00,
2013-05-17 12:19:00,91.5,67.2,29.88,East,90,4.0,7.4,45,0.00,,---,0.00,VWS V14.01,2013-05-17 17:19:00,
2013-05-17 12:20:00,91.4,67.1,29.88,East,90,7.2,7.2,45,0.00,,---,0.00,VWS V14.01,2013-05-17 17:20:00,
2013-05-17 12:21:00,91.2,66.9,29.88,East,90,9.2,12.3,45,0.00,,---,0.00,VWS V14.01,2013-05-17 17:21:00,
2013-05-17 12:22:00,91.2,66.9,29.88,SSW,202,5.6,10.5,45,0.00,,---,0.00,VWS V14.01,2013-05-17 17:22:00,
2013-05-17 12:23:00,91.5,67.2,29.88,ESE,112,3.4,5.6,45,0.00,,---,0.00,VWS V14.01,2013-05-17 17:23:00,
2013-05-17 12:24:00,91.4,67.1,29.88,SSE,158,3.8,7.8,45,0.00,,---,0.00,VWS V14.01,2013-05-17 17:24:00,
2013-05-17 12:25:00,91.4,67.1,29.88,SE,135,4.9,5.4,45,0.00,,---,0.00,VWS V14.01,2013-05-17 17:25:00,
2013-05-17 12:26:00,91.4,67.1,29.88,ESE,112,4.0,6.0,45,0.00,,---,0.00,VWS V14.01,2013-05-17 17:26:00,
2013-05-17 12:27:00,91.5,67.9,29.88,SSW,202,8.5,8.5,46,0.00,,---,0.00,VWS V14.01,2013-05-17 17:27:00,
2013-05-17 12:28:00,91.4,67.7,29.88,ENE,68,1.3,8.5,46,0.00,,---,0.00,VWS V14.01,2013-05-17 17:28:00,
2013-05-17 12:29:00,91.4,67.1,29.88,SE,135,2.7,6.5,45,0.00,,---,0.00,VWS V14.01,2013-05-17 17:29:00,
2013-05-17 12:30:00,91.4,67.7,29.88,SSE,158,2.5,5.6,46,0.00,,---,0.00,VWS V14.01,2013-05-17 17:30:00,
2013-05-17 12:31:00,91.7,68.0,29.88,South,180,0.0,2.5,46,0.00,,---,0.00,VWS V14.01,2013-05-17 17:31:00,
2013-05-17 12:32:00,91.9,68.8,29.88,SSE,158,7.4,7.4,47,0.00,,---,0.00,VWS V14.01,2013-05-17 17:32:00,
2013-05-17 12:33:00,91.9,68.2,29.88,ESE,112,2.5,7.4,46,0.00,,---,0.00,VWS V14.01,2013-05-17 17:33:00,
2013-05-17 12:34:00,92.2,68.5,29.88,SE,135,6.0,6.3,46,0.00,,---,0.00,VWS V14.01,2013-05-17 17:34:00,
2013-05-17 12:35:00,92.1,68.3,29.88,South,180,2.5,8.5,46,0.00,,---,0.00,VWS V14.01,2013-05-17 17:35:00,
2013-05-17 12:36:00,91.7,67.4,29.88,SE,135,9.8,9.8,45,0.00,,---,0.00,VWS V14.01,2013-05-17 17:36:00,
2013-05-17 12:37:00,91.7,67.4,29.88,SSW,202,4.7,9.8,45,0.00,,---,0.00,VWS V14.01,2013-05-17 17:37:00,
2013-05-17 12:38:00,92.2,67.9,29.88,East,90,1.3,4.7,45,0.00,,---,0.00,VWS V14.01,2013-05-17 17:38:00,
2013-05-17 12:39:00,92.1,67.7,29.88,ESE,112,5.6,7.2,45,0.00,,---,0.00,VWS V14.01,2013-05-17 17:39:00,
2013-05-17 12:40:00,91.9,67.5,29.88,East,90,2.7,8.1,45,0.00,,---,0.00,VWS V14.01,2013-05-17 17:40:00,
2013-05-17 12:41:00,92.1,67.7,29.88,SE,135,7.8,8.7,45,0.00,,---,0.00,VWS V14.01,2013-05-17 17:41:00,
2013-05-17 12:42:00,91.9,68.2,29.88,South,180,7.2,7.8,46,0.00,,---,0.00,VWS V14.01,2013-05-17 17:42:00,
2013-05-17 12:43:00,91.9,67.5,29.88,SW,225,3.4,7.2,45,0.00,,---,0.00,VWS V14.01,2013-05-17 17:43:00,
2013-05-17 12:44:00,91.9,67.5,29.88,East,90,7.4,7.6,45,0.00,,---,0.00,VWS V14.01,2013-05-17 17:44:00,
2013-05-17 12:45:00,91.9,67.5,29.88,ESE,112,5.4,7.4,45,0.00,,---,0.00,VWS V14.01,2013-05-17 17:45:00,
2013-05-17 12:46:00,91.7,67.4,29.88,ESE,112,8.1,8.5,45,0.00,,---,0.00,VWS V14.01,2013-05-17 17:46:00,
2013-05-17 12:47:00,91.5,67.2,29.88,ESE,112,7.8,9.8,45,0.00,,---,0.00,VWS V14.01,2013-05-17 17:47:00,
2013-05-17 12:48:00,91.4,67.1,29.88,SE,135,10.5,10.5,45,0.00,,---,0.00,VWS V14.01,2013-05-17 17:48:00,
2013-05-17 12:49:00,91.5,67.2,29.88,South,180,3.4,10.5,45,0.00,,---,0.00,VWS V14.01,2013-05-17 17:49:00,
2013-05-17 12:50:00,92.1,67.1,29.88,SSW,202,2.9,6.0,44,0.00,,---,0.00,VWS V14.01,2013-05-17 17:50:00,
2013-05-17 12:51:00,92.2,67.2,29.88,SE,135,3.1,5.4,44,0.00,,---,0.00,VWS V14.01,2013-05-17 17:51:00,
2013-05-17 12:52:00,92.4,68.0,29.88,West,270,3.6,5.4,45,0.00,,---,0.00,VWS V14.01,2013-05-17 17:52:00,
2013-05-17 12:53:00,92.2,67.9,29.88,ESE,112,3.1,5.6,45,0.00,,---,0.00,VWS V14.01,2013-05-17 17:53:00,
2013-05-17 12:54:00,92.2,67.2,29.88,ESE,112,6.0,10.7,44,0.00,,---,0.00,VWS V14.01,2013-05-17 17:54:00,
2013-05-17 12:55:00,92.2,67.2,29.88,SSW,202,5.6,7.8,44,0.00,,---,0.00,VWS V14.01,2013-05-17 17:55:00,
2013-05-17 12:56:00,92.2,67.2,29.88,East,90,8.1,8.1,44,0.00,,---,0.00,VWS V14.01,2013-05-17 17:56:00,
2013-05-17 12:57:00,92.2,66.5,29.88,ESE,112,10.1,10.1,43,0.00,,---,0.00,VWS V14.01,2013-05-17 17:57:00,
2013-05-17 12:58:00,92.4,67.4,29.88,SSE,158,3.1,10.1,44,0.00,,---,0.00,VWS V14.01,2013-05-17 17:58:00,
2013-05-17 12:59:00,92.4,67.4,29.88,SE,135,8.5,8.7,44,0.00,,---,0.00,VWS V14.01,2013-05-17 17:59:00,
2013-05-17 13:00:00,92.6,66.9,29.88,SW,225,3.1,8.5,43,0.00,,---,0.00,VWS V14.01,2013-05-17 18:00:00,
2013-05-17 13:01:00,92.6,66.9,29.88,SSW,202,4.3,4.3,43,0.00,,---,0.00,VWS V14.01,2013-05-17 18:01:00,
2013-05-17 13:02:00,92.2,66.5,29.88,SSE,158,4.3,4.3,43,0.00,,---,0.00,VWS V14.01,2013-05-17 18:02:00,
2013-05-17 13:03:00,93.0,67.8,29.88,SE,135,2.9,4.7,44,0.00,,---,0.00,VWS V14.01,2013-05-17 18:03:00,
2013-05-17 13:04:00,93.0,67.8,29.88,SE,135,4.3,4.3,44,0.00,,---,0.00,VWS V14.01,2013-05-17 18:04:00,
2013-05-17 13:05:00,93.1,67.3,29.88,SE,135,3.6,4.9,43,0.00,,---,0.00,VWS V14.01,2013-05-17 18:05:00,
2013-05-17 13:06:00,93.0,66.5,29.88,South,180,4.0,6.0,42,0.00,,---,0.00,VWS V14.01,2013-05-17 18:06:00,
2013-05-17 13:07:00,93.0,66.5,29.88,South,180,5.4,5.8,42,0.00,,---,0.00,VWS V14.01,2013-05-17 18:07:00,
2013-05-17 13:08:00,93.0,67.2,29.88,SSW,202,4.9,5.4,43,0.00,,---,0.00,VWS V14.01,2013-05-17 18:08:00,
2013-05-17 13:09:00,93.3,67.5,29.88,SE,135,2.7,4.9,43,0.00,,---,0.00,VWS V14.01,2013-05-17 18:09:00,
2013-05-17 13:10:00,93.3,67.5,29.88,SSE,158,5.6,5.6,43,0.00,,---,0.00,VWS V14.01,2013-05-17 18:10:00,
2013-05-17 13:11:00,93.3,67.5,29.88,SSW,202,2.7,6.5,43,0.00,,---,0.00,VWS V14.01,2013-05-17 18:11:00,
2013-05-17 13:12:00,93.7,68.5,29.88,SSE,158,4.7,9.8,44,0.00,,---,0.00,VWS V14.01,2013-05-17 18:12:00,
2013-05-17 13:13:00,93.7,67.8,29.88,East,90,3.4,7.4,43,0.00,,---,0.00,VWS V14.01,2013-05-17 18:13:00,
2013-05-17 13:14:00,93.7,67.8,29.88,SE,135,3.1,8.7,43,0.00,,---,0.00,VWS V14.01,2013-05-17 18:14:00,
2013-05-17 13:15:00,93.7,67.1,29.88,SSE,158,3.4,5.4,42,0.00,,---,0.00,VWS V14.01,2013-05-17 18:15:00,
2013-05-17 13:16:00,93.7,66.4,29.85,SE,135,4.7,7.4,41,0.00,,---,0.00,VWS V14.01,2013-05-17 18:16:00,
2013-05-17 13:17:00,93.7,66.4,29.85,South,180,4.3,4.7,41,0.00,,---,0.00,VWS V14.01,2013-05-17 18:17:00,
2013-05-17 13:18:00,93.8,66.6,29.85,NNE,22,3.1,4.3,41,0.00,,---,0.00,VWS V14.01,2013-05-17 18:18:00,
2013-05-17 13:19:00,93.8,66.6,29.85,South,180,4.5,8.7,41,0.00,,---,0.00,VWS V14.01,2013-05-17 18:19:00,
2013-05-17 13:20:00,93.5,67.0,29.85,ESE,112,1.1,5.8,42,0.00,,---,0.00,VWS V14.01,2013-05-17 18:20:00,
2013-05-17 13:21:00,93.7,67.1,29.85,South,180,4.7,8.7,42,0.00,,---,0.00,VWS V14.01,2013-05-17 18:21:00,
2013-05-17 13:22:00,93.5,66.3,29.85,SSW,202,7.2,7.2,41,0.00,,---,0.00,VWS V14.01,2013-05-17 18:22:00,
2013-05-17 13:23:00,93.5,67.0,29.85,South,180,4.7,7.2,42,0.00,,---,0.00,VWS V14.01,2013-05-17 18:23:00,
2013-05-17 13:24:00,93.8,66.6,29.85,SSE,158,3.1,4.7,41,0.00,,---,0.00,VWS V14.01,2013-05-17 18:24:00,
2013-05-17 13:25:00,94.0,66.8,29.85,East,90,3.1,4.7,41,0.00,,---,0.00,VWS V14.01,2013-05-17 18:25:00,
2013-05-17 13:26:00,93.8,66.6,29.85,ESE,112,7.6,7.8,41,0.00,,---,0.00,VWS V14.01,2013-05-17 18:26:00,
2013-05-17 13:27:00,93.8,66.6,29.85,ESE,112,3.4,9.8,41,0.00,,---,0.00,VWS V14.01,2013-05-17 18:27:00,
2013-05-17 13:28:00,93.5,67.0,29.85,ESE,112,7.6,7.8,42,0.00,,---,0.00,VWS V14.01,2013-05-17 18:28:00,
2013-05-17 13:29:00,93.8,67.3,29.85,SE,135,2.5,7.6,42,0.00,,---,0.00,VWS V14.01,2013-05-17 18:29:00,
2013-05-17 13:30:00,93.8,67.3,29.85,SSE,158,4.3,4.9,42,0.00,,---,0.00,VWS V14.01,2013-05-17 18:30:00,
2013-05-17 13:31:00,93.8,67.3,29.88,ESE,112,6.7,6.7,42,0.00,,---,0.00,VWS V14.01,2013-05-17 18:31:00,
2013-05-17 13:32:00,94.0,66.8,29.88,SSE,158,2.7,6.7,41,0.00,,---,0.00,VWS V14.01,2013-05-17 18:32:00,
2013-05-17 13:33:00,94.0,66.8,29.88,ENE,68,6.5,7.8,41,0.00,,---,0.00,VWS V14.01,2013-05-17 18:33:00,
2013-05-17 13:34:00,94.0,66.8,29.88,South,180,2.5,7.6,41,0.00,,---,0.00,VWS V14.01,2013-05-17 18:34:00,
2013-05-17 13:35:00,94.0,67.4,29.88,South,180,10.3,10.3,42,0.00,,---,0.00,VWS V14.01,2013-05-17 18:35:00,
2013-05-17 13:36:00,93.7,67.1,29.88,ESE,112,4.9,10.3,42,0.00,,---,0.00,VWS V14.01,2013-05-17 18:36:00,
2013-05-17 13:37:00,93.7,67.1,29.88,WSW,248,5.6,6.5,42,0.00,,---,0.00,VWS V14.01,2013-05-17 18:37:00,
2013-05-17 13:38:00,93.7,67.1,29.88,ESE,112,9.4,9.4,42,0.00,,---,0.00,VWS V14.01,2013-05-17 18:38:00,
2013-05-17 13:39:00,93.7,67.1,29.88,SE,135,6.0,9.4,42,0.00,,---,0.00,VWS V14.01,2013-05-17 18:39:00,
2013-05-17 13:40:00,94.0,67.4,29.88,SE,135,2.5,6.0,42,0.00,,---,0.00,VWS V14.01,2013-05-17 18:40:00,
2013-05-17 13:41:00,94.4,67.8,29.88,South,180,1.6,3.1,42,0.00,,---,0.00,VWS V14.01,2013-05-17 18:41:00,
2013-05-17 13:42:00,94.7,68.1,29.88,WSW,248,2.9,3.6,42,0.00,,---,0.00,VWS V14.01,2013-05-17 18:42:00,
2013-05-17 13:43:00,94.9,68.2,29.88,ESE,112,3.1,3.4,42,0.00,,---,0.00,VWS V14.01,2013-05-17 18:43:00,
2013-05-17 13:44:00,94.7,67.4,29.88,SE,135,5.4,8.5,41,0.00,,---,0.00,VWS V14.01,2013-05-17 18:44:00,
2013-05-17 13:45:00,94.7,67.4,29.88,SE,135,5.8,6.5,41,0.00,,---,0.00,VWS V14.01,2013-05-17 18:45:00,
2013-05-17 13:46:00,94.7,67.4,29.85,South,180,3.4,7.6,41,0.00,,---,0.00,VWS V14.01,2013-05-17 18:46:00,
2013-05-17 13:47:00,95.1,67.7,29.85,South,180,6.3,6.3,41,0.00,,---,0.00,VWS V14.01,2013-05-17 18:47:00,
2013-05-17 13:48:00,94.7,67.4,29.85,SSE,158,8.7,8.7,41,0.00,,---,0.00,VWS V14.01,2013-05-17 18:48:00,
2013-05-17 13:49:00,94.7,67.4,29.85,South,180,4.0,8.7,41,0.00,,---,0.00,VWS V14.01,2013-05-17 18:49:00,
2013-05-17 13:50:00,94.9,67.6,29.85,WSW,248,3.1,8.1,41,0.00,,---,0.00,VWS V14.01,2013-05-17 18:50:00,
2013-05-17 13:51:00,94.9,67.6,29.85,SE,135,3.4,7.6,41,0.00,,---,0.00,VWS V14.01,2013-05-17 18:51:00,
2013-05-17 13:52:00,94.9,67.6,29.85,SE,135,4.3,4.3,41,0.00,,---,0.00,VWS V14.01,2013-05-17 18:52:00,
2013-05-17 13:53:00,94.7,66.7,29.85,SE,135,3.1,6.5,40,0.00,,---,0.00,VWS V14.01,2013-05-17 18:53:00,
2013-05-17 13:54:00,94.9,66.8,29.85,SW,225,3.4,4.0,40,0.00,,---,0.00,VWS V14.01,2013-05-17 18:54:00,
2013-05-17 13:55:00,94.9,66.8,29.85,SSW,202,7.2,7.2,40,0.00,,---,0.00,VWS V14.01,2013-05-17 18:55:00,
2013-05-17 13:56:00,94.9,66.8,29.85,South,180,4.0,7.2,40,0.00,,---,0.00,VWS V14.01,2013-05-17 18:56:00,
2013-05-17 13:57:00,94.6,66.5,29.85,East,90,7.8,12.8,40,0.00,,---,0.00,VWS V14.01,2013-05-17 18:57:00,
2013-05-17 13:58:00,94.6,66.5,29.85,South,180,9.0,9.0,40,0.00,,---,0.00,VWS V14.01,2013-05-17 18:58:00,
2013-05-17 13:59:00,95.1,67.7,29.85,ESE,112,1.6,9.0,41,0.00,,---,0.00,VWS V14.01,2013-05-17 18:59:00,
2013-05-17 14:00:00,95.4,68.0,29.85,ESE,112,2.7,4.3,41,0.00,,---,0.00,VWS V14.01,2013-05-17 19:00:00,
2013-05-17 14:01:00,95.6,67.5,29.85,South,180,2.5,6.0,40,0.00,,---,0.00,VWS V14.01,2013-05-17 19:01:00,
2013-05-17 14:02:00,95.3,67.2,29.85,South,180,4.3,6.5,40,0.00,,---,0.00,VWS V14.01,2013-05-17 19:02:00,
2013-05-17 14:03:00,94.9,66.8,29.85,SSW,202,2.7,6.0,40,0.00,,---,0.00,VWS V14.01,2013-05-17 19:03:00,
2013-05-17 14:04:00,94.9,66.8,29.85,South,180,3.1,6.0,40,0.00,,---,0.00,VWS V14.01,2013-05-17 19:04:00,
2013-05-17 14:05:00,94.9,66.8,29.85,South,180,4.9,4.9,40,0.00,,---,0.00,VWS V14.01,2013-05-17 19:05:00,
2013-05-17 14:06:00,94.9,66.8,29.85,South,180,4.0,5.4,40,0.00,,---,0.00,VWS V14.01,2013-05-17 19:06:00,
2013-05-17 14:07:00,94.7,66.7,29.85,SW,225,3.1,7.2,40,0.00,,---,0.00,VWS V14.01,2013-05-17 19:07:00,
2013-05-17 14:08:00,94.9,66.8,29.85,ENE,68,5.8,5.8,40,0.00,,---,0.00,VWS V14.01,2013-05-17 19:08:00,
2013-05-17 14:09:00,95.1,67.0,29.85,ESE,112,10.7,10.7,40,0.00,,---,0.00,VWS V14.01,2013-05-17 19:09:00,
2013-05-17 14:10:00,94.9,66.8,29.85,ESE,112,6.5,10.7,40,0.00,,---,0.00,VWS V14.01,2013-05-17 19:10:00,
2013-05-17 14:11:00,94.9,66.8,29.85,East,90,10.5,10.5,40,0.00,,---,0.00,VWS V14.01,2013-05-17 19:11:00,
2013-05-17 14:12:00,95.1,67.0,29.85,East,90,2.0,10.5,40,0.00,,---,0.00,VWS V14.01,2013-05-17 19:12:00,
2013-05-17 14:13:00,95.3,67.9,29.85,ESE,112,3.1,3.1,41,0.00,,---,0.00,VWS V14.01,2013-05-17 19:13:00,
2013-05-17 14:14:00,95.1,67.7,29.85,SE,135,2.2,7.6,41,0.00,,---,0.00,VWS V14.01,2013-05-17 19:14:00,
2013-05-17 14:15:00,94.9,66.8,29.85,South,180,4.7,4.7,40,0.00,,---,0.00,VWS V14.01,2013-05-17 19:15:00,
2013-05-17 14:16:00,94.4,66.4,29.85,East,90,10.1,10.1,40,0.00,,---,0.00,VWS V14.01,2013-05-17 19:16:00,
2013-05-17 14:17:00,94.2,66.2,29.85,NNE,22,3.4,12.5,40,0.00,,---,0.00,VWS V14.01,2013-05-17 19:17:00,
2013-05-17 14:18:00,94.4,66.4,29.85,South,180,2.0,3.6,40,0.00,,---,0.00,VWS V14.01,2013-05-17 19:18:00,
2013-05-17 14:19:00,94.6,66.5,29.85,SE,135,2.9,3.4,40,0.00,,---,0.00,VWS V14.01,2013-05-17 19:19:00,
2013-05-17 14:20:00,94.9,67.6,29.85,ESE,112,3.8,3.8,41,0.00,,---,0.00,VWS V14.01,2013-05-17 19:20:00,
2013-05-17 14:21:00,94.9,66.8,29.85,East,90,6.9,6.9,40,0.00,,---,0.00,VWS V14.01,2013-05-17 19:21:00,
2013-05-17 14:22:00,95.3,67.2,29.85,South,180,6.0,6.9,40,0.00,,---,0.00,VWS V14.01,2013-05-17 19:22:00,
2013-05-17 14:23:00,95.3,67.2,29.85,WSW,248,2.0,6.5,40,0.00,,---,0.00,VWS V14.01,2013-05-17 19:23:00,
2013-05-17 14:24:00,95.4,67.3,29.85,NNE,22,3.6,3.6,40,0.00,,---,0.00,VWS V14.01,2013-05-17 19:24:00,
2013-05-17 14:25:00,95.6,67.5,29.85,ESE,112,2.9,3.6,40,0.00,,---,0.00,VWS V14.01,2013-05-17 19:25:00,
2013-05-17 14:26:00,95.4,67.3,29.85,East,90,9.6,9.6,40,0.00,,---,0.00,VWS V14.01,2013-05-17 19:26:00,
2013-05-17 14:27:00,95.3,67.2,29.85,ESE,112,7.6,12.5,40,0.00,,---,0.00,VWS V14.01,2013-05-17 19:27:00,
2013-05-17 14:28:00,94.9,66.1,29.85,East,90,3.4,7.6,39,0.00,,---,0.00,VWS V14.01,2013-05-17 19:28:00,
2013-05-17 14:29:00,95.3,67.2,29.85,SE,135,8.7,8.7,40,0.00,,---,0.00,VWS V14.01,2013-05-17 19:29:00,
2013-05-17 14:30:00,95.4,67.3,29.85,South,180,7.2,8.7,40,0.00,,---,0.00,VWS V14.01,2013-05-17 19:30:00,
2013-05-17 14:31:00,95.4,67.3,29.85,East,90,5.8,7.2,40,0.00,,---,0.00,VWS V14.01,2013-05-17 19:31:00,
2013-05-17 14:32:00,95.4,67.3,29.85,SE,135,5.6,6.3,40,0.00,,---,0.00,VWS V14.01,2013-05-17 19:32:00,
2013-05-17 14:33:00,95.4,67.3,29.85,SE,135,5.8,8.7,40,0.00,,---,0.00,VWS V14.01,2013-05-17 19:33:00,
2013-05-17 14:34:00,95.6,66.7,29.85,South,180,3.1,5.8,39,0.00,,---,0.00,VWS V14.01,2013-05-17 19:34:00,
2013-05-17 14:35:00,95.6,66.7,29.85,ENE,68,2.0,3.1,39,0.00,,---,0.00,VWS V14.01,2013-05-17 19:35:00,
2013-05-17 14:36:00,96.3,68.1,29.85,South,180,2.0,4.0,40,0.00,,---,0.00,VWS V14.01,2013-05-17 19:36:00,
2013-05-17 14:37:00,96.3,68.1,29.85,South,180,5.6,6.3,40,0.00,,---,0.00,VWS V14.01,2013-05-17 19:37:00,
2013-05-17 14:38:00,96.3,68.1,29.85,SW,225,3.1,5.6,40,0.00,,---,0.00,VWS V14.01,2013-05-17 19:38:00,
2013-05-17 14:39:00,96.3,68.1,29.85,East,90,2.7,4.9,40,0.00,,---,0.00,VWS V14.01,2013-05-17 19:39:00,
2013-05-17 14:40:00,96.3,67.4,29.85,SE,135,4.7,7.8,39,0.00,,---,0.00,VWS V14.01,2013-05-17 19:40:00,
2013-05-17 14:41:00,96.5,67.5,29.85,South,180,2.7,6.3,39,0.00,,---,0.00,VWS V14.01,2013-05-17 19:41:00,
2013-05-17 14:42:00,96.7,67.7,29.85,SE,135,2.9,4.9,39,0.00,,---,0.00,VWS V14.01,2013-05-17 19:42:00,
2013-05-17 14:43:00,97.0,68.0,29.85,SSW,202,3.8,4.0,39,0.00,,---,0.00,VWS V14.01,2013-05-17 19:43:00,
2013-05-17 14:44:00,96.7,67.7,29.85,South,180,7.6,7.6,39,0.00,,---,0.00,VWS V14.01,2013-05-17 19:44:00,
2013-05-17 14:45:00,96.5,66.8,29.85,South,180,7.8,8.5,38,0.00,,---,0.00,VWS V14.01,2013-05-17 19:45:00,
2013-05-17 14:46:00,96.5,66.8,29.85,SSE,158,2.9,9.2,38,0.00,,---,0.00,VWS V14.01,2013-05-17 19:46:00,
2013-05-17 14:47:00,96.3,66.6,29.85,South,180,11.4,11.4,38,0.00,,---,0.00,VWS V14.01,2013-05-17 19:47:00,
2013-05-17 14:48:00,96.0,66.3,29.85,SSW,202,3.1,11.4,38,0.00,,---,0.00,VWS V14.01,2013-05-17 19:48:00,
2013-05-17 14:49:00,96.3,66.6,29.85,South,180,4.3,5.8,38,0.00,,---,0.00,VWS V14.01,2013-05-17 19:49:00,
2013-05-17 14:50:00,96.5,66.8,29.85,SSW,202,4.3,4.3,38,0.00,,---,0.00,VWS V14.01,2013-05-17 19:50:00,
2013-05-17 14:51:00,96.7,66.9,29.85,South,180,4.9,4.9,38,0.00,,---,0.00,VWS V14.01,2013-05-17 19:51:00,
2013-05-17 14:52:00,96.7,67.7,29.85,West,270,4.0,4.9,39,0.00,,---,0.00,VWS V14.01,2013-05-17 19:52:00,
2013-05-17 14:53:00,96.5,66.8,29.85,SSE,158,4.0,6.3,38,0.00,,---,0.00,VWS V14.01,2013-05-17 19:53:00,
2013-05-17 14:54:00,96.2,66.4,29.85,NE,45,8.5,8.5,38,0.00,,---,0.00,VWS V14.01,2013-05-17 19:54:00,
2013-05-17 14:55:00,95.6,66.7,29.85,South,180,3.6,8.5,39,0.00,,---,0.00,VWS V14.01,2013-05-17 19:55:00,
2013-05-17 14:56:00,95.3,66.4,29.85,ESE,112,2.2,3.6,39,0.00,,---,0.00,VWS V14.01,2013-05-17 19:56:00,
2013-05-17 14:57:00,95.3,66.4,29.85,South,180,4.9,4.9,39,0.00,,---,0.00,VWS V14.01,2013-05-17 19:57:00,
2013-05-17 14:58:00,95.1,66.3,29.85,South,180,2.7,4.9,39,0.00,,---,0.00,VWS V14.01,2013-05-17 19:58:00,
2013-05-17 14:59:00,95.3,67.2,29.85,ESE,112,1.3,4.3,40,0.00,,---,0.00,VWS V14.01,2013-05-17 19:59:00,
2013-05-17 15:00:00,95.4,66.6,29.85,SSE,158,3.1,3.8,39,0.00,,---,0.00,VWS V14.01,2013-05-17 20:00:00,
2013-05-17 15:01:00,95.6,66.7,29.85,SE,135,7.8,9.2,39,0.00,,---,0.00,VWS V14.01,2013-05-17 20:01:00,
2013-05-17 15:02:00,95.8,66.9,29.85,SE,135,3.8,7.8,39,0.00,,---,0.00,VWS V14.01,2013-05-17 20:02:00,
2013-05-17 15:03:00,96.0,67.1,29.85,SE,135,6.5,6.5,39,0.00,,---,0.00,VWS V14.01,2013-05-17 20:03:00,
2013-05-17 15:04:00,96.2,67.2,29.85,East,90,2.7,6.5,39,0.00,,---,0.00,VWS V14.01,2013-05-17 20:04:00,
2013-05-17 15:05:00,96.3,67.4,29.85,ENE,68,5.4,9.0,39,0.00,,---,0.00,VWS V14.01,2013-05-17 20:05:00,
2013-05-17 15:06:00,96.3,67.4,29.85,ESE,112,6.3,6.5,39,0.00,,---,0.00,VWS V14.01,2013-05-17 20:06:00,
2013-05-17 15:07:00,95.1,66.3,29.85,ESE,112,2.9,10.5,39,0.00,,---,0.00,VWS V14.01,2013-05-17 20:07:00,
2013-05-17 15:08:00,94.6,65.8,29.85,SE,135,2.9,7.4,39,0.00,,---,0.00,VWS V14.01,2013-05-17 20:08:00,
2013-05-17 15:09:00,94.7,65.9,29.85,SE,135,5.8,5.8,39,0.00,,---,0.00,VWS V14.01,2013-05-17 20:09:00,
2013-05-17 15:10:00,94.7,66.7,29.85,SE,135,5.6,5.8,40,0.00,,---,0.00,VWS V14.01,2013-05-17 20:10:00,
2013-05-17 15:11:00,94.6,65.8,29.85,SE,135,6.3,13.0,39,0.00,,---,0.00,VWS V14.01,2013-05-17 20:11:00,
2013-05-17 15:12:00,94.6,65.8,29.85,SSE,158,2.9,6.5,39,0.00,,---,0.00,VWS V14.01,2013-05-17 20:12:00,
2013-05-17 15:13:00,94.6,65.8,29.85,SE,135,3.6,7.4,39,0.00,,---,0.00,VWS V14.01,2013-05-17 20:13:00,
2013-05-17 15:14:00,95.6,66.0,29.85,ESE,112,4.0,4.0,38,0.00,,---,0.00,VWS V14.01,2013-05-17 20:14:00,
2013-05-17 15:15:00,95.1,66.3,29.85,South,180,8.5,8.5,39,0.00,,---,0.00,VWS V14.01,2013-05-17 20:15:00,
2013-05-17 15:16:00,94.7,65.9,29.85,East,90,9.4,9.4,39,0.00,,---,0.00,VWS V14.01,2013-05-17 20:16:00,
2013-05-17 15:17:00,94.4,65.6,29.85,East,90,7.4,9.4,39,0.00,,---,0.00,VWS V14.01,2013-05-17 20:17:00,
2013-05-17 15:18:00,94.2,65.5,29.85,SE,135,7.2,8.1,39,0.00,,---,0.00,VWS V14.01,2013-05-17 20:18:00,
2013-05-17 15:19:00,94.0,65.3,29.85,SE,135,3.8,12.3,39,0.00,,---,0.00,VWS V14.01,2013-05-17 20:19:00,
2013-05-17 15:20:00,94.6,66.5,29.85,ESE,112,3.8,7.4,40,0.00,,---,0.00,VWS V14.01,2013-05-17 20:20:00,
2013-05-17 15:21:00,94.9,66.8,29.85,East,90,2.0,5.8,40,0.00,,---,0.00,VWS V14.01,2013-05-17 20:21:00,
2013-05-17 15:22:00,95.4,67.3,29.85,South,180,4.9,4.9,40,0.00,,---,0.00,VWS V14.01,2013-05-17 20:22:00,
2013-05-17 15:23:00,95.6,67.5,29.85,WSW,248,3.4,7.4,40,0.00,,---,0.00,VWS V14.01,2013-05-17 20:23:00,
2013-05-17 15:24:00,95.8,67.6,29.85,SE,135,4.0,4.0,40,0.00,,---,0.00,VWS V14.01,2013-05-17 20:24:00,
2013-05-17 15:25:00,96.0,67.8,29.85,SSW,202,8.5,8.5,40,0.00,,---,0.00,VWS V14.01,2013-05-17 20:25:00,
2013-05-17 15:26:00,96.0,67.1,29.85,SW,225,4.0,8.5,39,0.00,,---,0.00,VWS V14.01,2013-05-17 20:26:00,
2013-05-17 15:27:00,96.2,67.2,29.85,South,180,3.4,5.4,39,0.00,,---,0.00,VWS V14.01,2013-05-17 20:27:00,
2013-05-17 15:28:00,96.2,67.2,29.85,South,180,2.5,3.4,39,0.00,,---,0.00,VWS V14.01,2013-05-17 20:28:00,
2013-05-17 15:29:00,95.8,67.6,29.85,South,180,3.6,4.3,40,0.00,,---,0.00,VWS V14.01,2013-05-17 20:29:00,
2013-05-17 15:30:00,95.4,67.3,29.85,SE,135,2.9,5.4,40,0.00,,---,0.00,VWS V14.01,2013-05-17 20:30:00,
2013-05-17 15:31:00,95.6,67.5,29.85,SE,135,3.1,3.1,40,0.00,,---,0.00,VWS V14.01,2013-05-17 20:31:00,
2013-05-17 15:32:00,95.8,67.6,29.85,South,180,3.1,4.0,40,0.00,,---,0.00,VWS V14.01,2013-05-17 20:32:00,
2013-05-17 15:33:00,96.2,67.9,29.85,ESE,112,4.3,4.3,40,0.00,,---,0.00,VWS V14.01,2013-05-17 20:33:00,
2013-05-17 15:34:00,96.3,68.1,29.85,SE,135,6.5,6.5,40,0.00,,---,0.00,VWS V14.01,2013-05-17 20:34:00,
2013-05-17 15:35:00,96.2,67.2,29.85,East,90,3.4,7.2,39,0.00,,---,0.00,VWS V14.01,2013-05-17 20:35:00,
2013-05-17 15:36:00,96.0,67.1,29.85,SE,135,3.1,8.5,39,0.00,,---,0.00,VWS V14.01,2013-05-17 20:36:00,
2013-05-17 15:37:00,96.0,67.1,29.85,SE,135,4.0,6.0,39,0.00,,---,0.00,VWS V14.01,2013-05-17 20:37:00,
2013-05-17 15:38:00,96.0,67.1,29.85,ESE,112,2.0,5.8,39,0.00,,---,0.00,VWS V14.01,2013-05-17 20:38:00,
2013-05-17 15:39:00,96.0,67.1,29.85,WSW,248,3.6,8.1,39,0.00,,---,0.00,VWS V14.01,2013-05-17 20:39:00,
2013-05-17 15:40:00,96.2,67.2,29.85,SE,135,2.5,7.2,39,0.00,,---,0.00,VWS V14.01,2013-05-17 20:40:00,
2013-05-17 15:41:00,96.0,67.1,29.85,SE,135,2.0,5.8,39,0.00,,---,0.00,VWS V14.01,2013-05-17 20:41:00,
2013-05-17 15:42:00,95.8,66.9,29.85,SSE,158,4.9,9.8,39,0.00,,---,0.00,VWS V14.01,2013-05-17 20:42:00,
2013-05-17 15:43:00,95.6,66.7,29.85,SE,135,2.9,6.5,39,0.00,,---,0.00,VWS V14.01,2013-05-17 20:43:00,
2013-05-17 15:44:00,95.6,67.5,29.85,South,180,5.8,8.1,40,0.00,,---,0.00,VWS V14.01,2013-05-17 20:44:00,
2013-05-17 15:45:00,95.4,67.3,29.85,SSW,202,4.9,9.8,40,0.00,,---,0.00,VWS V14.01,2013-05-17 20:45:00,
2013-05-17 15:46:00,95.4,67.3,29.82,SE,135,2.9,4.9,40,0.00,,---,0.00,VWS V14.01,2013-05-17 20:46:00,
2013-05-17 15:47:00,95.8,67.6,29.82,NE,45,0.9,3.4,40,0.00,,---,0.00,VWS V14.01,2013-05-17 20:47:00,
2013-05-17 15:48:00,95.8,67.6,29.82,South,180,3.8,4.9,40,0.00,,---,0.00,VWS V14.01,2013-05-17 20:48:00,
2013-05-17 15:49:00,95.8,67.6,29.82,SSE,158,2.5,4.0,40,0.00,,---,0.00,VWS V14.01,2013-05-17 20:49:00,
2013-05-17 15:50:00,95.8,67.6,29.82,West,270,5.6,7.4,40,0.00,,---,0.00,VWS V14.01,2013-05-17 20:50:00,
2013-05-17 15:51:00,95.8,67.6,29.82,ESE,112,3.8,6.5,40,0.00,,---,0.00,VWS V14.01,2013-05-17 20:51:00,
2013-05-17 15:52:00,95.6,67.5,29.82,ESE,112,3.4,6.5,40,0.00,,---,0.00,VWS V14.01,2013-05-17 20:52:00,
2013-05-17 15:53:00,95.4,67.3,29.82,ESE,112,10.1,10.1,40,0.00,,---,0.00,VWS V14.01,2013-05-17 20:53:00,
2013-05-17 15:54:00,95.3,67.2,29.82,SE,135,4.0,12.3,40,0.00,,---,0.00,VWS V14.01,2013-05-17 20:54:00,
2013-05-17 15:55:00,95.1,67.7,29.82,SE,135,7.4,7.4,41,0.00,,---,0.00,VWS V14.01,2013-05-17 20:55:00,
2013-05-17 15:56:00,94.9,66.8,29.82,South,180,3.6,7.4,40,0.00,,---,0.00,VWS V14.01,2013-05-17 20:56:00,
2013-05-17 15:57:00,94.9,66.8,29.82,SE,135,3.8,5.4,40,0.00,,---,0.00,VWS V14.01,2013-05-17 20:57:00,
2013-05-17 15:58:00,94.9,66.8,29.82,SW,225,2.9,4.0,40,0.00,,---,0.00,VWS V14.01,2013-05-17 20:58:00,
2013-05-17 15:59:00,94.9,66.8,29.82,East,90,2.0,5.4,40,0.00,,---,0.00,VWS V14.01,2013-05-17 20:59:00,
2013-05-17 16:00:00,94.9,67.6,29.82,SE,135,2.0,4.3,41,0.00,,---,0.00,VWS V14.01,2013-05-17 21:00:00,
2013-05-17 16:01:00,94.9,67.6,29.82,ESE,112,5.4,5.4,41,0.00,,---,0.00,VWS V14.01,2013-05-17 21:01:00,
2013-05-17 16:02:00,94.9,67.6,29.82,SE,135,4.3,5.4,41,0.00,,---,0.00,VWS V14.01,2013-05-17 21:02:00,
2013-05-17 16:03:00,94.9,67.6,29.82,SE,135,4.0,4.3,41,0.00,,---,0.00,VWS V14.01,2013-05-17 21:03:00,
2013-05-17 16:04:00,94.6,66.5,29.82,SSE,158,7.4,7.6,40,0.00,,---,0.00,VWS V14.01,2013-05-17 21:04:00,
2013-05-17 16:05:00,94.4,67.1,29.82,SSE,158,7.8,10.5,41,0.00,,---,0.00,VWS V14.01,2013-05-17 21:05:00,
2013-05-17 16:06:00,94.2,66.9,29.82,SE,135,2.7,7.8,41,0.00,,---,0.00,VWS V14.01,2013-05-17 21:06:00,
2013-05-17 16:07:00,94.0,66.8,29.82,South,180,3.8,6.5,41,0.00,,---,0.00,VWS V14.01,2013-05-17 21:07:00,
2013-05-17 16:08:00,93.8,66.6,29.82,SE,135,7.6,7.6,41,0.00,,---,0.00,VWS V14.01,2013-05-17 21:08:00,
2013-05-17 16:09:00,93.8,66.6,29.82,SE,135,7.6,7.6,41,0.00,,---,0.00,VWS V14.01,2013-05-17 21:09:00,
2013-05-17 16:10:00,93.5,66.3,29.82,ESE,112,3.4,11.0,41,0.00,,---,0.00,VWS V14.01,2013-05-17 21:10:00,
2013-05-17 16:11:00,93.7,66.4,29.82,SSW,202,3.8,5.8,41,0.00,,---,0.00,VWS V14.01,2013-05-17 21:11:00,
2013-05-17 16:12:00,93.8,66.6,29.82,South,180,4.3,4.3,41,0.00,,---,0.00,VWS V14.01,2013-05-17 21:12:00,
2013-05-17 16:13:00,94.0,66.8,29.82,SE,135,2.0,4.3,41,0.00,,---,0.00,VWS V14.01,2013-05-17 21:13:00,
2013-05-17 16:14:00,94.0,66.8,29.82,SE,135,4.9,4.9,41,0.00,,---,0.00,VWS V14.01,2013-05-17 21:14:00,
2013-05-17 16:15:00,94.2,67.6,29.82,South,180,2.5,6.7,42,0.00,,---,0.00,VWS V14.01,2013-05-17 21:15:00,
2013-05-17 16:16:00,93.8,66.6,29.82,SE,135,8.5,8.5,41,0.00,,---,0.00,VWS V14.01,2013-05-17 21:16:00,
2013-05-17 16:17:00,94.0,66.8,29.82,South,180,5.6,8.5,41,0.00,,---,0.00,VWS V14.01,2013-05-17 21:17:00,
2013-05-17 16:18:00,93.8,66.6,29.82,SW,225,4.7,5.6,41,0.00,,---,0.00,VWS V14.01,2013-05-17 21:18:00,
2013-05-17 16:19:00,94.0,66.8,29.82,East,90,4.7,7.2,41,0.00,,---,0.00,VWS V14.01,2013-05-17 21:19:00,
2013-05-17 16:20:00,94.0,66.8,29.82,South,180,2.0,4.7,41,0.00,,---,0.00,VWS V14.01,2013-05-17 21:20:00,
2013-05-17 16:21:00,94.2,66.9,29.82,South,180,4.0,4.0,41,0.00,,---,0.00,VWS V14.01,2013-05-17 21:21:00,
2013-05-17 16:22:00,94.4,67.8,29.82,SE,135,2.5,4.0,42,0.00,,---,0.00,VWS V14.01,2013-05-17 21:22:00,
2013-05-17 16:23:00,94.4,67.1,29.82,ESE,112,4.9,4.9,41,0.00,,---,0.00,VWS V14.01,2013-05-17 21:23:00,
2013-05-17 16:24:00,94.4,67.1,29.82,SE,135,4.3,8.5,41,0.00,,---,0.00,VWS V14.01,2013-05-17 21:24:00,
2013-05-17 16:25:00,94.4,67.1,29.82,East,90,3.8,10.3,41,0.00,,---,0.00,VWS V14.01,2013-05-17 21:25:00,
2013-05-17 16:26:00,94.2,66.9,29.82,SE,135,2.9,3.8,41,0.00,,---,0.00,VWS V14.01,2013-05-17 21:26:00,
2013-05-17 16:27:00,94.0,66.8,29.82,East,90,4.9,5.6,41,0.00,,---,0.00,VWS V14.01,2013-05-17 21:27:00,
2013-05-17 16:28:00,94.0,66.8,29.82,SE,135,5.4,9.4,41,0.00,,---,0.00,VWS V14.01,2013-05-17 21:28:00,
2013-05-17 16:29:00,94.0,66.8,29.82,SSW,202,5.8,6.7,41,0.00,,---,0.00,VWS V14.01,2013-05-17 21:29:00,
2013-05-17 16:30:00,93.8,66.6,29.82,South,180,4.0,7.2,41,0.00,,---,0.00,VWS V14.01,2013-05-17 21:30:00,
2013-05-17 16:31:00,93.8,66.6,29.82,SE,135,3.1,5.6,41,0.00,,---,0.00,VWS V14.01,2013-05-17 21:31:00,
2013-05-17 16:32:00,94.0,66.8,29.82,SE,135,2.5,4.9,41,0.00,,---,0.00,VWS V14.01,2013-05-17 21:32:00,
2013-05-17 16:33:00,94.0,66.8,29.82,ESE,112,4.7,8.5,41,0.00,,---,0.00,VWS V14.01,2013-05-17 21:33:00,
2013-05-17 16:34:00,94.0,67.4,29.82,East,90,4.3,4.9,42,0.00,,---,0.00,VWS V14.01,2013-05-17 21:34:00,
2013-05-17 16:35:00,94.0,67.4,29.82,SW,225,5.6,5.6,42,0.00,,---,0.00,VWS V14.01,2013-05-17 21:35:00,
2013-05-17 16:36:00,94.0,67.4,29.82,South,180,4.3,5.6,42,0.00,,---,0.00,VWS V14.01,2013-05-17 21:36:00,
2013-05-17 16:37:00,93.8,66.6,29.82,South,180,2.9,8.7,41,0.00,,---,0.00,VWS V14.01,2013-05-17 21:37:00,
2013-05-17 16:38:00,94.0,67.4,29.82,SE,135,4.5,4.5,42,0.00,,---,0.00,VWS V14.01,2013-05-17 21:38:00,
2013-05-17 16:39:00,94.0,67.4,29.82,East,90,2.7,4.9,42,0.00,,---,0.00,VWS V14.01,2013-05-17 21:39:00,
2013-05-17 16:40:00,94.2,67.6,29.82,ESE,112,6.0,6.0,42,0.00,,---,0.00,VWS V14.01,2013-05-17 21:40:00,
2013-05-17 16:41:00,94.2,66.9,29.82,SSW,202,2.2,6.0,41,0.00,,---,0.00,VWS V14.01,2013-05-17 21:41:00,
2013-05-17 16:42:00,94.0,67.4,29.82,South,180,3.6,3.6,42,0.00,,---,0.00,VWS V14.01,2013-05-17 21:42:00,
2013-05-17 16:43:00,94.2,67.6,29.82,SSW,202,10.1,10.1,42,0.00,,---,0.00,VWS V14.01,2013-05-17 21:43:00,
2013-05-17 16:44:00,94.0,66.8,29.82,SE,135,3.6,10.1,41,0.00,,---,0.00,VWS V14.01,2013-05-17 21:44:00,
2013-05-17 16:45:00,93.8,66.6,29.82,NNW,338,6.0,6.0,41,0.00,,---,0.00,VWS V14.01,2013-05-17 21:45:00,
2013-05-17 16:46:00,93.8,66.6,29.82,ENE,68,3.1,7.2,41,0.00,,---,0.00,VWS V14.01,2013-05-17 21:46:00,
2013-05-17 16:47:00,93.7,67.1,29.82,South,180,4.7,5.8,42,0.00,,---,0.00,VWS V14.01,2013-05-17 21:47:00,
2013-05-17 16:48:00,93.7,67.1,29.82,East,90,2.9,5.6,42,0.00,,---,0.00,VWS V14.01,2013-05-17 21:48:00,
2013-05-17 16:49:00,93.7,67.1,29.82,SE,135,6.5,6.5,42,0.00,,---,0.00,VWS V14.01,2013-05-17 21:49:00,
2013-05-17 16:50:00,93.7,67.1,29.82,ESE,112,6.3,6.5,42,0.00,,---,0.00,VWS V14.01,2013-05-17 21:50:00,
2013-05-17 16:51:00,93.7,67.1,29.82,South,180,5.6,8.7,42,0.00,,---,0.00,VWS V14.01,2013-05-17 21:51:00,
2013-05-17 16:52:00,93.5,66.3,29.82,East,90,3.4,8.1,41,0.00,,---,0.00,VWS V14.01,2013-05-17 21:52:00,
2013-05-17 16:53:00,93.5,67.0,29.82,East,90,2.7,4.7,42,0.00,,---,0.00,VWS V14.01,2013-05-17 21:53:00,
2013-05-17 16:54:00,93.5,67.0,29.82,SE,135,3.8,4.0,42,0.00,,---,0.00,VWS V14.01,2013-05-17 21:54:00,
2013-05-17 16:55:00,93.5,67.0,29.82,SE,135,3.4,6.0,42,0.00,,---,0.00,VWS V14.01,2013-05-17 21:55:00,
2013-05-17 16:56:00,93.5,67.0,29.82,SW,225,7.8,7.8,42,0.00,,---,0.00,VWS V14.01,2013-05-17 21:56:00,
2013-05-17 16:57:00,93.5,67.0,29.82,ESE,112,4.0,7.8,42,0.00,,---,0.00,VWS V14.01,2013-05-17 21:57:00,
2013-05-17 16:58:00,93.5,67.0,29.82,South,180,9.8,9.8,42,0.00,,---,0.00,VWS V14.01,2013-05-17 21:58:00,
2013-05-17 16:59:00,93.5,67.0,29.82,SSE,158,2.7,9.8,42,0.00,,---,0.00,VWS V14.01,2013-05-17 21:59:00,
2013-05-17 17:00:00,93.5,67.0,29.82,South,180,4.7,6.5,42,0.00,,---,0.00,VWS V14.01,2013-05-17 22:00:00,
2013-05-17 17:01:00,93.7,67.1,29.82,WSW,248,4.9,6.3,42,0.00,,---,0.00,VWS V14.01,2013-05-17 22:01:00,
2013-05-17 17:02:00,93.5,67.0,29.82,NE,45,3.1,10.7,42,0.00,,---,0.00,VWS V14.01,2013-05-17 22:02:00,
2013-05-17 17:03:00,93.5,67.0,29.82,SSW,202,4.7,4.7,42,0.00,,---,0.00,VWS V14.01,2013-05-17 22:03:00,
2013-05-17 17:04:00,93.5,67.0,29.82,SSE,158,2.5,4.7,42,0.00,,---,0.00,VWS V14.01,2013-05-17 22:04:00,
2013-05-17 17:05:00,93.3,66.1,29.82,East,90,2.5,8.7,41,0.00,,---,0.00,VWS V14.01,2013-05-17 22:05:00,
2013-05-17 17:06:00,93.3,66.1,29.82,East,90,3.6,6.0,41,0.00,,---,0.00,VWS V14.01,2013-05-17 22:06:00,
2013-05-17 17:07:00,93.3,66.1,29.82,East,90,9.4,10.1,41,0.00,,---,0.00,VWS V14.01,2013-05-17 22:07:00,
2013-05-17 17:08:00,93.1,66.0,29.82,East,90,6.3,9.4,41,0.00,,---,0.00,VWS V14.01,2013-05-17 22:08:00,
2013-05-17 17:09:00,93.1,66.0,29.82,SSE,158,6.9,9.4,41,0.00,,---,0.00,VWS V14.01,2013-05-17 22:09:00,
2013-05-17 17:10:00,93.0,66.5,29.82,South,180,4.9,7.2,42,0.00,,---,0.00,VWS V14.01,2013-05-17 22:10:00,
2013-05-17 17:11:00,93.0,66.5,29.82,South,180,9.8,9.8,42,0.00,,---,0.00,VWS V14.01,2013-05-17 22:11:00,
2013-05-17 17:12:00,92.8,66.3,29.82,South,180,7.4,9.8,42,0.00,,---,0.00,VWS V14.01,2013-05-17 22:12:00,
2013-05-17 17:13:00,92.8,66.3,29.82,WSW,248,3.8,7.4,42,0.00,,---,0.00,VWS V14.01,2013-05-17 22:13:00,
2013-05-17 17:14:00,92.8,66.3,29.82,WSW,248,3.6,4.9,42,0.00,,---,0.00,VWS V14.01,2013-05-17 22:14:00,
2013-05-17 17:15:00,92.6,66.2,29.82,ENE,68,5.4,6.3,42,0.00,,---,0.00,VWS V14.01,2013-05-17 22:15:00,
2013-05-17 17:16:00,92.4,66.0,29.82,ENE,68,4.9,5.8,42,0.00,,---,0.00,VWS V14.01,2013-05-17 22:16:00,
2013-05-17 17:17:00,92.4,66.0,29.82,SE,135,4.0,7.8,42,0.00,,---,0.00,VWS V14.01,2013-05-17 22:17:00,
2013-05-17 17:18:00,92.4,66.0,29.82,East,90,3.6,4.0,42,0.00,,---,0.00,VWS V14.01,2013-05-17 22:18:00,
2013-05-17 17:19:00,92.6,66.2,29.82,SE,135,3.4,9.2,42,0.00,,---,0.00,VWS V14.01,2013-05-17 22:19:00,
2013-05-17 17:20:00,92.4,66.0,29.82,ESE,112,2.2,4.3,42,0.00,,---,0.00,VWS V14.01,2013-05-17 22:20:00,
2013-05-17 17:21:00,92.6,66.2,29.82,ESE,112,4.3,8.7,42,0.00,,---,0.00,VWS V14.01,2013-05-17 22:21:00,
2013-05-17 17:22:00,92.4,66.0,29.82,NE,45,3.1,5.8,42,0.00,,---,0.00,VWS V14.01,2013-05-17 22:22:00,
2013-05-17 17:23:00,92.4,66.0,29.82,SE,135,2.5,3.6,42,0.00,,---,0.00,VWS V14.01,2013-05-17 22:23:00,
2013-05-17 17:24:00,92.4,66.0,29.82,South,180,3.1,4.5,42,0.00,,---,0.00,VWS V14.01,2013-05-17 22:24:00,
2013-05-17 17:25:00,92.2,65.9,29.82,South,180,5.8,5.8,42,0.00,,---,0.00,VWS V14.01,2013-05-17 22:25:00,
2013-05-17 17:26:00,92.2,65.2,29.82,ESE,112,3.4,6.3,41,0.00,,---,0.00,VWS V14.01,2013-05-17 22:26:00,
2013-05-17 17:27:00,92.1,65.0,29.82,SE,135,3.8,6.9,41,0.00,,---,0.00,VWS V14.01,2013-05-17 22:27:00,
2013-05-17 17:28:00,92.1,65.0,29.82,South,180,3.6,4.0,41,0.00,,---,0.00,VWS V14.01,2013-05-17 22:28:00,
2013-05-17 17:29:00,92.1,65.0,29.82,ESE,112,3.6,4.0,41,0.00,,---,0.00,VWS V14.01,2013-05-17 22:29:00,
2013-05-17 17:30:00,91.9,65.6,29.82,SSE,158,5.6,5.6,42,0.00,,---,0.00,VWS V14.01,2013-05-17 22:30:00,
2013-05-17 17:31:00,91.9,65.6,29.82,South,180,1.1,5.6,42,0.00,,---,0.00,VWS V14.01,2013-05-17 22:31:00,
2013-05-17 17:32:00,91.9,65.6,29.82,SSW,202,0.0,5.4,42,0.00,,---,0.00,VWS V14.01,2013-05-17 22:32:00,
2013-05-17 17:33:00,91.9,65.6,29.82,SE,135,6.0,6.5,42,0.00,,---,0.00,VWS V14.01,2013-05-17 22:33:00,
2013-05-17 17:34:00,91.9,65.6,29.82,East,90,3.4,6.0,42,0.00,,---,0.00,VWS V14.01,2013-05-17 22:34:00,
2013-05-17 17:35:00,91.7,65.4,29.82,SE,135,2.7,5.4,42,0.00,,---,0.00,VWS V14.01,2013-05-17 22:35:00,
2013-05-17 17:36:00,91.7,66.1,29.82,SE,135,2.7,4.0,43,0.00,,---,0.00,VWS V14.01,2013-05-17 22:36:00,
2013-05-17 17:37:00,91.7,65.4,29.82,SE,135,5.6,5.6,42,0.00,,---,0.00,VWS V14.01,2013-05-17 22:37:00,
2013-05-17 17:38:00,91.7,65.4,29.82,SE,135,2.7,5.6,42,0.00,,---,0.00,VWS V14.01,2013-05-17 22:38:00,
2013-05-17 17:39:00,91.5,65.2,29.82,South,180,3.4,5.4,42,0.00,,---,0.00,VWS V14.01,2013-05-17 22:39:00,
2013-05-17 17:40:00,91.5,65.2,29.82,SE,135,3.8,6.7,42,0.00,,---,0.00,VWS V14.01,2013-05-17 22:40:00,
2013-05-17 17:41:00,91.4,65.1,29.82,East,90,3.6,6.9,42,0.00,,---,0.00,VWS V14.01,2013-05-17 22:41:00,
2013-05-17 17:42:00,91.4,65.1,29.82,East,90,3.4,6.0,42,0.00,,---,0.00,VWS V14.01,2013-05-17 22:42:00,
2013-05-17 17:43:00,91.2,64.9,29.82,SSE,158,3.1,8.5,42,0.00,,---,0.00,VWS V14.01,2013-05-17 22:43:00,
2013-05-17 17:44:00,91.2,64.9,29.82,SE,135,5.6,5.6,42,0.00,,---,0.00,VWS V14.01,2013-05-17 22:44:00,
2013-05-17 17:45:00,91.0,64.8,29.82,South,180,2.9,6.3,42,0.00,,---,0.00,VWS V14.01,2013-05-17 22:45:00,
2013-05-17 17:46:00,91.0,64.8,29.79,South,180,3.6,9.6,42,0.00,,---,0.00,VWS V14.01,2013-05-17 22:46:00,
2013-05-17 17:47:00,91.0,64.8,29.79,South,180,2.7,5.8,42,0.00,,---,0.00,VWS V14.01,2013-05-17 22:47:00,
2013-05-17 17:48:00,91.0,64.8,29.79,SSW,202,4.0,4.0,42,0.00,,---,0.00,VWS V14.01,2013-05-17 22:48:00,
2013-05-17 17:49:00,90.8,64.6,29.79,SSE,158,7.4,7.4,42,0.00,,---,0.00,VWS V14.01,2013-05-17 22:49:00,
2013-05-17 17:50:00,90.8,64.6,29.79,SE,135,3.4,7.4,42,0.00,,---,0.00,VWS V14.01,2013-05-17 22:50:00,
2013-05-17 17:51:00,90.8,64.6,29.79,South,180,2.0,3.4,42,0.00,,---,0.00,VWS V14.01,2013-05-17 22:51:00,
2013-05-17 17:52:00,91.0,65.4,29.79,South,180,3.1,4.7,43,0.00,,---,0.00,VWS V14.01,2013-05-17 22:52:00,
2013-05-17 17:53:00,90.8,65.3,29.79,SSW,202,10.1,10.1,43,0.00,,---,0.00,VWS V14.01,2013-05-17 22:53:00,
2013-05-17 17:54:00,90.8,64.6,29.79,South,180,4.9,10.1,42,0.00,,---,0.00,VWS V14.01,2013-05-17 22:54:00,
2013-05-17 17:55:00,90.7,64.4,29.79,SSE,158,7.6,7.6,42,0.00,,---,0.00,VWS V14.01,2013-05-17 22:55:00,
2013-05-17 17:56:00,90.7,64.4,29.79,South,180,3.4,7.6,42,0.00,,---,0.00,VWS V14.01,2013-05-17 22:56:00,
2013-05-17 17:57:00,90.7,64.4,29.79,South,180,5.6,5.6,42,0.00,,---,0.00,VWS V14.01,2013-05-17 22:57:00,
2013-05-17 17:58:00,90.7,64.4,29.79,SSE,158,1.6,5.6,42,0.00,,---,0.00,VWS V14.01,2013-05-17 22:58:00,
2013-05-17 17:59:00,90.7,64.4,29.79,NW,315,2.9,6.0,42,0.00,,---,0.00,VWS V14.01,2013-05-17 22:59:00,
2013-05-17 18:00:00,90.7,64.4,29.79,SE,135,1.6,2.9,42,0.00,,---,0.00,VWS V14.01,2013-05-17 23:00:00,
2013-05-17 18:01:00,90.7,64.4,29.82,SSE,158,4.9,5.8,42,0.00,,---,0.00,VWS V14.01,2013-05-17 23:01:00,
2013-05-17 18:02:00,90.7,64.4,29.82,ENE,68,3.6,8.5,42,0.00,,---,0.00,VWS V14.01,2013-05-17 23:02:00,
2013-05-17 18:03:00,90.5,64.3,29.82,ESE,112,8.7,8.7,42,0.00,,---,0.00,VWS V14.01,2013-05-17 23:03:00,
2013-05-17 18:04:00,90.5,64.3,29.82,North,0,3.4,8.7,42,0.00,,---,0.00,VWS V14.01,2013-05-17 23:04:00,
2013-05-17 18:05:00,90.5,64.3,29.82,SSE,158,4.3,4.3,42,0.00,,---,0.00,VWS V14.01,2013-05-17 23:05:00,
2013-05-17 18:06:00,90.5,64.3,29.82,WNW,292,2.7,6.5,42,0.00,,---,0.00,VWS V14.01,2013-05-17 23:06:00,
2013-05-17 18:07:00,90.5,64.3,29.82,SE,135,4.3,5.4,42,0.00,,---,0.00,VWS V14.01,2013-05-17 23:07:00,
2013-05-17 18:08:00,90.5,64.3,29.82,SE,135,4.3,7.6,42,0.00,,---,0.00,VWS V14.01,2013-05-17 23:08:00,
2013-05-17 18:09:00,90.3,64.1,29.82,East,90,4.0,4.7,42,0.00,,---,0.00,VWS V14.01,2013-05-17 23:09:00,
2013-05-17 18:10:00,90.1,64.6,29.82,ESE,112,9.0,9.0,43,0.00,,---,0.00,VWS V14.01,2013-05-17 23:10:00,
2013-05-17 18:11:00,89.9,64.5,29.82,South,180,2.7,11.0,43,0.00,,---,0.00,VWS V14.01,2013-05-17 23:11:00,
2013-05-17 18:12:00,89.8,64.3,29.82,SE,135,6.0,6.0,43,0.00,,---,0.00,VWS V14.01,2013-05-17 23:12:00,
2013-05-17 18:13:00,89.4,64.0,29.82,ESE,112,2.9,8.1,43,0.00,,---,0.00,VWS V14.01,2013-05-17 23:13:00,
2013-05-17 18:14:00,89.4,64.0,29.82,SE,135,3.1,4.5,43,0.00,,---,0.00,VWS V14.01,2013-05-17 23:14:00,
2013-05-17 18:15:00,89.4,64.0,29.82,NE,45,4.9,6.3,43,0.00,,---,0.00,VWS V14.01,2013-05-17 23:15:00,
2013-05-17 18:16:00,88.9,63.5,29.82,SSW,202,4.0,4.9,43,0.00,,---,0.00,VWS V14.01,2013-05-17 23:16:00,
2013-05-17 18:17:00,88.9,63.5,29.82,East,90,2.7,4.0,43,0.00,,---,0.00,VWS V14.01,2013-05-17 23:17:00,
2013-05-17 18:18:00,88.7,63.4,29.82,SSW,202,3.1,5.6,43,0.00,,---,0.00,VWS V14.01,2013-05-17 23:18:00,
2013-05-17 18:19:00,88.7,63.4,29.82,SE,135,2.9,3.4,43,0.00,,---,0.00,VWS V14.01,2013-05-17 23:19:00,
2013-05-17 18:20:00,88.7,64.0,29.82,South,180,2.9,4.3,44,0.00,,---,0.00,VWS V14.01,2013-05-17 23:20:00,
2013-05-17 18:21:00,88.7,64.0,29.82,SE,135,1.3,3.6,44,0.00,,---,0.00,VWS V14.01,2013-05-17 23:21:00,
2013-05-17 18:22:00,88.5,63.8,29.82,SE,135,0.9,2.9,44,0.00,,---,0.00,VWS V14.01,2013-05-17 23:22:00,
2013-05-17 18:23:00,88.5,63.8,29.82,East,90,1.6,2.9,44,0.00,,---,0.00,VWS V14.01,2013-05-17 23:23:00,
2013-05-17 18:24:00,88.5,63.8,29.82,ESE,112,1.6,3.8,44,0.00,,---,0.00,VWS V14.01,2013-05-17 23:24:00,
2013-05-17 18:25:00,88.5,64.5,29.82,SE,135,1.6,3.6,45,0.00,,---,0.00,VWS V14.01,2013-05-17 23:25:00,
2013-05-17 18:26:00,88.5,64.5,29.82,SSW,202,4.0,5.6,45,0.00,,---,0.00,VWS V14.01,2013-05-17 23:26:00,
2013-05-17 18:27:00,88.3,64.3,29.82,SE,135,3.1,5.4,45,0.00,,---,0.00,VWS V14.01,2013-05-17 23:27:00,
2013-05-17 18:28:00,88.3,65.0,29.82,South,180,1.3,3.4,46,0.00,,---,0.00,VWS V14.01,2013-05-17 23:28:00,
2013-05-17 18:29:00,88.3,65.0,29.82,SSW,202,2.9,2.9,46,0.00,,---,0.00,VWS V14.01,2013-05-17 23:29:00,
2013-05-17 18:30:00,88.3,65.0,29.82,SSE,158,4.0,4.0,46,0.00,,---,0.00,VWS V14.01,2013-05-17 23:30:00,
2013-05-17 18:31:00,88.2,64.8,29.82,South,180,5.8,5.8,46,0.00,,---,0.00,VWS V14.01,2013-05-17 23:31:00,
2013-05-17 18:32:00,88.3,65.0,29.82,SSW,202,3.1,6.3,46,0.00,,---,0.00,VWS V14.01,2013-05-17 23:32:00,
2013-05-17 18:33:00,88.3,65.0,29.82,SE,135,4.9,5.4,46,0.00,,---,0.00,VWS V14.01,2013-05-17 23:33:00,
2013-05-17 18:34:00,88.3,65.0,29.82,ESE,112,8.1,11.9,46,0.00,,---,0.00,VWS V14.01,2013-05-17 23:34:00,
2013-05-17 18:35:00,88.3,65.0,29.82,East,90,1.1,8.1,46,0.00,,---,0.00,VWS V14.01,2013-05-17 23:35:00,
2013-05-17 18:36:00,88.3,65.0,29.82,SE,135,3.4,3.4,46,0.00,,---,0.00,VWS V14.01,2013-05-17 23:36:00,
2013-05-17 18:37:00,88.3,65.0,29.82,East,90,4.3,4.3,46,0.00,,---,0.00,VWS V14.01,2013-05-17 23:37:00,
2013-05-17 18:38:00,88.3,65.0,29.82,West,270,4.3,4.3,46,0.00,,---,0.00,VWS V14.01,2013-05-17 23:38:00,
2013-05-17 18:39:00,88.5,65.1,29.82,SE,135,4.3,4.3,46,0.00,,---,0.00,VWS V14.01,2013-05-17 23:39:00,
2013-05-17 18:40:00,88.5,65.1,29.82,ESE,112,1.1,4.3,46,0.00,,---,0.00,VWS V14.01,2013-05-17 23:40:00,
2013-05-17 18:41:00,88.5,65.1,29.82,SE,135,3.1,3.1,46,0.00,,---,0.00,VWS V14.01,2013-05-17 23:41:00,
2013-05-17 18:42:00,88.5,65.1,29.82,SE,135,0.9,3.1,46,0.00,,---,0.00,VWS V14.01,2013-05-17 23:42:00,
2013-05-17 18:43:00,88.5,65.1,29.82,SE,135,3.4,5.8,46,0.00,,---,0.00,VWS V14.01,2013-05-17 23:43:00,
2013-05-17 18:44:00,88.5,65.1,29.82,NNE,22,2.5,5.8,46,0.00,,---,0.00,VWS V14.01,2013-05-17 23:44:00,
2013-05-17 18:45:00,88.5,65.1,29.82,East,90,3.6,3.8,46,0.00,,---,0.00,VWS V14.01,2013-05-17 23:45:00,
2013-05-17 18:46:00,88.5,65.1,29.82,SE,135,3.4,4.3,46,0.00,,---,0.00,VWS V14.01,2013-05-17 23:46:00,
2013-05-17 18:47:00,88.5,65.1,29.82,SSW,202,1.6,3.4,46,0.00,,---,0.00,VWS V14.01,2013-05-17 23:47:00,
2013-05-17 18:48:00,88.5,65.1,29.82,ESE,112,3.4,3.4,46,0.00,,---,0.00,VWS V14.01,2013-05-17 23:48:00,
2013-05-17 18:49:00,88.3,65.6,29.82,South,180,1.1,3.4,47,0.00,,---,0.00,VWS V14.01,2013-05-17 23:49:00,
2013-05-17 18:50:00,88.3,65.6,29.82,ENE,68,6.5,6.5,47,0.00,,---,0.00,VWS V14.01,2013-05-17 23:50:00,
2013-05-17 18:51:00,88.3,65.6,29.82,SSE,158,2.5,6.5,47,0.00,,---,0.00,VWS V14.01,2013-05-17 23:51:00,
2013-05-17 18:52:00,88.3,65.6,29.82,SE,135,4.3,4.9,47,0.00,,---,0.00,VWS V14.01,2013-05-17 23:52:00,
2013-05-17 18:53:00,88.3,65.6,29.82,SW,225,2.2,4.3,47,0.00,,---,0.00,VWS V14.01,2013-05-17 23:53:00,
2013-05-17 18:54:00,88.3,65.6,29.82,ESE,112,4.3,7.6,47,0.00,,---,0.00,VWS V14.01,2013-05-17 23:54:00,
2013-05-17 18:55:00,88.2,65.4,29.82,SE,135,4.0,5.8,47,0.00,,---,0.00,VWS V14.01,2013-05-17 23:55:00,
2013-05-17 18:56:00,88.0,65.3,29.82,SW,225,2.7,4.0,47,0.00,,---,0.00,VWS V14.01,2013-05-17 23:56:00,
2013-05-17 18:57:00,88.0,65.3,29.82,SE,135,3.4,4.3,47,0.00,,---,0.00,VWS V14.01,2013-05-17 23:57:00,
2013-05-17 18:58:00,87.8,65.1,29.82,SW,225,4.3,4.3,47,0.00,,---,0.00,VWS V14.01,2013-05-17 23:58:00,
2013-05-17 18:59:00,87.8,65.7,29.82,East,90,3.6,4.3,48,0.00,,---,0.00,VWS V14.01,2013-05-17 23:59:00,
2013-05-17 19:00:00,87.8,65.1,29.82,SE,135,2.7,3.6,47,0.00,,---,0.00,VWS V14.01,2013-05-18 00:00:00,
2013-05-17 19:01:00,87.6,65.5,29.82,SE,135,3.6,5.4,48,0.00,,---,0.00,VWS V14.01,2013-05-18 00:01:00,
2013-05-17 19:02:00,87.5,65.4,29.82,South,180,3.4,5.4,48,0.00,,---,0.00,VWS V14.01,2013-05-18 00:02:00,
2013-05-17 19:03:00,87.5,65.4,29.82,SE,135,2.0,4.0,48,0.00,,---,0.00,VWS V14.01,2013-05-18 00:03:00,
2013-05-17 19:04:00,87.3,65.2,29.82,SSE,158,2.7,3.1,48,0.00,,---,0.00,VWS V14.01,2013-05-18 00:04:00,
2013-05-17 19:05:00,87.3,65.2,29.82,SE,135,2.9,2.9,48,0.00,,---,0.00,VWS V14.01,2013-05-18 00:05:00,
2013-05-17 19:06:00,87.1,65.1,29.82,ENE,68,3.6,3.8,48,0.00,,---,0.00,VWS V14.01,2013-05-18 00:06:00,
2013-05-17 19:07:00,87.1,65.1,29.82,SE,135,5.8,5.8,48,0.00,,---,0.00,VWS V14.01,2013-05-18 00:07:00,
2013-05-17 19:08:00,87.1,65.1,29.82,South,180,2.0,5.8,48,0.00,,---,0.00,VWS V14.01,2013-05-18 00:08:00,
2013-05-17 19:09:00,86.9,65.5,29.82,SSW,202,3.6,3.6,49,0.00,,---,0.00,VWS V14.01,2013-05-18 00:09:00,
2013-05-17 19:10:00,86.8,65.3,29.82,SSE,158,4.5,4.5,49,0.00,,---,0.00,VWS V14.01,2013-05-18 00:10:00,
2013-05-17 19:11:00,86.8,65.3,29.82,SE,135,3.1,6.0,49,0.00,,---,0.00,VWS V14.01,2013-05-18 00:11:00,
2013-05-17 19:12:00,86.6,65.2,29.82,South,180,1.6,6.0,49,0.00,,---,0.00,VWS V14.01,2013-05-18 00:12:00,
2013-05-17 19:13:00,86.6,65.2,29.82,SE,135,1.1,6.0,49,0.00,,---,0.00,VWS V14.01,2013-05-18 00:13:00,
2013-05-17 19:14:00,86.4,65.0,29.82,ESE,112,7.8,7.8,49,0.00,,---,0.00,VWS V14.01,2013-05-18 00:14:00,
2013-05-17 19:15:00,86.4,65.0,29.82,ENE,68,3.1,7.8,49,0.00,,---,0.00,VWS V14.01,2013-05-18 00:15:00,
2013-05-17 19:16:00,86.4,65.0,29.82,East,90,2.7,3.1,49,0.00,,---,0.00,VWS V14.01,2013-05-18 00:16:00,
2013-05-17 19:17:00,86.2,64.8,29.82,SSW,202,2.2,4.9,49,0.00,,---,0.00,VWS V14.01,2013-05-18 00:17:00,
2013-05-17 19:18:00,86.1,65.3,29.82,SSE,158,2.5,2.7,50,0.00,,---,0.00,VWS V14.01,2013-05-18 00:18:00,
2013-05-17 19:19:00,86.1,65.3,29.82,South,180,3.8,5.4,50,0.00,,---,0.00,VWS V14.01,2013-05-18 00:19:00,
2013-05-17 19:20:00,86.1,65.3,29.82,SSW,202,4.3,5.4,50,0.00,,---,0.00,VWS V14.01,2013-05-18 00:20:00,
2013-05-17 19:21:00,86.1,65.3,29.82,SE,135,2.9,4.3,50,0.00,,---,0.00,VWS V14.01,2013-05-18 00:21:00,
2013-05-17 19:22:00,85.9,65.1,29.82,South,180,2.0,2.9,50,0.00,,---,0.00,VWS V14.01,2013-05-18 00:22:00,
2013-05-17 19:23:00,85.9,65.1,29.82,ESE,112,2.7,2.9,50,0.00,,---,0.00,VWS V14.01,2013-05-18 00:23:00,
2013-05-17 19:24:00,85.7,64.9,29.82,ESE,112,0.0,2.7,50,0.00,,---,0.00,VWS V14.01,2013-05-18 00:24:00,
2013-05-17 19:25:00,85.5,65.3,29.82,East,90,1.1,4.3,51,0.00,,---,0.00,VWS V14.01,2013-05-18 00:25:00,
2013-05-17 19:26:00,85.5,65.3,29.82,SSE,158,1.6,2.9,51,0.00,,---,0.00,VWS V14.01,2013-05-18 00:26:00,
2013-05-17 19:27:00,85.3,65.2,29.82,ESE,112,0.9,1.6,51,0.00,,---,0.00,VWS V14.01,2013-05-18 00:27:00,
2013-05-17 19:28:00,85.3,65.2,29.82,South,180,1.3,3.6,51,0.00,,---,0.00,VWS V14.01,2013-05-18 00:28:00,
2013-05-17 19:29:00,85.2,65.0,29.82,SSW,202,2.0,2.0,51,0.00,,---,0.00,VWS V14.01,2013-05-18 00:29:00,
2013-05-17 19:30:00,85.2,65.0,29.82,SSW,202,2.9,2.9,51,0.00,,---,0.00,VWS V14.01,2013-05-18 00:30:00,
2013-05-17 19:31:00,85.0,64.8,29.85,SSE,158,0.0,2.9,51,0.00,,---,0.00,VWS V14.01,2013-05-18 00:31:00,
2013-05-17 19:32:00,85.0,64.8,29.85,ENE,68,0.0,2.9,51,0.00,,---,0.00,VWS V14.01,2013-05-18 00:32:00,
2013-05-17 19:33:00,84.8,65.2,29.85,South,180,0.0,0.0,52,0.00,,---,0.00,VWS V14.01,2013-05-18 00:33:00,
2013-05-17 19:34:00,84.8,65.2,29.85,East,90,0.0,1.3,52,0.00,,---,0.00,VWS V14.01,2013-05-18 00:34:00,
2013-05-17 19:35:00,84.6,65.1,29.85,SE,135,0.0,1.3,52,0.00,,---,0.00,VWS V14.01,2013-05-18 00:35:00,
2013-05-17 19:36:00,84.6,65.1,29.85,ESE,112,1.1,2.9,52,0.00,,---,0.00,VWS V14.01,2013-05-18 00:36:00,
2013-05-17 19:37:00,84.4,65.5,29.85,SE,135,0.0,1.6,53,0.00,,---,0.00,VWS V14.01,2013-05-18 00:37:00,
2013-05-17 19:38:00,84.4,65.5,29.85,SE,135,4.3,4.3,53,0.00,,---,0.00,VWS V14.01,2013-05-18 00:38:00,
2013-05-17 19:39:00,84.4,65.5,29.85,SSW,202,2.9,4.3,53,0.00,,---,0.00,VWS V14.01,2013-05-18 00:39:00,
2013-05-17 19:40:00,84.3,65.3,29.85,SE,135,1.3,2.9,53,0.00,,---,0.00,VWS V14.01,2013-05-18 00:40:00,
2013-05-17 19:41:00,84.3,65.8,29.85,SE,135,4.7,4.7,54,0.00,,---,0.00,VWS V14.01,2013-05-18 00:41:00,
2013-05-17 19:42:00,84.3,65.8,29.85,East,90,1.3,4.7,54,0.00,,---,0.00,VWS V14.01,2013-05-18 00:42:00,
2013-05-17 19:43:00,84.3,65.8,29.85,ESE,112,1.1,3.8,54,0.00,,---,0.00,VWS V14.01,2013-05-18 00:43:00,
2013-05-17 19:44:00,84.3,65.8,29.85,South,180,2.5,3.4,54,0.00,,---,0.00,VWS V14.01,2013-05-18 00:44:00,
2013-05-17 19:45:00,84.3,65.8,29.85,South,180,3.1,3.4,54,0.00,,---,0.00,VWS V14.01,2013-05-18 00:45:00,
2013-05-17 19:46:00,84.1,66.2,29.85,ESE,112,2.7,3.4,55,0.00,,---,0.00,VWS V14.01,2013-05-18 00:46:00,
2013-05-17 19:47:00,84.1,65.7,29.85,SE,135,2.0,3.6,54,0.00,,---,0.00,VWS V14.01,2013-05-18 00:47:00,
2013-05-17 19:48:00,84.1,66.2,29.85,SSE,158,1.6,3.4,55,0.00,,---,0.00,VWS V14.01,2013-05-18 00:48:00,
2013-05-17 19:49:00,84.1,65.7,29.85,SW,225,1.3,3.1,54,0.00,,---,0.00,VWS V14.01,2013-05-18 00:49:00,
2013-05-17 19:50:00,83.9,66.0,29.85,East,90,1.6,1.6,55,0.00,,---,0.00,VWS V14.01,2013-05-18 00:50:00,
2013-05-17 19:51:00,83.9,66.0,29.85,SSE,158,0.9,2.0,55,0.00,,---,0.00,VWS V14.01,2013-05-18 00:51:00,
2013-05-17 19:52:00,83.9,66.0,29.85,SE,135,2.0,3.6,55,0.00,,---,0.00,VWS V14.01,2013-05-18 00:52:00,
2013-05-17 19:53:00,83.7,65.9,29.85,SE,135,2.9,2.9,55,0.00,,---,0.00,VWS V14.01,2013-05-18 00:53:00,
2013-05-17 19:54:00,83.7,66.4,29.85,NW,315,1.6,2.9,56,0.00,,---,0.00,VWS V14.01,2013-05-18 00:54:00,
2013-05-17 19:55:00,83.6,66.2,29.85,SSE,158,3.1,3.4,56,0.00,,---,0.00,VWS V14.01,2013-05-18 00:55:00,
2013-05-17 19:56:00,83.6,66.2,29.85,SW,225,1.1,3.1,56,0.00,,---,0.00,VWS V14.01,2013-05-18 00:56:00,
2013-05-17 19:57:00,83.4,66.1,29.85,SE,135,1.3,1.3,56,0.00,,---,0.00,VWS V14.01,2013-05-18 00:57:00,
2013-05-17 19:58:00,83.4,66.1,29.85,NNW,338,2.5,2.5,56,0.00,,---,0.00,VWS V14.01,2013-05-18 00:58:00,
2013-05-17 19:59:00,83.4,66.6,29.85,SE,135,3.4,4.3,57,0.00,,---,0.00,VWS V14.01,2013-05-18 00:59:00,
2013-05-17 20:00:00,83.2,66.4,29.85,East,90,0.9,3.4,57,0.00,,---,0.00,VWS V14.01,2013-05-18 01:00:00,
2013-05-17 20:01:00,83.2,66.4,29.85,East,90,1.6,2.0,57,0.00,,---,0.00,VWS V14.01,2013-05-18 01:01:00,
2013-05-17 20:02:00,83.2,66.4,29.85,South,180,1.6,2.9,57,0.00,,---,0.00,VWS V14.01,2013-05-18 01:02:00,
2013-05-17 20:03:00,83.2,66.4,29.85,South,180,2.0,4.3,57,0.00,,---,0.00,VWS V14.01,2013-05-18 01:03:00,
2013-05-17 20:04:00,83.0,66.7,29.85,South,180,4.9,4.9,58,0.00,,---,0.00,VWS V14.01,2013-05-18 01:04:00,
2013-05-17 20:05:00,83.2,66.9,29.85,SSE,158,2.9,4.9,58,0.00,,---,0.00,VWS V14.01,2013-05-18 01:05:00,
2013-05-17 20:06:00,83.2,66.9,29.85,South,180,4.0,5.8,58,0.00,,---,0.00,VWS V14.01,2013-05-18 01:06:00,
2013-05-17 20:07:00,83.2,66.9,29.85,South,180,3.1,4.0,58,0.00,,---,0.00,VWS V14.01,2013-05-18 01:07:00,
2013-05-17 20:08:00,83.2,66.9,29.85,SW,225,4.0,4.0,58,0.00,,---,0.00,VWS V14.01,2013-05-18 01:08:00,
2013-05-17 20:09:00,83.2,66.9,29.85,ESE,112,1.6,4.0,58,0.00,,---,0.00,VWS V14.01,2013-05-18 01:09:00,
2013-05-17 20:10:00,83.2,66.9,29.85,SE,135,6.3,6.3,58,0.00,,---,0.00,VWS V14.01,2013-05-18 01:10:00,
2013-05-17 20:11:00,83.2,67.4,29.85,ESE,112,1.6,6.3,59,0.00,,---,0.00,VWS V14.01,2013-05-18 01:11:00,
2013-05-17 20:12:00,83.2,67.4,29.85,South,180,3.6,3.6,59,0.00,,---,0.00,VWS V14.01,2013-05-18 01:12:00,
2013-05-17 20:13:00,83.2,67.4,29.85,SE,135,9.6,10.1,59,0.00,,---,0.00,VWS V14.01,2013-05-18 01:13:00,
2013-05-17 20:14:00,83.2,67.4,29.85,ESE,112,1.3,9.6,59,0.00,,---,0.00,VWS V14.01,2013-05-18 01:14:00,
2013-05-17 20:15:00,83.2,67.4,29.85,ESE,112,2.9,5.6,59,0.00,,---,0.00,VWS V14.01,2013-05-18 01:15:00,
2013-05-17 20:16:00,83.2,67.4,29.88,SSW,202,7.8,7.8,59,0.00,,---,0.00,VWS V14.01,2013-05-18 01:16:00,
2013-05-17 20:17:00,83.4,68.1,29.88,SE,135,4.7,7.8,60,0.00,,---,0.00,VWS V14.01,2013-05-18 01:17:00,
2013-05-17 20:18:00,83.4,68.1,29.88,SW,225,6.0,7.8,60,0.00,,---,0.00,VWS V14.01,2013-05-18 01:18:00,
2013-05-17 20:19:00,83.4,68.1,29.88,ESE,112,6.3,6.3,60,0.00,,---,0.00,VWS V14.01,2013-05-18 01:19:00,
2013-05-17 20:20:00,83.2,67.9,29.88,East,90,2.7,6.5,60,0.00,,---,0.00,VWS V14.01,2013-05-18 01:20:00,
2013-05-17 20:21:00,83.2,67.9,29.88,SE,135,3.8,5.4,60,0.00,,---,0.00,VWS V14.01,2013-05-18 01:21:00,
2013-05-17 20:22:00,83.2,67.9,29.88,SSE,158,4.3,9.0,60,0.00,,---,0.00,VWS V14.01,2013-05-18 01:22:00,
2013-05-17 20:23:00,83.2,67.9,29.88,South,180,7.2,8.1,60,0.00,,---,0.00,VWS V14.01,2013-05-18 01:23:00,
2013-05-17 20:24:00,83.0,68.2,29.88,West,270,4.9,7.4,61,0.00,,---,0.00,VWS V14.01,2013-05-18 01:24:00,
2013-05-17 20:25:00,83.0,68.2,29.88,East,90,1.3,4.9,61,0.00,,---,0.00,VWS V14.01,2013-05-18 01:25:00,
2013-05-17 20:26:00,83.0,68.2,29.88,SE,135,2.5,6.3,61,0.00,,---,0.00,VWS V14.01,2013-05-18 01:26:00,
2013-05-17 20:27:00,82.9,68.0,29.88,SW,225,2.0,2.5,61,0.00,,---,0.00,VWS V14.01,2013-05-18 01:27:00,
2013-05-17 20:28:00,82.9,68.0,29.88,South,180,3.1,4.0,61,0.00,,---,0.00,VWS V14.01,2013-05-18 01:28:00,
2013-05-17 20:29:00,82.9,68.0,29.88,East,90,5.8,6.9,61,0.00,,---,0.00,VWS V14.01,2013-05-18 01:29:00,
2013-05-17 20:30:00,82.9,68.5,29.88,ESE,112,4.0,5.8,62,0.00,,---,0.00,VWS V14.01,2013-05-18 01:30:00,
2013-05-17 20:31:00,82.7,68.3,29.88,South,180,4.0,4.0,62,0.00,,---,0.00,VWS V14.01,2013-05-18 01:31:00,
2013-05-17 20:32:00,82.7,68.3,29.88,ESE,112,5.4,7.6,62,0.00,,---,0.00,VWS V14.01,2013-05-18 01:32:00,
2013-05-17 20:33:00,82.7,68.3,29.88,SE,135,4.0,7.6,62,0.00,,---,0.00,VWS V14.01,2013-05-18 01:33:00,
2013-05-17 20:34:00,82.5,68.2,29.88,SE,135,7.4,7.4,62,0.00,,---,0.00,VWS V14.01,2013-05-18 01:34:00,
2013-05-17 20:35:00,82.5,68.2,29.88,SE,135,1.6,7.4,62,0.00,,---,0.00,VWS V14.01,2013-05-18 01:35:00,
2013-05-17 20:36:00,82.5,68.2,29.88,SW,225,7.6,7.6,62,0.00,,---,0.00,VWS V14.01,2013-05-18 01:36:00,
2013-05-17 20:37:00,82.5,68.2,29.88,ESE,112,6.3,7.6,62,0.00,,---,0.00,VWS V14.01,2013-05-18 01:37:00,
2013-05-17 20:38:00,82.5,68.2,29.88,NNW,338,5.8,7.2,62,0.00,,---,0.00,VWS V14.01,2013-05-18 01:38:00,
2013-05-17 20:39:00,82.3,68.0,29.88,ESE,112,2.0,7.6,62,0.00,,---,0.00,VWS V14.01,2013-05-18 01:39:00,
2013-05-17 20:40:00,82.3,68.0,29.88,SSE,158,2.9,4.9,62,0.00,,---,0.00,VWS V14.01,2013-05-18 01:40:00,
2013-05-17 20:41:00,82.3,68.5,29.88,South,180,1.6,3.8,63,0.00,,---,0.00,VWS V14.01,2013-05-18 01:41:00,
2013-05-17 20:42:00,82.2,68.3,29.88,SW,225,2.7,3.1,63,0.00,,---,0.00,VWS V14.01,2013-05-18 01:42:00,
2013-05-17 20:43:00,82.2,68.3,29.88,South,180,2.5,5.4,63,0.00,,---,0.00,VWS V14.01,2013-05-18 01:43:00,
2013-05-17 20:44:00,82.2,68.3,29.88,SE,135,3.4,3.4,63,0.00,,---,0.00,VWS V14.01,2013-05-18 01:44:00,
2013-05-17 20:45:00,82.2,68.3,29.88,SE,135,2.0,7.4,63,0.00,,---,0.00,VWS V14.01,2013-05-18 01:45:00,
2013-05-17 20:46:00,82.2,68.3,29.85,East,90,2.7,2.7,63,0.00,,---,0.00,VWS V14.01,2013-05-18 01:46:00,
2013-05-17 20:47:00,81.8,68.0,29.85,South,180,2.0,3.4,63,0.00,,---,0.00,VWS V14.01,2013-05-18 01:47:00,
2013-05-17 20:48:00,81.8,68.0,29.85,South,180,5.6,5.6,63,0.00,,---,0.00,VWS V14.01,2013-05-18 01:48:00,
2013-05-17 20:49:00,81.8,68.0,29.85,SE,135,3.6,5.6,63,0.00,,---,0.00,VWS V14.01,2013-05-18 01:49:00,
2013-05-17 20:50:00,81.8,68.0,29.85,South,180,1.6,3.6,63,0.00,,---,0.00,VWS V14.01,2013-05-18 01:50:00,
2013-05-17 20:51:00,81.8,68.4,29.85,SSW,202,2.7,4.9,64,0.00,,---,0.00,VWS V14.01,2013-05-18 01:51:00,
2013-05-17 20:52:00,81.6,68.3,29.85,SE,135,3.1,7.2,64,0.00,,---,0.00,VWS V14.01,2013-05-18 01:52:00,
2013-05-17 20:53:00,81.6,68.3,29.85,SSE,158,6.3,7.8,64,0.00,,---,0.00,VWS V14.01,2013-05-18 01:53:00,
2013-05-17 20:54:00,81.4,68.1,29.85,SE,135,2.7,6.3,64,0.00,,---,0.00,VWS V14.01,2013-05-18 01:54:00,
2013-05-17 20:55:00,81.4,68.1,29.85,East,90,2.5,3.8,64,0.00,,---,0.00,VWS V14.01,2013-05-18 01:55:00,
2013-05-17 20:56:00,81.3,67.9,29.85,SE,135,3.6,3.8,64,0.00,,---,0.00,VWS V14.01,2013-05-18 01:56:00,
2013-05-17 20:57:00,81.3,67.9,29.85,East,90,2.9,3.6,64,0.00,,---,0.00,VWS V14.01,2013-05-18 01:57:00,
2013-05-17 20:58:00,81.3,67.9,29.85,East,90,5.4,5.4,64,0.00,,---,0.00,VWS V14.01,2013-05-18 01:58:00,
2013-05-17 20:59:00,81.3,67.9,29.85,SSE,158,3.8,6.0,64,0.00,,---,0.00,VWS V14.01,2013-05-18 01:59:00,
2013-05-17 21:00:00,81.1,68.2,29.85,South,180,2.9,3.8,65,0.00,,---,0.00,VWS V14.01,2013-05-18 02:00:00,
2013-05-17 21:01:00,80.9,68.1,29.88,South,180,6.0,6.0,65,0.00,,---,0.00,VWS V14.01,2013-05-18 02:01:00,
2013-05-17 21:02:00,80.9,68.5,29.88,East,90,6.3,7.6,66,0.00,,---,0.00,VWS V14.01,2013-05-18 02:02:00,
2013-05-17 21:03:00,80.9,68.5,29.88,SSE,158,4.0,6.5,66,0.00,,---,0.00,VWS V14.01,2013-05-18 02:03:00,
2013-05-17 21:04:00,80.9,68.5,29.88,SSE,158,3.6,5.8,66,0.00,,---,0.00,VWS V14.01,2013-05-18 02:04:00,
2013-05-17 21:05:00,80.9,68.5,29.88,SE,135,9.2,9.2,66,0.00,,---,0.00,VWS V14.01,2013-05-18 02:05:00,
2013-05-17 21:06:00,80.9,68.5,29.88,SE,135,6.3,10.7,66,0.00,,---,0.00,VWS V14.01,2013-05-18 02:06:00,
2013-05-17 21:07:00,80.9,68.5,29.88,East,90,7.8,7.8,66,0.00,,---,0.00,VWS V14.01,2013-05-18 02:07:00,
2013-05-17 21:08:00,80.7,68.3,29.88,SSW,202,7.4,7.8,66,0.00,,---,0.00,VWS V14.01,2013-05-18 02:08:00,
2013-05-17 21:09:00,80.7,68.3,29.88,South,180,6.0,10.3,66,0.00,,---,0.00,VWS V14.01,2013-05-18 02:09:00,
2013-05-17 21:10:00,80.7,68.3,29.88,ESE,112,7.8,7.8,66,0.00,,---,0.00,VWS V14.01,2013-05-18 02:10:00,
2013-05-17 21:11:00,80.7,68.3,29.88,East,90,6.0,7.8,66,0.00,,---,0.00,VWS V14.01,2013-05-18 02:11:00,
2013-05-17 21:12:00,80.6,68.2,29.88,East,90,6.0,6.0,66,0.00,,---,0.00,VWS V14.01,2013-05-18 02:12:00,
2013-05-17 21:13:00,80.6,68.6,29.88,SE,135,3.8,8.1,67,0.00,,---,0.00,VWS V14.01,2013-05-18 02:13:00,
2013-05-17 21:14:00,80.6,68.6,29.88,ESE,112,3.6,6.0,67,0.00,,---,0.00,VWS V14.01,2013-05-18 02:14:00,
2013-05-17 21:15:00,80.6,68.6,29.88,East,90,6.5,6.5,67,0.00,,---,0.00,VWS V14.01,2013-05-18 02:15:00,
2013-05-17 21:16:00,80.4,68.4,29.88,South,180,8.1,8.1,67,0.00,,---,0.00,VWS V14.01,2013-05-18 02:16:00,
2013-05-17 21:17:00,80.4,68.4,29.88,SSW,202,7.4,8.5,67,0.00,,---,0.00,VWS V14.01,2013-05-18 02:17:00,
2013-05-17 21:18:00,80.4,68.4,29.88,ESE,112,6.9,7.8,67,0.00,,---,0.00,VWS V14.01,2013-05-18 02:18:00,
2013-05-17 21:19:00,80.4,68.4,29.88,SE,135,4.0,8.1,67,0.00,,---,0.00,VWS V14.01,2013-05-18 02:19:00,
2013-05-17 21:20:00,80.2,68.2,29.88,ENE,68,6.0,6.0,67,0.00,,---,0.00,VWS V14.01,2013-05-18 02:20:00,
2013-05-17 21:21:00,80.2,68.2,29.88,SE,135,2.9,6.0,67,0.00,,---,0.00,VWS V14.01,2013-05-18 02:21:00,
2013-05-17 21:22:00,80.2,68.2,29.88,ESE,112,2.5,4.3,67,0.00,,---,0.00,VWS V14.01,2013-05-18 02:22:00,
2013-05-17 21:23:00,80.2,68.2,29.88,SSW,202,3.1,8.7,67,0.00,,---,0.00,VWS V14.01,2013-05-18 02:23:00,
2013-05-17 21:24:00,80.0,68.5,29.88,SE,135,4.3,6.3,68,0.00,,---,0.00,VWS V14.01,2013-05-18 02:24:00,
2013-05-17 21:25:00,79.8,68.3,29.88,SE,135,1.6,9.6,68,0.00,,---,0.00,VWS V14.01,2013-05-18 02:25:00,
2013-05-17 21:26:00,79.8,68.3,29.88,East,90,8.1,8.1,68,0.00,,---,0.00,VWS V14.01,2013-05-18 02:26:00,
2013-05-17 21:27:00,79.8,68.3,29.88,East,90,5.8,8.1,68,0.00,,---,0.00,VWS V14.01,2013-05-18 02:27:00,
2013-05-17 21:28:00,79.8,68.3,29.88,WSW,248,5.6,6.3,68,0.00,,---,0.00,VWS V14.01,2013-05-18 02:28:00,
2013-05-17 21:29:00,79.8,68.3,29.88,SE,135,4.0,7.4,68,0.00,,---,0.00,VWS V14.01,2013-05-18 02:29:00,
2013-05-17 21:30:00,79.7,68.2,29.88,South,180,5.4,7.6,68,0.00,,---,0.00,VWS V14.01,2013-05-18 02:30:00,
2013-05-17 21:31:00,79.7,68.6,29.88,East,90,5.4,7.4,69,0.00,,---,0.00,VWS V14.01,2013-05-18 02:31:00,
2013-05-17 21:32:00,79.7,68.6,29.88,South,180,7.4,7.4,69,0.00,,---,0.00,VWS V14.01,2013-05-18 02:32:00,
2013-05-17 21:33:00,79.5,68.4,29.88,East,90,4.3,7.4,69,0.00,,---,0.00,VWS V14.01,2013-05-18 02:33:00,
2013-05-17 21:34:00,79.5,68.4,29.88,West,270,4.0,7.4,69,0.00,,---,0.00,VWS V14.01,2013-05-18 02:34:00,
2013-05-17 21:35:00,79.5,68.4,29.88,SSW,202,2.5,4.0,69,0.00,,---,0.00,VWS V14.01,2013-05-18 02:35:00,
2013-05-17 21:36:00,79.5,68.4,29.88,ESE,112,2.9,9.0,69,0.00,,---,0.00,VWS V14.01,2013-05-18 02:36:00,
2013-05-17 21:37:00,79.3,68.3,29.88,SE,135,4.0,4.0,69,0.00,,---,0.00,VWS V14.01,2013-05-18 02:37:00,
2013-05-17 21:38:00,79.3,68.7,29.88,SW,225,5.4,6.5,70,0.00,,---,0.00,VWS V14.01,2013-05-18 02:38:00,
2013-05-17 21:39:00,79.3,68.7,29.88,East,90,7.8,7.8,70,0.00,,---,0.00,VWS V14.01,2013-05-18 02:39:00,
2013-05-17 21:40:00,79.3,68.7,29.88,ESE,112,8.7,8.7,70,0.00,,---,0.00,VWS V14.01,2013-05-18 02:40:00,
2013-05-17 21:41:00,79.1,68.5,29.88,South,180,4.3,8.7,70,0.00,,---,0.00,VWS V14.01,2013-05-18 02:41:00,
2013-05-17 21:42:00,79.1,68.9,29.88,SE,135,3.1,4.3,71,0.00,,---,0.00,VWS V14.01,2013-05-18 02:42:00,
2013-05-17 21:43:00,79.1,68.9,29.88,SE,135,3.8,8.1,71,0.00,,---,0.00,VWS V14.01,2013-05-18 02:43:00,
2013-05-17 21:44:00,79.1,68.9,29.88,SE,135,3.6,7.2,71,0.00,,---,0.00,VWS V14.01,2013-05-18 02:44:00,
2013-05-17 21:45:00,79.1,68.9,29.88,East,90,5.8,6.3,71,0.00,,---,0.00,VWS V14.01,2013-05-18 02:45:00,
2013-05-17 21:46:00,78.9,68.8,29.91,ESE,112,2.2,6.5,71,0.00,,---,0.00,VWS V14.01,2013-05-18 02:46:00,
2013-05-17 21:47:00,78.9,68.8,29.91,SE,135,1.1,2.2,71,0.00,,---,0.00,VWS V14.01,2013-05-18 02:47:00,
2013-05-17 21:48:00,78.9,68.8,29.91,SW,225,5.6,5.8,71,0.00,,---,0.00,VWS V14.01,2013-05-18 02:48:00,
2013-05-17 21:49:00,78.8,68.6,29.91,ESE,112,7.4,7.4,71,0.00,,---,0.00,VWS V14.01,2013-05-18 02:49:00,
2013-05-17 21:50:00,78.8,68.6,29.91,SE,135,2.2,7.4,71,0.00,,---,0.00,VWS V14.01,2013-05-18 02:50:00,
2013-05-17 21:51:00,78.8,68.6,29.91,ESE,112,2.9,6.5,71,0.00,,---,0.00,VWS V14.01,2013-05-18 02:51:00,
2013-05-17 21:52:00,78.8,68.6,29.91,ESE,112,4.3,5.4,71,0.00,,---,0.00,VWS V14.01,2013-05-18 02:52:00,
2013-05-17 21:53:00,78.8,68.6,29.91,ENE,68,3.8,7.8,71,0.00,,---,0.00,VWS V14.01,2013-05-18 02:53:00,
2013-05-17 21:54:00,78.6,68.4,29.91,South,180,3.6,4.9,71,0.00,,---,0.00,VWS V14.01,2013-05-18 02:54:00,
2013-05-17 21:55:00,78.6,68.4,29.91,South,180,3.1,4.3,71,0.00,,---,0.00,VWS V14.01,2013-05-18 02:55:00,
2013-05-17 21:56:00,78.6,68.4,29.91,East,90,1.3,3.8,71,0.00,,---,0.00,VWS V14.01,2013-05-18 02:56:00,
2013-05-17 21:57:00,78.4,68.2,29.91,ESE,112,5.6,6.5,71,0.00,,---,0.00,VWS V14.01,2013-05-18 02:57:00,
2013-05-17 21:58:00,78.4,68.7,29.91,SE,135,8.1,8.1,72,0.00,,---,0.00,VWS V14.01,2013-05-18 02:58:00,
2013-05-17 21:59:00,78.4,68.7,29.91,SW,225,4.9,9.8,72,0.00,,---,0.00,VWS V14.01,2013-05-18 02:59:00,
2013-05-17 22:00:00,78.4,68.7,29.91,South,180,3.8,4.9,72,0.00,,---,0.00,VWS V14.01,2013-05-18 03:00:00,
2013-05-17 22:01:00,78.4,68.7,29.91,SSW,202,4.3,4.3,72,0.00,,---,0.00,VWS V14.01,2013-05-18 03:01:00,
2013-05-17 22:02:00,78.4,68.7,29.91,SE,135,6.5,8.5,72,0.00,,---,0.00,VWS V14.01,2013-05-18 03:02:00,
2013-05-17 22:03:00,78.4,68.7,29.91,SE,135,7.6,8.1,72,0.00,,---,0.00,VWS V14.01,2013-05-18 03:03:00,
2013-05-17 22:04:00,78.2,68.5,29.91,ESE,112,5.6,7.6,72,0.00,,---,0.00,VWS V14.01,2013-05-18 03:04:00,
2013-05-17 22:05:00,78.2,68.5,29.91,SSW,202,2.5,5.6,72,0.00,,---,0.00,VWS V14.01,2013-05-18 03:05:00,
2013-05-17 22:06:00,78.2,68.5,29.91,SE,135,3.8,6.5,72,0.00,,---,0.00,VWS V14.01,2013-05-18 03:06:00,
2013-05-17 22:07:00,78.2,68.5,29.91,SE,135,1.6,7.4,72,0.00,,---,0.00,VWS V14.01,2013-05-18 03:07:00,
2013-05-17 22:08:00,78.1,68.3,29.91,East,90,3.8,3.8,72,0.00,,---,0.00,VWS V14.01,2013-05-18 03:08:00,
2013-05-17 22:09:00,78.1,68.3,29.91,East,90,8.1,8.1,72,0.00,,---,0.00,VWS V14.01,2013-05-18 03:09:00,
2013-05-17 22:10:00,78.1,68.7,29.91,East,90,3.4,8.1,73,0.00,,---,0.00,VWS V14.01,2013-05-18 03:10:00,
2013-05-17 22:11:00,78.1,68.7,29.91,SE,135,1.1,6.5,73,0.00,,---,0.00,VWS V14.01,2013-05-18 03:11:00,
2013-05-17 22:12:00,78.1,68.7,29.91,SSE,158,4.7,4.7,73,0.00,,---,0.00,VWS V14.01,2013-05-18 03:12:00,
2013-05-17 22:13:00,77.9,68.6,29.91,SSE,158,3.1,4.7,73,0.00,,---,0.00,VWS V14.01,2013-05-18 03:13:00,
2013-05-17 22:14:00,77.9,68.6,29.91,ENE,68,4.9,6.5,73,0.00,,---,0.00,VWS V14.01,2013-05-18 03:14:00,
2013-05-17 22:15:00,77.9,68.6,29.91,NNE,22,0.9,4.9,73,0.00,,---,0.00,VWS V14.01,2013-05-18 03:15:00,
2013-05-17 22:16:00,77.7,68.8,29.91,ESE,112,1.6,4.0,74,0.00,,---,0.00,VWS V14.01,2013-05-18 03:16:00,
2013-05-17 22:17:00,77.7,68.8,29.91,East,90,13.0,13.0,74,0.00,,---,0.00,VWS V14.01,2013-05-18 03:17:00,
2013-05-17 22:18:00,77.7,68.8,29.91,East,90,6.9,13.0,74,0.00,,---,0.00,VWS V14.01,2013-05-18 03:18:00,
2013-05-17 22:19:00,77.7,68.8,29.91,South,180,2.2,8.1,74,0.00,,---,0.00,VWS V14.01,2013-05-18 03:19:00,
2013-05-17 22:20:00,77.7,68.8,29.91,SSE,158,4.3,6.0,74,0.00,,---,0.00,VWS V14.01,2013-05-18 03:20:00,
2013-05-17 22:21:00,77.7,68.8,29.91,ENE,68,5.4,5.8,74,0.00,,---,0.00,VWS V14.01,2013-05-18 03:21:00,
2013-05-17 22:22:00,77.7,68.8,29.91,SSE,158,6.0,6.0,74,0.00,,---,0.00,VWS V14.01,2013-05-18 03:22:00,
2013-05-17 22:23:00,77.7,68.8,29.91,South,180,4.5,7.4,74,0.00,,---,0.00,VWS V14.01,2013-05-18 03:23:00,
2013-05-17 22:24:00,77.5,68.6,29.91,South,180,1.6,4.5,74,0.00,,---,0.00,VWS V14.01,2013-05-18 03:24:00,
2013-05-17 22:25:00,77.5,68.6,29.91,ESE,112,5.4,5.4,74,0.00,,---,0.00,VWS V14.01,2013-05-18 03:25:00,
2013-05-17 22:26:00,77.5,68.6,29.91,SSW,202,4.0,5.4,74,0.00,,---,0.00,VWS V14.01,2013-05-18 03:26:00,
2013-05-17 22:27:00,77.4,68.4,29.91,SE,135,7.6,7.6,74,0.00,,---,0.00,VWS V14.01,2013-05-18 03:27:00,
2013-05-17 22:28:00,77.4,68.4,29.91,East,90,9.6,9.6,74,0.00,,---,0.00,VWS V14.01,2013-05-18 03:28:00,
2013-05-17 22:29:00,77.4,68.8,29.91,East,90,6.9,9.6,75,0.00,,---,0.00,VWS V14.01,2013-05-18 03:29:00,
2013-05-17 22:30:00,77.4,68.4,29.91,South,180,4.3,7.4,74,0.00,,---,0.00,VWS V14.01,2013-05-18 03:30:00,
2013-05-17 22:31:00,77.4,68.4,29.91,SSW,202,4.7,6.9,74,0.00,,---,0.00,VWS V14.01,2013-05-18 03:31:00,
2013-05-17 22:32:00,77.4,68.4,29.91,SE,135,1.6,6.3,74,0.00,,---,0.00,VWS V14.01,2013-05-18 03:32:00,
2013-05-17 22:33:00,77.4,68.4,29.91,SE,135,0.9,3.4,74,0.00,,---,0.00,VWS V14.01,2013-05-18 03:33:00,
2013-05-17 22:34:00,77.2,68.7,29.91,SSW,202,4.0,7.4,75,0.00,,---,0.00,VWS V14.01,2013-05-18 03:34:00,
2013-05-17 22:35:00,77.2,68.7,29.91,East,90,3.6,10.1,75,0.00,,---,0.00,VWS V14.01,2013-05-18 03:35:00,
2013-05-17 22:36:00,77.2,68.7,29.91,South,180,3.1,5.8,75,0.00,,---,0.00,VWS V14.01,2013-05-18 03:36:00,
2013-05-17 22:37:00,77.2,68.7,29.91,SE,135,1.1,3.6,75,0.00,,---,0.00,VWS V14.01,2013-05-18 03:37:00,
2013-05-17 22:38:00,77.0,68.5,29.91,East,90,2.7,5.4,75,0.00,,---,0.00,VWS V14.01,2013-05-18 03:38:00,
2013-05-17 22:39:00,77.0,68.5,29.91,SSE,158,6.5,6.5,75,0.00,,---,0.00,VWS V14.01,2013-05-18 03:39:00,
2013-05-17 22:40:00,77.0,68.5,29.91,SSW,202,3.4,6.5,75,0.00,,---,0.00,VWS V14.01,2013-05-18 03:40:00,
2013-05-17 22:41:00,77.0,68.5,29.91,SW,225,1.1,4.0,75,0.00,,---,0.00,VWS V14.01,2013-05-18 03:41:00,
2013-05-17 22:42:00,76.8,68.3,29.91,SSE,158,2.5,3.8,75,0.00,,---,0.00,VWS V14.01,2013-05-18 03:42:00,
2013-05-17 22:43:00,76.8,68.3,29.91,ESE,112,8.1,8.1,75,0.00,,---,0.00,VWS V14.01,2013-05-18 03:43:00,
2013-05-17 22:44:00,76.8,68.7,29.91,South,180,4.5,8.1,76,0.00,,---,0.00,VWS V14.01,2013-05-18 03:44:00,
2013-05-17 22:45:00,76.8,68.7,29.91,SSE,158,3.1,4.5,76,0.00,,---,0.00,VWS V14.01,2013-05-18 03:45:00,
2013-05-17 22:46:00,76.8,68.7,29.91,SE,135,3.6,5.6,76,0.00,,---,0.00,VWS V14.01,2013-05-18 03:46:00,
2013-05-17 22:47:00,76.8,68.7,29.91,East,90,3.8,7.6,76,0.00,,---,0.00,VWS V14.01,2013-05-18 03:47:00,
2013-05-17 22:48:00,76.8,68.7,29.91,SW,225,4.7,4.7,76,0.00,,---,0.00,VWS V14.01,2013-05-18 03:48:00,
2013-05-17 22:49:00,76.8,68.7,29.91,SE,135,6.3,7.2,76,0.00,,---,0.00,VWS V14.01,2013-05-18 03:49:00,
2013-05-17 22:50:00,76.7,68.5,29.91,SE,135,2.7,6.3,76,0.00,,---,0.00,VWS V14.01,2013-05-18 03:50:00,
2013-05-17 22:51:00,76.7,68.5,29.91,SE,135,6.0,8.7,76,0.00,,---,0.00,VWS V14.01,2013-05-18 03:51:00,
2013-05-17 22:52:00,76.7,68.5,29.91,East,90,5.8,7.4,76,0.00,,---,0.00,VWS V14.01,2013-05-18 03:52:00,
2013-05-17 22:53:00,76.7,68.5,29.91,South,180,1.1,10.1,76,0.00,,---,0.00,VWS V14.01,2013-05-18 03:53:00,
2013-05-17 22:54:00,76.7,68.5,29.91,East,90,3.8,5.4,76,0.00,,---,0.00,VWS V14.01,2013-05-18 03:54:00,
2013-05-17 22:55:00,76.5,68.3,29.91,East,90,2.9,3.8,76,0.00,,---,0.00,VWS V14.01,2013-05-18 03:55:00,
2013-05-17 22:56:00,76.5,68.3,29.91,SE,135,3.1,4.3,76,0.00,,---,0.00,VWS V14.01,2013-05-18 03:56:00,
2013-05-17 22:57:00,76.5,68.7,29.91,ESE,112,6.5,6.5,77,0.00,,---,0.00,VWS V14.01,2013-05-18 03:57:00,
2013-05-17 22:58:00,76.5,68.7,29.91,East,90,3.1,6.9,77,0.00,,---,0.00,VWS V14.01,2013-05-18 03:58:00,
2013-05-17 22:59:00,76.3,68.6,29.91,ESE,112,4.0,7.6,77,0.00,,---,0.00,VWS V14.01,2013-05-18 03:59:00,
2013-05-17 23:00:00,76.3,68.6,29.91,ESE,112,8.1,8.1,77,0.00,,---,0.00,VWS V14.01,2013-05-18 04:00:00,
2013-05-17 23:01:00,76.3,68.6,29.91,East,90,4.0,8.1,77,0.00,,---,0.00,VWS V14.01,2013-05-18 04:01:00,
2013-05-17 23:02:00,76.3,68.6,29.91,SSW,202,7.2,7.2,77,0.00,,---,0.00,VWS V14.01,2013-05-18 04:02:00,
2013-05-17 23:03:00,76.3,68.6,29.91,SE,135,2.7,7.2,77,0.00,,---,0.00,VWS V14.01,2013-05-18 04:03:00,
2013-05-17 23:04:00,76.1,68.4,29.91,SE,135,1.6,4.9,77,0.00,,---,0.00,VWS V14.01,2013-05-18 04:04:00,
2013-05-17 23:05:00,76.1,68.4,29.91,ESE,112,5.8,5.8,77,0.00,,---,0.00,VWS V14.01,2013-05-18 04:05:00,
2013-05-17 23:06:00,76.1,68.4,29.91,WSW,248,5.6,5.8,77,0.00,,---,0.00,VWS V14.01,2013-05-18 04:06:00,
2013-05-17 23:07:00,76.1,68.4,29.91,SE,135,5.4,6.0,77,0.00,,---,0.00,VWS V14.01,2013-05-18 04:07:00,
2013-05-17 23:08:00,76.1,68.4,29.91,South,180,3.4,9.6,77,0.00,,---,0.00,VWS V14.01,2013-05-18 04:08:00,
2013-05-17 23:09:00,76.1,68.4,29.91,East,90,4.0,4.0,77,0.00,,---,0.00,VWS V14.01,2013-05-18 04:09:00,
2013-05-17 23:10:00,75.9,68.2,29.91,SSE,158,5.4,6.3,77,0.00,,---,0.00,VWS V14.01,2013-05-18 04:10:00,
2013-05-17 23:11:00,75.9,68.2,29.91,SE,135,2.7,5.4,77,0.00,,---,0.00,VWS V14.01,2013-05-18 04:11:00,
2013-05-17 23:12:00,75.9,68.2,29.91,East,90,2.9,8.5,77,0.00,,---,0.00,VWS V14.01,2013-05-18 04:12:00,
2013-05-17 23:13:00,75.9,68.2,29.91,SE,135,3.8,6.5,77,0.00,,---,0.00,VWS V14.01,2013-05-18 04:13:00,
2013-05-17 23:14:00,75.9,68.2,29.91,ESE,112,3.8,8.1,77,0.00,,---,0.00,VWS V14.01,2013-05-18 04:14:00,
2013-05-17 23:15:00,75.9,68.2,29.91,SSW,202,5.8,5.8,77,0.00,,---,0.00,VWS V14.01,2013-05-18 04:15:00,
2013-05-17 23:16:00,75.9,68.2,29.91,East,90,2.7,5.8,77,0.00,,---,0.00,VWS V14.01,2013-05-18 04:16:00,
2013-05-17 23:17:00,75.8,68.1,29.91,SSW,202,5.8,6.5,77,0.00,,---,0.00,VWS V14.01,2013-05-18 04:17:00,
2013-05-17 23:18:00,75.8,68.1,29.91,South,180,2.7,5.8,77,0.00,,---,0.00,VWS V14.01,2013-05-18 04:18:00,
2013-05-17 23:19:00,75.8,68.1,29.91,SSE,158,5.4,5.4,77,0.00,,---,0.00,VWS V14.01,2013-05-18 04:19:00,
2013-05-17 23:20:00,75.8,68.1,29.91,South,180,3.4,5.4,77,0.00,,---,0.00,VWS V14.01,2013-05-18 04:20:00,
2013-05-17 23:21:00,75.6,67.9,29.91,SE,135,3.4,5.4,77,0.00,,---,0.00,VWS V14.01,2013-05-18 04:21:00,
2013-05-17 23:22:00,75.6,67.9,29.91,East,90,2.9,7.4,77,0.00,,---,0.00,VWS V14.01,2013-05-18 04:22:00,
2013-05-17 23:23:00,75.6,67.9,29.91,South,180,7.4,7.4,77,0.00,,---,0.00,VWS V14.01,2013-05-18 04:23:00,
2013-05-17 23:24:00,75.6,67.9,29.91,ESE,112,4.3,14.5,77,0.00,,---,0.00,VWS V14.01,2013-05-18 04:24:00,
2013-05-17 23:25:00,75.6,67.9,29.91,SE,135,4.0,10.3,77,0.00,,---,0.00,VWS V14.01,2013-05-18 04:25:00,
2013-05-17 23:26:00,75.6,67.9,29.91,ESE,112,2.5,4.0,77,0.00,,---,0.00,VWS V14.01,2013-05-18 04:26:00,
2013-05-17 23:27:00,75.6,67.9,29.91,ESE,112,3.1,3.1,77,0.00,,---,0.00,VWS V14.01,2013-05-18 04:27:00,
2013-05-17 23:28:00,75.4,67.7,29.91,NE,45,3.8,4.7,77,0.00,,---,0.00,VWS V14.01,2013-05-18 04:28:00,
2013-05-17 23:29:00,75.4,67.7,29.91,ENE,68,2.5,6.7,77,0.00,,---,0.00,VWS V14.01,2013-05-18 04:29:00,
2013-05-17 23:30:00,75.4,67.7,29.91,SE,135,2.9,8.1,77,0.00,,---,0.00,VWS V14.01,2013-05-18 04:30:00,
2013-05-17 23:31:00,75.4,67.7,29.91,South,180,7.6,9.6,77,0.00,,---,0.00,VWS V14.01,2013-05-18 04:31:00,
2013-05-17 23:32:00,75.4,67.7,29.91,ESE,112,3.1,8.5,77,0.00,,---,0.00,VWS V14.01,2013-05-18 04:32:00,
2013-05-17 23:33:00,75.4,67.7,29.91,SE,135,2.7,7.4,77,0.00,,---,0.00,VWS V14.01,2013-05-18 04:33:00,
2013-05-17 23:34:00,75.4,67.7,29.91,SSW,202,2.0,4.7,77,0.00,,---,0.00,VWS V14.01,2013-05-18 04:34:00,
2013-05-17 23:35:00,75.4,67.7,29.91,SE,135,4.9,7.4,77,0.00,,---,0.00,VWS V14.01,2013-05-18 04:35:00,
2013-05-17 23:36:00,75.2,67.5,29.91,ESE,112,4.0,10.7,77,0.00,,---,0.00,VWS V14.01,2013-05-18 04:36:00,
2013-05-17 23:37:00,75.2,67.5,29.91,SSE,158,1.6,7.6,77,0.00,,---,0.00,VWS V14.01,2013-05-18 04:37:00,
2013-05-17 23:38:00,75.2,67.5,29.91,ESE,112,3.6,3.6,77,0.00,,---,0.00,VWS V14.01,2013-05-18 04:38:00,
2013-05-17 23:39:00,75.2,67.5,29.91,ENE,68,5.6,5.6,77,0.00,,---,0.00,VWS V14.01,2013-05-18 04:39:00,
2013-05-17 23:40:00,75.1,67.4,29.91,East,90,4.5,5.8,77,0.00,,---,0.00,VWS V14.01,2013-05-18 04:40:00,
2013-05-17 23:41:00,75.1,67.4,29.91,SW,225,3.1,5.8,77,0.00,,---,0.00,VWS V14.01,2013-05-18 04:41:00,
2013-05-17 23:42:00,75.1,67.4,29.91,NE,45,4.0,5.6,77,0.00,,---,0.00,VWS V14.01,2013-05-18 04:42:00,
2013-05-17 23:43:00,75.1,67.7,29.91,SE,135,6.0,6.7,78,0.00,,---,0.00,VWS V14.01,2013-05-18 04:43:00,
2013-05-17 23:44:00,75.1,67.7,29.91,South,180,5.4,10.7,78,0.00,,---,0.00,VWS V14.01,2013-05-18 04:44:00,
2013-05-17 23:45:00,75.1,67.4,29.91,ESE,112,4.9,6.0,77,0.00,,---,0.00,VWS V14.01,2013-05-18 04:45:00,
2013-05-17 23:46:00,75.1,67.7,29.91,SE,135,2.2,6.7,78,0.00,,---,0.00,VWS V14.01,2013-05-18 04:46:00,
2013-05-17 23:47:00,74.9,67.2,29.91,ESE,112,4.3,5.8,77,0.00,,---,0.00,VWS V14.01,2013-05-18 04:47:00,
2013-05-17 23:48:00,74.9,67.2,29.91,SE,135,3.6,4.3,77,0.00,,---,0.00,VWS V14.01,2013-05-18 04:48:00,
2013-05-17 23:49:00,74.9,67.2,29.91,SSE,158,3.8,5.6,77,0.00,,---,0.00,VWS V14.01,2013-05-18 04:49:00,
2013-05-17 23:50:00,74.9,67.6,29.91,ESE,112,4.0,4.0,78,0.00,,---,0.00,VWS V14.01,2013-05-18 04:50:00,
2013-05-17 23:51:00,74.9,67.6,29.91,ESE,112,1.6,4.0,78,0.00,,---,0.00,VWS V14.01,2013-05-18 04:51:00,
2013-05-17 23:52:00,74.9,67.6,29.91,East,90,3.8,4.3,78,0.00,,---,0.00,VWS V14.01,2013-05-18 04:52:00,
2013-05-17 23:53:00,74.7,67.4,29.91,South,180,5.4,5.6,78,0.00,,---,0.00,VWS V14.01,2013-05-18 04:53:00,
2013-05-17 23:54:00,74.9,67.6,29.91,South,180,2.7,6.0,78,0.00,,---,0.00,VWS V14.01,2013-05-18 04:54:00,
2013-05-17 23:55:00,74.7,67.4,29.91,South,180,3.6,5.8,78,0.00,,---,0.00,VWS V14.01,2013-05-18 04:55:00,
2013-05-17 23:56:00,74.7,67.4,29.91,SSW,202,2.0,5.6,78,0.00,,---,0.00,VWS V14.01,2013-05-18 04:56:00,
2013-05-17 23:57:00,74.7,67.0,29.91,NNE,22,0.0,2.0,77,0.00,,---,0.00,VWS V14.01,2013-05-18 04:57:00,
2013-05-17 23:58:00,74.7,67.4,29.91,East,90,3.1,3.6,78,0.00,,---,0.00,VWS V14.01,2013-05-18 04:58:00,
2013-05-17 23:59:00,74.7,67.4,29.91,ESE,112,3.4,7.8,78,0.00,,---,0.00,VWS V14.01,2013-05-18 04:59:00,